Wetterdaten: aktuell Dienstag, 09.08.2022 22:50
Datum Zeit Temp. 2m Temp. 5cm Feuchte A. Luftdruck Regen Wind Richtung Richtung ET Taupunkt Windchill Windben Empfang
09.08.2022 22:50 15,9 C 14,4 C 75 % 1025,1 hPa 0,0 l/m 1,6 km/h (1 Bft) S-SO 157 0,000 mm 11,5 C 15,9 C 3,2 km/h (1 Bft) 91,30 %
09.08.2022 22:49 15,9 C 14,4 C 75 % 1025,1 hPa 0,0 l/m 1,6 km/h (1 Bft) S-SO 157 0,000 mm 11,5 C 15,9 C 3,2 km/h (1 Bft) 91,30 %
09.08.2022 22:48 15,9 C 14,4 C 75 % 1025,2 hPa 0,0 l/m 1,6 km/h (1 Bft) S-SO 157 0,000 mm 11,5 C 15,9 C 3,2 km/h (1 Bft) 95,65 %
09.08.2022 22:47 15,9 C 14,4 C 74 % 1025,2 hPa 0,0 l/m 1,6 km/h (1 Bft) S-SO 157 0,000 mm 11,3 C 15,9 C 1,6 km/h (1 Bft) 95,65 %
09.08.2022 22:46 15,9 C 14,4 C 74 % 1025,1 hPa 0,0 l/m 3,2 km/h (1 Bft) S-SO 157 0,000 mm 11,3 C 15,9 C 3,2 km/h (1 Bft) 91,30 %
09.08.2022 22:45 15,9 C 14,4 C 74 % 1025,1 hPa 0,0 l/m 1,6 km/h (1 Bft) S-SO 157 0,000 mm 11,3 C 15,9 C 3,2 km/h (1 Bft) 95,65 %
09.08.2022 22:44 15,9 C 14,4 C 75 % 1025,2 hPa 0,0 l/m 0,0 km/h (0 Bft) S-SO 157 0,000 mm 11,5 C 15,9 C 1,6 km/h (1 Bft) 95,65 %
09.08.2022 22:43 15,9 C 14,4 C 75 % 1025,1 hPa 0,0 l/m 1,6 km/h (1 Bft) S-SO 157 0,000 mm 11,5 C 15,9 C 3,2 km/h (1 Bft) 91,30 %
09.08.2022 22:42 15,9 C 14,4 C 75 % 1025,1 hPa 0,0 l/m 1,6 km/h (1 Bft) S-SO 157 0,000 mm 11,5 C 15,9 C 3,2 km/h (1 Bft) 100,00 %
09.08.2022 22:41 15,8 C 14,4 C 75 % 1025,2 hPa 0,0 l/m 1,6 km/h (1 Bft) S-SO 157 0,000 mm 11,4 C 15,8 C 3,2 km/h (1 Bft) 91,30 %
09.08.2022 22:40 15,8 C 14,4 C 76 % 1025,1 hPa 0,0 l/m 3,2 km/h (1 Bft) S-SO 157 0,000 mm 11,6 C 15,8 C 4,8 km/h (1 Bft) 95,65 %
09.08.2022 22:39 15,9 C 14,4 C 76 % 1025,1 hPa 0,0 l/m 3,2 km/h (1 Bft) S-SO 157 0,000 mm 11,7 C 15,9 C 3,2 km/h (1 Bft) 91,30 %
09.08.2022 22:38 15,9 C 14,4 C 75 % 1025,1 hPa 0,0 l/m 3,2 km/h (1 Bft) S-SO 157 0,000 mm 11,5 C 15,9 C 4,8 km/h (1 Bft) 100,00 %
09.08.2022 22:37 16,1 C 14,4 C 75 % 1025,1 hPa 0,0 l/m 4,8 km/h (1 Bft) S-SO 157 0,000 mm 11,7 C 16,1 C 6,4 km/h (2 Bft) 91,30 %
09.08.2022 22:36 16,2 C 14,4 C 75 % 1025,1 hPa 0,0 l/m 4,8 km/h (1 Bft) S-SO 157 0,000 mm 11,8 C 16,2 C 6,4 km/h (2 Bft) 95,65 %
09.08.2022 22:35 16,2 C 14,4 C 74 % 1025,1 hPa 0,0 l/m 4,8 km/h (1 Bft) S-SO 157 0,000 mm 11,6 C 16,2 C 6,4 km/h (2 Bft) 95,65 %
09.08.2022 22:34 16,2 C 14,4 C 75 % 1025,1 hPa 0,0 l/m 3,2 km/h (1 Bft) S-SO 157 0,000 mm 11,8 C 16,2 C 4,8 km/h (1 Bft) 95,65 %
09.08.2022 22:33 16,4 C 14,4 C 74 % 1025,2 hPa 0,0 l/m 3,2 km/h (1 Bft) SO 135 0,000 mm 11,8 C 16,4 C 4,8 km/h (1 Bft) 91,30 %
09.08.2022 22:32 16,4 C 14,4 C 74 % 1025,2 hPa 0,0 l/m 4,8 km/h (1 Bft) S-SO 157 0,000 mm 11,8 C 16,4 C 6,4 km/h (2 Bft) 100,00 %
09.08.2022 22:31 16,6 C 14,4 C 73 % 1025,1 hPa 0,0 l/m 4,8 km/h (1 Bft) SO 135 0,000 mm 11,7 C 16,6 C 6,4 km/h (2 Bft) 95,65 %
09.08.2022 22:30 16,6 C 14,4 C 74 % 1025,2 hPa 0,0 l/m 3,2 km/h (1 Bft) S-SO 157 0,000 mm 11,9 C 16,6 C 4,8 km/h (1 Bft) 86,96 %
09.08.2022 22:29 16,6 C 14,4 C 73 % 1025,1 hPa 0,0 l/m 3,2 km/h (1 Bft) SO 135 0,000 mm 11,7 C 16,6 C 6,4 km/h (2 Bft) 95,65 %
09.08.2022 22:28 16,6 C 14,4 C 73 % 1025,1 hPa 0,0 l/m 3,2 km/h (1 Bft) SO 135 0,000 mm 11,7 C 16,6 C 4,8 km/h (1 Bft) 91,30 %
09.08.2022 22:27 16,7 C 14,4 C 73 % 1025,2 hPa 0,0 l/m 3,2 km/h (1 Bft) SO 135 0,000 mm 11,8 C 16,7 C 4,8 km/h (1 Bft) 91,30 %
09.08.2022 22:26 16,8 C 14,4 C 73 % 1025,2 hPa 0,0 l/m 3,2 km/h (1 Bft) O-SO 112 0,000 mm 11,9 C 16,8 C 4,8 km/h (1 Bft) 95,65 %
09.08.2022 22:25 16,8 C 14,4 C 73 % 1025,1 hPa 0,0 l/m 3,2 km/h (1 Bft) S-SO 157 0,000 mm 11,9 C 16,8 C 4,8 km/h (1 Bft) 95,65 %
09.08.2022 22:24 16,8 C 14,4 C 73 % 1025,1 hPa 0,0 l/m 4,8 km/h (1 Bft) S-SO 157 0,000 mm 11,9 C 16,8 C 6,4 km/h (2 Bft) 86,96 %
09.08.2022 22:23 16,8 C 14,4 C 71 % 1025,2 hPa 0,0 l/m 3,2 km/h (1 Bft) O-SO 112 0,000 mm 11,5 C 16,8 C 6,4 km/h (2 Bft) 95,65 %
09.08.2022 22:22 16,6 C 14,4 C 72 % 1025,1 hPa 0,0 l/m 3,2 km/h (1 Bft) O-SO 112 0,000 mm 11,5 C 16,6 C 4,8 km/h (1 Bft) 91,30 %
09.08.2022 22:21 16,5 C 14,4 C 73 % 1025,1 hPa 0,0 l/m 3,2 km/h (1 Bft) SO 135 0,000 mm 11,6 C 16,5 C 4,8 km/h (1 Bft) 95,65 %
09.08.2022 22:20 16,4 C 14,4 C 73 % 1025,1 hPa 0,0 l/m 3,2 km/h (1 Bft) SO 135 0,000 mm 11,5 C 16,4 C 3,2 km/h (1 Bft) 95,65 %
09.08.2022 22:19 16,5 C 14,4 C 74 % 1025,2 hPa 0,0 l/m 3,2 km/h (1 Bft) SO 135 0,000 mm 11,8 C 16,5 C 4,8 km/h (1 Bft) 95,65 %
09.08.2022 22:18 16,4 C 14,4 C 74 % 1025,2 hPa 0,0 l/m 3,2 km/h (1 Bft) SO 135 0,000 mm 11,8 C 16,4 C 3,2 km/h (1 Bft) 95,65 %
09.08.2022 22:17 16,4 C 14,4 C 74 % 1025,2 hPa 0,0 l/m 1,6 km/h (1 Bft) O-SO 112 0,000 mm 11,8 C 16,4 C 3,2 km/h (1 Bft) 91,30 %
09.08.2022 22:16 16,4 C 14,4 C 74 % 1025,1 hPa 0,0 l/m 1,6 km/h (1 Bft) O-SO 112 0,000 mm 11,8 C 16,4 C 3,2 km/h (1 Bft) 95,65 %
09.08.2022 22:15 16,3 C 14,4 C 75 % 1025,1 hPa 0,0 l/m 3,2 km/h (1 Bft) O-SO 112 0,000 mm 11,9 C 16,3 C 4,8 km/h (1 Bft) 91,30 %
09.08.2022 22:14 16,2 C 15,0 C 75 % 1025,1 hPa 0,0 l/m 1,6 km/h (1 Bft) O-SO 112 0,000 mm 11,8 C 16,2 C 3,2 km/h (1 Bft) 100,00 %
09.08.2022 22:13 16,2 C 15,0 C 76 % 1025,2 hPa 0,0 l/m 3,2 km/h (1 Bft) SO 135 0,000 mm 12,0 C 16,2 C 4,8 km/h (1 Bft) 91,30 %
09.08.2022 22:12 16,2 C 15,0 C 76 % 1025,2 hPa 0,0 l/m 3,2 km/h (1 Bft) SO 135 0,000 mm 12,0 C 16,2 C 6,4 km/h (2 Bft) 91,30 %
09.08.2022 22:11 16,2 C 15,0 C 76 % 1025,2 hPa 0,0 l/m 3,2 km/h (1 Bft) S-SO 157 0,000 mm 12,0 C 16,2 C 4,8 km/h (1 Bft) 95,65 %
09.08.2022 22:10 16,3 C 15,0 C 76 % 1025,2 hPa 0,0 l/m 3,2 km/h (1 Bft) S-SO 157 0,000 mm 12,1 C 16,3 C 3,2 km/h (1 Bft) 91,30 %
09.08.2022 22:09 16,4 C 15,0 C 75 % 1025,2 hPa 0,0 l/m 3,2 km/h (1 Bft) S-SO 157 0,000 mm 12,0 C 16,4 C 3,2 km/h (1 Bft) 91,30 %
09.08.2022 22:08 16,4 C 15,0 C 75 % 1025,2 hPa 0,0 l/m 1,6 km/h (1 Bft) S-SO 157 0,000 mm 12,0 C 16,4 C 3,2 km/h (1 Bft) 100,00 %
09.08.2022 22:07 16,4 C 15,0 C 74 % 1025,2 hPa 0,0 l/m 1,6 km/h (1 Bft) S-SO 157 0,000 mm 11,8 C 16,4 C 3,2 km/h (1 Bft) 91,30 %
09.08.2022 22:06 16,4 C 15,0 C 75 % 1025,1 hPa 0,0 l/m 1,6 km/h (1 Bft) S-SO 157 0,000 mm 12,0 C 16,4 C 3,2 km/h (1 Bft) 91,30 %
09.08.2022 22:05 16,5 C 15,0 C 75 % 1025,2 hPa 0,0 l/m 1,6 km/h (1 Bft) S-SO 157 0,000 mm 12,1 C 16,5 C 3,2 km/h (1 Bft) 91,30 %
09.08.2022 22:04 16,6 C 15,0 C 74 % 1025,2 hPa 0,0 l/m 3,2 km/h (1 Bft) S-SO 157 0,000 mm 11,9 C 16,6 C 6,4 km/h (2 Bft) 95,65 %
09.08.2022 22:03 16,6 C 15,0 C 74 % 1025,2 hPa 0,0 l/m 3,2 km/h (1 Bft) S-SO 157 0,000 mm 11,9 C 16,6 C 3,2 km/h (1 Bft) 95,65 %
09.08.2022 22:02 16,7 C 15,0 C 74 % 1025,2 hPa 0,0 l/m 1,6 km/h (1 Bft) S-SO 157 0,000 mm 12,0 C 16,7 C 1,6 km/h (1 Bft) 95,65 %
09.08.2022 22:01 16,7 C 15,0 C 74 % 1025,1 hPa 0,0 l/m 1,6 km/h (1 Bft) S-SO 157 0,000 mm 12,0 C 16,7 C 3,2 km/h (1 Bft) 95,65 %
09.08.2022 22:00 16,7 C 15,0 C 74 % 1025,1 hPa 0,0 l/m 0,0 km/h (0 Bft) N 0 0,000 mm 12,0 C 16,7 C 0,0 km/h (0 Bft) 82,61 %
09.08.2022 21:59 16,7 C 15,6 C 74 % 1025,2 hPa 0,0 l/m 1,6 km/h (1 Bft) S-SO 157 0,000 mm 12,0 C 16,7 C 1,6 km/h (1 Bft) 100,00 %
09.08.2022 21:58 16,7 C 15,6 C 74 % 1025,1 hPa 0,0 l/m 1,6 km/h (1 Bft) S-SO 157 0,000 mm 12,0 C 16,7 C 3,2 km/h (1 Bft) 91,30 %
09.08.2022 21:57 16,8 C 15,6 C 74 % 1025,1 hPa 0,0 l/m 3,2 km/h (1 Bft) S-SO 157 0,000 mm 12,1 C 16,8 C 3,2 km/h (1 Bft) 95,65 %
09.08.2022 21:56 16,9 C 15,6 C 74 % 1025,1 hPa 0,0 l/m 3,2 km/h (1 Bft) S-SO 157 0,000 mm 12,2 C 16,9 C 4,8 km/h (1 Bft) 91,30 %
09.08.2022 21:55 16,9 C 15,6 C 74 % 1025,1 hPa 0,0 l/m 3,2 km/h (1 Bft) S 180 0,000 mm 12,2 C 16,9 C 6,4 km/h (2 Bft) 95,65 %
09.08.2022 21:54 17,0 C 15,6 C 74 % 1025,1 hPa 0,0 l/m 3,2 km/h (1 Bft) S-SO 157 0,000 mm 12,3 C 17,0 C 6,4 km/h (2 Bft) 86,96 %
09.08.2022 21:53 17,1 C 15,6 C 73 % 1025,0 hPa 0,0 l/m 3,2 km/h (1 Bft) SO 135 0,000 mm 12,2 C 17,1 C 4,8 km/h (1 Bft) 95,65 %
09.08.2022 21:52 17,0 C 15,6 C 73 % 1025,0 hPa 0,0 l/m 3,2 km/h (1 Bft) SO 135 0,000 mm 12,1 C 17,0 C 4,8 km/h (1 Bft) 95,65 %
09.08.2022 21:51 16,9 C 15,6 C 73 % 1025,1 hPa 0,0 l/m 3,2 km/h (1 Bft) SO 135 0,000 mm 12,0 C 16,9 C 3,2 km/h (1 Bft) 95,65 %
09.08.2022 21:50 16,8 C 15,6 C 74 % 1025,1 hPa 0,0 l/m 3,2 km/h (1 Bft) SO 135 0,000 mm 12,1 C 16,8 C 4,8 km/h (1 Bft) 91,30 %
09.08.2022 21:49 16,7 C 15,6 C 74 % 1025,1 hPa 0,0 l/m 4,8 km/h (1 Bft) O-SO 112 0,000 mm 12,0 C 16,7 C 4,8 km/h (1 Bft) 100,00 %
09.08.2022 21:48 16,7 C 15,6 C 74 % 1025,1 hPa 0,0 l/m 1,6 km/h (1 Bft) S-SO 157 0,000 mm 12,0 C 16,7 C 3,2 km/h (1 Bft) 91,30 %
09.08.2022 21:47 16,6 C 15,6 C 76 % 1025,1 hPa 0,0 l/m 1,6 km/h (1 Bft) S-SO 157 0,000 mm 12,3 C 16,6 C 3,2 km/h (1 Bft) 91,30 %
09.08.2022 21:46 16,6 C 15,6 C 75 % 1025,1 hPa 0,0 l/m 3,2 km/h (1 Bft) S-SO 157 0,000 mm 12,1 C 16,6 C 6,4 km/h (2 Bft) 100,00 %
09.08.2022 21:45 16,6 C 15,6 C 75 % 1025,0 hPa 0,0 l/m 6,4 km/h (2 Bft) S-SO 157 0,000 mm 12,1 C 16,6 C 8,0 km/h (2 Bft) 91,30 %
09.08.2022 21:44 16,6 C 15,6 C 75 % 1025,0 hPa 0,0 l/m 6,4 km/h (2 Bft) S-SO 157 0,000 mm 12,1 C 16,6 C 8,0 km/h (2 Bft) 95,65 %
09.08.2022 21:43 16,6 C 15,6 C 75 % 1025,0 hPa 0,0 l/m 6,4 km/h (2 Bft) S-SO 157 0,000 mm 12,1 C 16,6 C 8,0 km/h (2 Bft) 91,30 %
09.08.2022 21:42 16,7 C 15,6 C 75 % 1025,0 hPa 0,0 l/m 8,0 km/h (2 Bft) S-SO 157 0,000 mm 12,2 C 15,9 C 9,7 km/h (2 Bft) 95,65 %
09.08.2022 21:41 16,7 C 15,6 C 75 % 1025,0 hPa 0,0 l/m 8,0 km/h (2 Bft) S-SO 157 0,000 mm 12,2 C 15,9 C 9,7 km/h (2 Bft) 91,30 %
09.08.2022 21:40 16,8 C 15,6 C 74 % 1025,0 hPa 0,0 l/m 8,0 km/h (2 Bft) S-SO 157 0,000 mm 12,1 C 16,0 C 9,7 km/h (2 Bft) 100,00 %
09.08.2022 21:39 16,9 C 16,1 C 74 % 1025,0 hPa 0,0 l/m 6,4 km/h (2 Bft) S-SO 157 0,000 mm 12,2 C 16,9 C 9,7 km/h (2 Bft) 91,30 %
09.08.2022 21:38 17,0 C 16,1 C 73 % 1025,0 hPa 0,0 l/m 8,0 km/h (2 Bft) S-SO 157 0,000 mm 12,1 C 16,2 C 9,7 km/h (2 Bft) 95,65 %
09.08.2022 21:37 17,1 C 16,1 C 73 % 1025,0 hPa 0,0 l/m 4,8 km/h (1 Bft) S-SO 157 0,000 mm 12,2 C 17,1 C 6,4 km/h (2 Bft) 95,65 %
09.08.2022 21:36 17,1 C 16,1 C 74 % 1025,0 hPa 0,0 l/m 3,2 km/h (1 Bft) S-SO 157 0,000 mm 12,4 C 17,1 C 3,2 km/h (1 Bft) 95,65 %
09.08.2022 21:35 17,3 C 16,1 C 73 % 1025,1 hPa 0,0 l/m 6,4 km/h (2 Bft) S-SO 157 0,000 mm 12,4 C 17,3 C 8,0 km/h (2 Bft) 95,65 %
09.08.2022 21:34 17,4 C 16,1 C 73 % 1024,9 hPa 0,0 l/m 6,4 km/h (2 Bft) S-SO 157 0,000 mm 12,5 C 17,4 C 8,0 km/h (2 Bft) 86,96 %
09.08.2022 21:33 17,7 C 16,1 C 72 % 1025,0 hPa 0,0 l/m 3,2 km/h (1 Bft) S-SO 157 0,000 mm 12,6 C 17,7 C 4,8 km/h (1 Bft) 95,65 %
09.08.2022 21:32 17,8 C 16,1 C 72 % 1025,0 hPa 0,0 l/m 4,8 km/h (1 Bft) S 180 0,000 mm 12,7 C 17,8 C 6,4 km/h (2 Bft) 78,26 %
09.08.2022 21:31 18,0 C 16,7 C 71 % 1024,9 hPa 0,0 l/m 3,2 km/h (1 Bft) S 180 0,000 mm 12,7 C 18,0 C 6,4 km/h (2 Bft) 100,00 %
09.08.2022 21:30 18,1 C 16,7 C 70 % 1025,0 hPa 0,0 l/m 4,8 km/h (1 Bft) S-SO 157 0,000 mm 12,5 C 18,1 C 6,4 km/h (2 Bft) 86,96 %
09.08.2022 21:29 18,3 C 16,7 C 70 % 1024,9 hPa 0,0 l/m 3,2 km/h (1 Bft) S-SO 157 0,000 mm 12,7 C 18,3 C 6,4 km/h (2 Bft) 95,65 %
09.08.2022 21:28 18,5 C 16,7 C 69 % 1025,0 hPa 0,0 l/m 4,8 km/h (1 Bft) S-SO 157 0,000 mm 12,7 C 18,5 C 6,4 km/h (2 Bft) 86,96 %
09.08.2022 21:27 18,8 C 16,7 C 68 % 1025,0 hPa 0,0 l/m 3,2 km/h (1 Bft) S-SO 157 0,000 mm 12,8 C 18,8 C 6,4 km/h (2 Bft) 95,65 %
09.08.2022 21:26 19,1 C 17,2 C 68 % 1024,9 hPa 0,0 l/m 3,2 km/h (1 Bft) SO 135 0,000 mm 13,1 C 19,1 C 4,8 km/h (1 Bft) 86,96 %
09.08.2022 21:25 19,4 C 17,8 C 67 % 1024,9 hPa 0,0 l/m 3,2 km/h (1 Bft) S-SO 157 0,000 mm 13,1 C 19,4 C 4,8 km/h (1 Bft) 95,65 %
09.08.2022 21:24 19,6 C 17,8 C 64 % 1024,9 hPa 0,0 l/m 1,6 km/h (1 Bft) NO 45 0,000 mm 12,6 C 19,6 C 4,8 km/h (1 Bft) 91,30 %
09.08.2022 21:23 19,7 C 17,8 C 64 % 1024,9 hPa 0,0 l/m 4,8 km/h (1 Bft) NO 45 0,000 mm 12,7 C 19,7 C 8,0 km/h (2 Bft) 91,30 %
09.08.2022 21:22 19,6 C 17,8 C 62 % 1024,9 hPa 0,0 l/m 4,8 km/h (1 Bft) NO 45 0,000 mm 12,1 C 19,6 C 8,0 km/h (2 Bft) 95,65 %
09.08.2022 21:21 19,6 C 17,8 C 63 % 1024,9 hPa 0,0 l/m 6,4 km/h (2 Bft) O-NO 67 0,000 mm 12,4 C 19,6 C 8,0 km/h (2 Bft) 91,30 %
09.08.2022 21:20 19,4 C 17,2 C 63 % 1024,9 hPa 0,0 l/m 6,4 km/h (2 Bft) O-NO 67 0,000 mm 12,2 C 19,4 C 9,7 km/h (2 Bft) 95,65 %
09.08.2022 21:19 19,4 C 17,2 C 64 % 1024,9 hPa 0,0 l/m 4,8 km/h (1 Bft) O 90 0,000 mm 12,4 C 19,4 C 9,7 km/h (2 Bft) 91,30 %
09.08.2022 21:18 19,4 C 17,2 C 65 % 1024,9 hPa 0,0 l/m 3,2 km/h (1 Bft) O 90 0,000 mm 12,6 C 19,4 C 4,8 km/h (1 Bft) 95,65 %
09.08.2022 21:17 19,5 C 17,2 C 64 % 1024,9 hPa 0,0 l/m 3,2 km/h (1 Bft) O-SO 112 0,000 mm 12,5 C 19,5 C 6,4 km/h (2 Bft) 86,96 %
09.08.2022 21:16 19,5 C 17,2 C 64 % 1024,9 hPa 0,0 l/m 4,8 km/h (1 Bft) O 90 0,000 mm 12,5 C 19,5 C 6,4 km/h (2 Bft) 100,00 %
09.08.2022 21:15 19,6 C 17,8 C 64 % 1024,9 hPa 0,0 l/m 3,2 km/h (1 Bft) O 90 0,000 mm 12,6 C 19,6 C 4,8 km/h (1 Bft) 86,96 %
09.08.2022 21:14 19,6 C 17,2 C 64 % 1024,8 hPa 0,0 l/m 3,2 km/h (1 Bft) O 90 0,000 mm 12,6 C 19,6 C 4,8 km/h (1 Bft) 95,65 %
09.08.2022 21:13 19,7 C 17,8 C 64 % 1024,8 hPa 0,0 l/m 3,2 km/h (1 Bft) O 90 0,000 mm 12,7 C 19,7 C 4,8 km/h (1 Bft) 91,30 %
09.08.2022 21:12 19,7 C 17,8 C 63 % 1024,8 hPa 0,0 l/m 3,2 km/h (1 Bft) O 90 0,000 mm 12,5 C 19,7 C 4,8 km/h (1 Bft) 95,65 %
09.08.2022 21:11 19,7 C 17,8 C 64 % 1024,7 hPa 0,0 l/m 1,6 km/h (1 Bft) O 90 0,000 mm 12,7 C 19,7 C 3,2 km/h (1 Bft) 82,61 %
09.08.2022 21:10 19,7 C 17,8 C 62 % 1024,7 hPa 0,0 l/m 3,2 km/h (1 Bft) O 90 0,000 mm 12,2 C 19,7 C 4,8 km/h (1 Bft) 95,65 %
09.08.2022 21:09 19,7 C 17,8 C 64 % 1024,7 hPa 0,0 l/m 3,2 km/h (1 Bft) O 90 0,000 mm 12,7 C 19,7 C 4,8 km/h (1 Bft) 86,96 %
09.08.2022 21:08 19,7 C 17,8 C 64 % 1024,6 hPa 0,0 l/m 1,6 km/h (1 Bft) O-NO 67 0,000 mm 12,7 C 19,7 C 3,2 km/h (1 Bft) 91,30 %
09.08.2022 21:07 19,7 C 17,8 C 63 % 1024,7 hPa 0,0 l/m 1,6 km/h (1 Bft) O-NO 67 0,000 mm 12,5 C 19,7 C 3,2 km/h (1 Bft) 95,65 %
09.08.2022 21:06 19,7 C 17,8 C 63 % 1024,6 hPa 0,0 l/m 1,6 km/h (1 Bft) O 90 0,000 mm 12,5 C 19,7 C 3,2 km/h (1 Bft) 91,30 %
09.08.2022 21:05 19,7 C 17,8 C 64 % 1024,7 hPa 0,0 l/m 1,6 km/h (1 Bft) O 90 0,000 mm 12,7 C 19,7 C 3,2 km/h (1 Bft) 91,30 %
09.08.2022 21:04 19,7 C 17,8 C 63 % 1024,6 hPa 0,0 l/m 3,2 km/h (1 Bft) O 90 0,000 mm 12,5 C 19,7 C 6,4 km/h (2 Bft) 82,61 %
09.08.2022 21:03 19,6 C 17,8 C 63 % 1024,6 hPa 0,0 l/m 3,2 km/h (1 Bft) O-NO 67 0,000 mm 12,4 C 19,6 C 4,8 km/h (1 Bft) 100,00 %
09.08.2022 21:02 19,6 C 17,8 C 63 % 1024,5 hPa 0,0 l/m 4,8 km/h (1 Bft) O 90 0,000 mm 12,4 C 19,6 C 4,8 km/h (1 Bft) 82,61 %
09.08.2022 21:01 19,4 C 17,2 C 63 % 1024,5 hPa 0,0 l/m 3,2 km/h (1 Bft) O 90 0,000 mm 12,2 C 19,4 C 4,8 km/h (1 Bft) 95,65 %
09.08.2022 21:00 19,3 C 17,2 C 63 % 1024,5 hPa 0,0 l/m 3,2 km/h (1 Bft) O 90 0,000 mm 12,1 C 19,3 C 4,8 km/h (1 Bft) 82,61 %
09.08.2022 20:59 19,2 C 17,2 C 64 % 1024,5 hPa 0,0 l/m 3,2 km/h (1 Bft) O-SO 112 0,000 mm 12,2 C 19,2 C 4,8 km/h (1 Bft) 91,30 %
09.08.2022 20:58 18,9 C 16,7 C 65 % 1024,4 hPa 0,0 l/m 3,2 km/h (1 Bft) O 90 0,000 mm 12,2 C 18,9 C 4,8 km/h (1 Bft) 86,96 %
09.08.2022 20:57 18,9 C 16,7 C 67 % 1024,4 hPa 0,0 l/m 1,6 km/h (1 Bft) S-SO 157 0,000 mm 12,6 C 18,9 C 3,2 km/h (1 Bft) 95,65 %
09.08.2022 20:56 18,9 C 16,7 C 67 % 1024,4 hPa 0,0 l/m 1,6 km/h (1 Bft) S-SO 157 0,000 mm 12,6 C 18,9 C 3,2 km/h (1 Bft) 86,96 %
09.08.2022 20:55 19,0 C 16,7 C 67 % 1024,5 hPa 0,0 l/m 1,6 km/h (1 Bft) S-SO 157 0,000 mm 12,7 C 19,0 C 3,2 km/h (1 Bft) 95,65 %
09.08.2022 20:54 19,1 C 16,7 C 68 % 1024,3 hPa 0,0 l/m 1,6 km/h (1 Bft) S-SO 157 0,000 mm 13,1 C 19,1 C 3,2 km/h (1 Bft) 91,30 %
09.08.2022 20:53 19,2 C 16,7 C 66 % 1024,3 hPa 0,0 l/m 1,6 km/h (1 Bft) S-SO 157 0,000 mm 12,7 C 19,2 C 3,2 km/h (1 Bft) 91,30 %
09.08.2022 20:52 19,3 C 16,7 C 67 % 1024,3 hPa 0,0 l/m 3,2 km/h (1 Bft) S-SO 157 0,000 mm 13,0 C 19,3 C 3,2 km/h (1 Bft) 91,30 %
09.08.2022 20:51 19,4 C 17,2 C 65 % 1024,2 hPa 0,0 l/m 0,0 km/h (0 Bft) S-SO 157 0,000 mm 12,6 C 19,4 C 1,6 km/h (1 Bft) 91,30 %
09.08.2022 20:50 19,4 C 17,2 C 64 % 1024,2 hPa 0,0 l/m 1,6 km/h (1 Bft) S-SO 157 0,000 mm 12,4 C 19,4 C 3,2 km/h (1 Bft) 95,65 %
09.08.2022 20:49 19,4 C 17,2 C 66 % 1024,3 hPa 0,0 l/m 3,2 km/h (1 Bft) S-SO 157 0,000 mm 12,9 C 19,4 C 4,8 km/h (1 Bft) 78,26 %
09.08.2022 20:48 19,6 C 17,2 C 65 % 1024,2 hPa 0,0 l/m 3,2 km/h (1 Bft) O-SO 112 0,000 mm 12,8 C 19,6 C 3,2 km/h (1 Bft) 95,65 %
09.08.2022 20:47 19,7 C 17,2 C 64 % 1024,2 hPa 0,0 l/m 1,6 km/h (1 Bft) O 90 0,000 mm 12,7 C 19,7 C 3,2 km/h (1 Bft) 86,96 %
09.08.2022 20:46 19,8 C 17,2 C 63 % 1024,2 hPa 0,0 l/m 0,0 km/h (0 Bft) O 90 0,000 mm 12,5 C 19,8 C 1,6 km/h (1 Bft) 91,30 %
09.08.2022 20:45 19,9 C 17,8 C 63 % 1024,2 hPa 0,0 l/m 0,0 km/h (0 Bft) O 90 0,000 mm 12,6 C 19,9 C 1,6 km/h (1 Bft) 91,30 %
09.08.2022 20:44 20,1 C 17,8 C 63 % 1024,3 hPa 0,0 l/m 1,6 km/h (1 Bft) O 90 0,000 mm 12,8 C 20,1 C 3,2 km/h (1 Bft) 91,30 %
09.08.2022 20:43 20,2 C 17,8 C 62 % 1024,2 hPa 0,0 l/m 1,6 km/h (1 Bft) O 90 0,000 mm 12,7 C 20,2 C 3,2 km/h (1 Bft) 86,96 %
09.08.2022 20:42 20,2 C 17,8 C 62 % 1024,2 hPa 0,0 l/m 1,6 km/h (1 Bft) O 90 0,000 mm 12,7 C 20,2 C 3,2 km/h (1 Bft) 95,65 %
09.08.2022 20:41 20,2 C 17,8 C 62 % 1024,1 hPa 0,0 l/m 0,0 km/h (0 Bft) N 0 0,000 mm 12,7 C 20,2 C 0,0 km/h (0 Bft) 86,96 %
09.08.2022 20:40 20,3 C 17,8 C 62 % 1024,1 hPa 0,0 l/m 1,6 km/h (1 Bft) O 90 0,000 mm 12,8 C 20,3 C 3,2 km/h (1 Bft) 91,30 %
09.08.2022 20:39 20,3 C 17,8 C 60 % 1024,2 hPa 0,0 l/m 3,2 km/h (1 Bft) O 90 0,000 mm 12,3 C 20,3 C 4,8 km/h (1 Bft) 91,30 %
09.08.2022 20:38 20,3 C 18,3 C 60 % 1024,1 hPa 0,0 l/m 1,6 km/h (1 Bft) O 90 0,000 mm 12,3 C 20,3 C 4,8 km/h (1 Bft) 95,65 %
09.08.2022 20:37 20,3 C 18,3 C 61 % 1024,2 hPa 0,0 l/m 3,2 km/h (1 Bft) NO 45 0,000 mm 12,5 C 20,3 C 3,2 km/h (1 Bft) 95,65 %
09.08.2022 20:36 20,3 C 18,3 C 61 % 1024,1 hPa 0,0 l/m 3,2 km/h (1 Bft) O-NO 67 0,000 mm 12,5 C 20,3 C 4,8 km/h (1 Bft) 91,30 %
09.08.2022 20:35 20,3 C 18,3 C 61 % 1024,1 hPa 0,0 l/m 0,0 km/h (0 Bft) O 90 0,000 mm 12,5 C 20,3 C 1,6 km/h (1 Bft) 95,65 %
09.08.2022 20:34 20,3 C 18,3 C 61 % 1024,1 hPa 0,0 l/m 0,0 km/h (0 Bft) O 90 0,000 mm 12,5 C 20,3 C 1,6 km/h (1 Bft) 86,96 %
09.08.2022 20:33 20,3 C 18,3 C 61 % 1024,1 hPa 0,0 l/m 1,6 km/h (1 Bft) O 90 0,000 mm 12,5 C 20,3 C 3,2 km/h (1 Bft) 100,00 %
09.08.2022 20:32 20,2 C 18,3 C 61 % 1024,0 hPa 0,0 l/m 1,6 km/h (1 Bft) O 90 0,000 mm 12,4 C 20,2 C 3,2 km/h (1 Bft) 91,30 %
09.08.2022 20:31 20,1 C 17,8 C 62 % 1024,0 hPa 0,0 l/m 3,2 km/h (1 Bft) O 90 0,000 mm 12,6 C 20,1 C 6,4 km/h (2 Bft) 95,65 %
09.08.2022 20:30 19,9 C 17,8 C 62 % 1024,1 hPa 0,0 l/m 3,2 km/h (1 Bft) O-SO 112 0,000 mm 12,4 C 19,9 C 6,4 km/h (2 Bft) 95,65 %
09.08.2022 20:29 19,9 C 17,8 C 62 % 1023,9 hPa 0,0 l/m 3,2 km/h (1 Bft) O 90 0,000 mm 12,4 C 19,9 C 6,4 km/h (2 Bft) 86,96 %
09.08.2022 20:28 19,8 C 17,2 C 64 % 1023,9 hPa 0,0 l/m 1,6 km/h (1 Bft) O 90 0,000 mm 12,8 C 19,8 C 3,2 km/h (1 Bft) 95,65 %
09.08.2022 20:27 19,8 C 17,2 C 65 % 1023,9 hPa 0,0 l/m 4,8 km/h (1 Bft) O 90 0,000 mm 13,0 C 19,8 C 4,8 km/h (1 Bft) 100,00 %
09.08.2022 20:26 19,8 C 17,2 C 64 % 1024,0 hPa 0,0 l/m 3,2 km/h (1 Bft) O-SO 112 0,000 mm 12,8 C 19,8 C 6,4 km/h (2 Bft) 91,30 %
09.08.2022 20:25 19,8 C 17,2 C 66 % 1023,9 hPa 0,0 l/m 4,8 km/h (1 Bft) O-SO 112 0,000 mm 13,3 C 19,8 C 6,4 km/h (2 Bft) 95,65 %
09.08.2022 20:24 19,8 C 17,2 C 65 % 1023,9 hPa 0,0 l/m 4,8 km/h (1 Bft) O 90 0,000 mm 13,0 C 19,8 C 4,8 km/h (1 Bft) 95,65 %
09.08.2022 20:23 19,8 C 17,8 C 67 % 1023,9 hPa 0,0 l/m 3,2 km/h (1 Bft) O 90 0,000 mm 13,5 C 19,8 C 4,8 km/h (1 Bft) 95,65 %
09.08.2022 20:22 19,8 C 17,2 C 65 % 1023,9 hPa 0,0 l/m 4,8 km/h (1 Bft) O-NO 67 0,000 mm 13,0 C 19,8 C 9,7 km/h (2 Bft) 95,65 %
09.08.2022 20:21 19,6 C 17,8 C 67 % 1023,9 hPa 0,0 l/m 3,2 km/h (1 Bft) O 90 0,000 mm 13,3 C 19,6 C 4,8 km/h (1 Bft) 95,65 %
09.08.2022 20:20 19,6 C 17,8 C 67 % 1023,8 hPa 0,0 l/m 4,8 km/h (1 Bft) O 90 0,000 mm 13,3 C 19,6 C 6,4 km/h (2 Bft) 95,65 %
09.08.2022 20:19 19,6 C 17,8 C 66 % 1023,8 hPa 0,0 l/m 4,8 km/h (1 Bft) O 90 0,000 mm 13,1 C 19,6 C 4,8 km/h (1 Bft) 86,96 %
09.08.2022 20:18 19,4 C 17,8 C 68 % 1023,8 hPa 0,0 l/m 3,2 km/h (1 Bft) O-SO 112 0,000 mm 13,3 C 19,4 C 3,2 km/h (1 Bft) 95,65 %
09.08.2022 20:17 19,5 C 17,8 C 68 % 1023,8 hPa 0,0 l/m 1,6 km/h (1 Bft) O-SO 112 0,000 mm 13,4 C 19,5 C 3,2 km/h (1 Bft) 95,65 %
09.08.2022 20:16 19,6 C 17,8 C 69 % 1023,8 hPa 0,0 l/m 1,6 km/h (1 Bft) O-SO 112 0,000 mm 13,8 C 19,6 C 3,2 km/h (1 Bft) 95,65 %
09.08.2022 20:15 19,8 C 17,8 C 70 % 1023,8 hPa 0,0 l/m 3,2 km/h (1 Bft) O-SO 112 0,000 mm 14,2 C 19,8 C 3,2 km/h (1 Bft) 91,30 %
09.08.2022 20:14 19,9 C 17,8 C 68 % 1023,7 hPa 0,0 l/m 3,2 km/h (1 Bft) O-SO 112 0,000 mm 13,8 C 19,9 C 4,8 km/h (1 Bft) 100,00 %
09.08.2022 20:13 20,1 C 17,8 C 69 % 1023,7 hPa 0,0 l/m 4,8 km/h (1 Bft) O-SO 112 0,000 mm 14,2 C 20,1 C 4,8 km/h (1 Bft) 86,96 %
09.08.2022 20:12 20,1 C 18,3 C 68 % 1023,8 hPa 0,0 l/m 4,8 km/h (1 Bft) SO 135 0,000 mm 14,0 C 20,1 C 4,8 km/h (1 Bft) 95,65 %
09.08.2022 20:11 20,3 C 18,3 C 67 % 1023,7 hPa 0,0 l/m 3,2 km/h (1 Bft) SO 135 0,000 mm 14,0 C 20,3 C 4,8 km/h (1 Bft) 95,65 %
09.08.2022 20:10 20,4 C 18,3 C 67 % 1023,8 hPa 0,0 l/m 3,2 km/h (1 Bft) S-SO 157 0,000 mm 14,1 C 20,4 C 3,2 km/h (1 Bft) 95,65 %
09.08.2022 20:09 20,5 C 18,3 C 65 % 1023,7 hPa 0,0 l/m 1,6 km/h (1 Bft) S-SO 157 0,000 mm 13,7 C 20,5 C 3,2 km/h (1 Bft) 95,65 %
09.08.2022 20:08 20,4 C 18,3 C 64 % 1023,8 hPa 0,0 l/m 3,2 km/h (1 Bft) O-SO 112 0,000 mm 13,4 C 20,4 C 4,8 km/h (1 Bft) 95,65 %
09.08.2022 20:07 20,3 C 18,3 C 62 % 1023,6 hPa 0,0 l/m 1,6 km/h (1 Bft) O 90 0,000 mm 12,8 C 20,3 C 3,2 km/h (1 Bft) 95,65 %
09.08.2022 20:06 20,2 C 18,3 C 66 % 1023,7 hPa 0,0 l/m 4,8 km/h (1 Bft) SO 135 0,000 mm 13,6 C 20,2 C 6,4 km/h (2 Bft) 91,30 %
09.08.2022 20:05 20,2 C 18,3 C 67 % 1023,6 hPa 0,0 l/m 1,6 km/h (1 Bft) S-SO 157 0,000 mm 13,9 C 20,2 C 4,8 km/h (1 Bft) 100,00 %
09.08.2022 20:04 20,2 C 18,3 C 69 % 1023,7 hPa 0,0 l/m 1,6 km/h (1 Bft) S-SO 157 0,000 mm 14,3 C 20,2 C 3,2 km/h (1 Bft) 86,96 %
09.08.2022 20:03 20,4 C 18,3 C 68 % 1023,6 hPa 0,0 l/m 1,6 km/h (1 Bft) S 180 0,000 mm 14,3 C 20,4 C 3,2 km/h (1 Bft) 95,65 %
09.08.2022 20:02 20,5 C 18,3 C 68 % 1023,6 hPa 0,0 l/m 1,6 km/h (1 Bft) S-SO 157 0,000 mm 14,4 C 20,5 C 1,6 km/h (1 Bft) 95,65 %
09.08.2022 20:01 20,6 C 18,9 C 67 % 1023,6 hPa 0,0 l/m 1,6 km/h (1 Bft) S 180 0,000 mm 14,3 C 20,6 C 3,2 km/h (1 Bft) 91,30 %
09.08.2022 20:00 20,5 C 18,9 C 63 % 1023,6 hPa 0,0 l/m 1,6 km/h (1 Bft) S 180 0,000 mm 13,2 C 20,5 C 3,2 km/h (1 Bft) 91,30 %
09.08.2022 19:59 20,6 C 18,9 C 66 % 1023,6 hPa 0,0 l/m 1,6 km/h (1 Bft) SO 135 0,000 mm 14,0 C 20,6 C 3,2 km/h (1 Bft) 100,00 %
09.08.2022 19:58 20,6 C 18,9 C 65 % 1023,6 hPa 0,0 l/m 1,6 km/h (1 Bft) SO 135 0,000 mm 13,8 C 20,6 C 1,6 km/h (1 Bft) 78,26 %
09.08.2022 19:57 20,6 C 18,9 C 65 % 1023,5 hPa 0,0 l/m 1,6 km/h (1 Bft) SO 135 0,000 mm 13,8 C 20,6 C 3,2 km/h (1 Bft) 95,65 %
09.08.2022 19:56 20,6 C 18,9 C 67 % 1023,6 hPa 0,0 l/m 1,6 km/h (1 Bft) S 180 0,000 mm 14,3 C 20,6 C 3,2 km/h (1 Bft) 95,65 %
09.08.2022 19:55 20,6 C 18,9 C 66 % 1023,6 hPa 0,0 l/m 1,6 km/h (1 Bft) S 180 0,000 mm 14,0 C 20,6 C 3,2 km/h (1 Bft) 95,65 %
09.08.2022 19:54 20,6 C 18,9 C 66 % 1023,5 hPa 0,0 l/m 1,6 km/h (1 Bft) S 180 0,000 mm 14,0 C 20,6 C 3,2 km/h (1 Bft) 91,30 %
09.08.2022 19:53 20,8 C 19,4 C 69 % 1023,5 hPa 0,0 l/m 3,2 km/h (1 Bft) S 180 0,000 mm 14,9 C 20,8 C 3,2 km/h (1 Bft) 95,65 %
09.08.2022 19:52 21,0 C 19,4 C 68 % 1023,6 hPa 0,0 l/m 3,2 km/h (1 Bft) S-SO 157 0,000 mm 14,9 C 21,0 C 3,2 km/h (1 Bft) 95,65 %
09.08.2022 19:51 21,2 C 19,4 C 67 % 1023,5 hPa 0,0 l/m 3,2 km/h (1 Bft) S-SO 157 0,000 mm 14,8 C 21,2 C 6,4 km/h (2 Bft) 91,30 %
09.08.2022 19:50 21,3 C 19,4 C 66 % 1023,5 hPa 0,0 l/m 1,6 km/h (1 Bft) SO 135 0,000 mm 14,7 C 21,3 C 3,2 km/h (1 Bft) 100,00 %
09.08.2022 19:49 21,6 C 19,4 C 65 % 1023,5 hPa 0,0 l/m 1,6 km/h (1 Bft) SO 135 0,000 mm 14,7 C 21,6 C 3,2 km/h (1 Bft) 86,96 %
09.08.2022 19:48 21,7 C 20,0 C 61 % 1023,6 hPa 0,0 l/m 0,0 km/h (0 Bft) O-NO 67 0,000 mm 13,8 C 21,7 C 1,6 km/h (1 Bft) 91,30 %
09.08.2022 19:47 22,1 C 20,0 C 64 % 1023,6 hPa 0,0 l/m 1,6 km/h (1 Bft) N 360 0,000 mm 15,0 C 22,1 C 3,2 km/h (1 Bft) 95,65 %
09.08.2022 19:46 22,3 C 20,0 C 62 % 1023,5 hPa 0,0 l/m 1,6 km/h (1 Bft) N-NW 337 0,000 mm 14,7 C 22,3 C 3,2 km/h (1 Bft) 91,30 %
09.08.2022 19:45 22,5 C 20,6 C 60 % 1023,5 hPa 0,0 l/m 0,0 km/h (0 Bft) N-NW 337 0,000 mm 14,3 C 22,5 C 1,6 km/h (1 Bft) 91,30 %
09.08.2022 19:44 22,6 C 20,6 C 57 % 1023,5 hPa 0,0 l/m 1,6 km/h (1 Bft) N-NW 337 0,000 mm 13,6 C 22,6 C 1,6 km/h (1 Bft) 100,00 %
09.08.2022 19:43 22,8 C 20,6 C 57 % 1023,5 hPa 0,0 l/m 0,0 km/h (0 Bft) N-NW 337 0,000 mm 13,8 C 22,8 C 3,2 km/h (1 Bft) 91,30 %
09.08.2022 19:42 23,0 C 21,1 C 58 % 1023,5 hPa 0,0 l/m 0,0 km/h (0 Bft) N-NW 337 0,000 mm 14,3 C 23,0 C 1,6 km/h (1 Bft) 91,30 %
09.08.2022 19:41 23,2 C 21,1 C 58 % 1023,4 hPa 0,0 l/m 3,2 km/h (1 Bft) N 360 0,000 mm 14,5 C 23,2 C 4,8 km/h (1 Bft) 95,65 %
09.08.2022 19:40 23,5 C 21,1 C 54 % 1023,5 hPa 0,0 l/m 1,6 km/h (1 Bft) N 360 0,000 mm 13,6 C 23,5 C 3,2 km/h (1 Bft) 91,30 %
09.08.2022 19:39 23,8 C 21,7 C 55 % 1023,4 hPa 0,0 l/m 0,0 km/h (0 Bft) N-NW 337 0,000 mm 14,2 C 23,8 C 1,6 km/h (1 Bft) 95,65 %
09.08.2022 19:38 23,8 C 21,7 C 47 % 1023,4 hPa 0,0 l/m 1,6 km/h (1 Bft) N-NW 337 0,000 mm 11,8 C 23,8 C 1,6 km/h (1 Bft) 95,65 %
09.08.2022 19:37 23,8 C 21,7 C 47 % 1023,4 hPa 0,0 l/m 3,2 km/h (1 Bft) N-NW 337 0,000 mm 11,8 C 23,8 C 4,8 km/h (1 Bft) 95,65 %
09.08.2022 19:36 23,9 C 21,7 C 47 % 1023,3 hPa 0,0 l/m 4,8 km/h (1 Bft) N 360 0,000 mm 11,9 C 23,9 C 4,8 km/h (1 Bft) 91,30 %
09.08.2022 19:35 23,9 C 21,7 C 47 % 1023,3 hPa 0,0 l/m 3,2 km/h (1 Bft) N-NW 337 0,000 mm 11,9 C 23,9 C 6,4 km/h (2 Bft) 95,65 %
09.08.2022 19:34 23,9 C 21,7 C 47 % 1023,3 hPa 0,0 l/m 4,8 km/h (1 Bft) N 360 0,000 mm 11,9 C 23,9 C 8,0 km/h (2 Bft) 91,30 %
09.08.2022 19:33 23,9 C 21,7 C 47 % 1023,3 hPa 0,0 l/m 4,8 km/h (1 Bft) N 360 0,000 mm 11,9 C 23,9 C 6,4 km/h (2 Bft) 91,30 %
09.08.2022 19:32 23,9 C 21,7 C 46 % 1023,2 hPa 0,0 l/m 4,8 km/h (1 Bft) N-NW 337 0,000 mm 11,6 C 23,9 C 6,4 km/h (2 Bft) 95,65 %
09.08.2022 19:31 24,0 C 21,7 C 46 % 1023,2 hPa 0,0 l/m 4,8 km/h (1 Bft) N 360 0,000 mm 11,7 C 24,0 C 6,4 km/h (2 Bft) 95,65 %
09.08.2022 19:30 24,1 C 21,7 C 46 % 1023,2 hPa 0,0 l/m 4,8 km/h (1 Bft) N 360 0,000 mm 11,7 C 24,1 C 8,0 km/h (2 Bft) 91,30 %
09.08.2022 19:29 24,1 C 22,2 C 46 % 1023,3 hPa 0,0 l/m 4,8 km/h (1 Bft) N 360 0,000 mm 11,7 C 24,1 C 8,0 km/h (2 Bft) 95,65 %
09.08.2022 19:28 24,2 C 22,2 C 47 % 1023,1 hPa 0,0 l/m 3,2 km/h (1 Bft) N 360 0,000 mm 12,2 C 24,2 C 6,4 km/h (2 Bft) 95,65 %
09.08.2022 19:27 24,2 C 22,2 C 48 % 1023,2 hPa 0,0 l/m 3,2 km/h (1 Bft) N-NO 22 0,000 mm 12,5 C 24,2 C 4,8 km/h (1 Bft) 95,65 %
09.08.2022 19:26 24,3 C 22,2 C 46 % 1023,2 hPa 0,0 l/m 3,2 km/h (1 Bft) N 360 0,000 mm 11,9 C 24,3 C 3,2 km/h (1 Bft) 95,65 %
09.08.2022 19:25 24,3 C 22,2 C 45 % 1023,1 hPa 0,0 l/m 3,2 km/h (1 Bft) N-NO 22 0,000 mm 11,6 C 24,3 C 3,2 km/h (1 Bft) 95,65 %
09.08.2022 19:24 24,3 C 22,2 C 45 % 1023,2 hPa 0,0 l/m 3,2 km/h (1 Bft) N-NO 22 0,000 mm 11,6 C 24,3 C 4,8 km/h (1 Bft) 95,65 %
09.08.2022 19:23 24,3 C 22,2 C 44 % 1023,2 hPa 0,0 l/m 4,8 km/h (1 Bft) N-NO 22 0,000 mm 11,3 C 24,3 C 6,4 km/h (2 Bft) 78,26 %
09.08.2022 19:22 24,3 C 22,2 C 45 % 1023,2 hPa 0,0 l/m 4,8 km/h (1 Bft) N-NO 22 0,000 mm 11,6 C 24,3 C 8,0 km/h (2 Bft) 100,00 %
09.08.2022 19:21 24,3 C 22,8 C 45 % 1023,1 hPa 0,0 l/m 4,8 km/h (1 Bft) N-NO 22 0,000 mm 11,6 C 24,3 C 6,4 km/h (2 Bft) 91,30 %
09.08.2022 19:20 24,3 C 22,8 C 47 % 1023,2 hPa 0,0 l/m 4,8 km/h (1 Bft) N-NO 22 0,000 mm 12,3 C 24,3 C 4,8 km/h (1 Bft) 95,65 %
09.08.2022 19:19 24,3 C 22,8 C 46 % 1023,2 hPa 0,0 l/m 4,8 km/h (1 Bft) N-NO 22 0,000 mm 11,9 C 24,3 C 8,0 km/h (2 Bft) 95,65 %
09.08.2022 19:18 24,4 C 22,8 C 46 % 1023,2 hPa 0,0 l/m 4,8 km/h (1 Bft) N 360 0,000 mm 12,0 C 24,4 C 6,4 km/h (2 Bft) 91,30 %
09.08.2022 19:17 24,5 C 22,8 C 46 % 1023,2 hPa 0,0 l/m 4,8 km/h (1 Bft) N 360 0,000 mm 12,1 C 24,5 C 6,4 km/h (2 Bft) 91,30 %
09.08.2022 19:16 24,5 C 22,8 C 44 % 1023,2 hPa 0,0 l/m 6,4 km/h (2 Bft) N 360 0,000 mm 11,4 C 24,5 C 9,7 km/h (2 Bft) 100,00 %
09.08.2022 19:15 24,6 C 22,8 C 46 % 1023,1 hPa 0,0 l/m 4,8 km/h (1 Bft) N 360 0,000 mm 12,2 C 24,6 C 6,4 km/h (2 Bft) 91,30 %
09.08.2022 19:14 24,6 C 22,8 C 46 % 1023,1 hPa 0,0 l/m 4,8 km/h (1 Bft) N-NW 337 0,000 mm 12,2 C 24,6 C 4,8 km/h (1 Bft) 91,30 %
09.08.2022 19:13 24,7 C 22,8 C 44 % 1023,2 hPa 0,0 l/m 3,2 km/h (1 Bft) N 360 0,000 mm 11,6 C 24,7 C 4,8 km/h (1 Bft) 95,65 %
09.08.2022 19:12 24,7 C 22,8 C 43 % 1023,1 hPa 0,0 l/m 3,2 km/h (1 Bft) NW 315 0,000 mm 11,3 C 24,7 C 6,4 km/h (2 Bft) 95,65 %
09.08.2022 19:11 24,7 C 22,8 C 44 % 1023,1 hPa 0,0 l/m 3,2 km/h (1 Bft) N 360 0,000 mm 11,6 C 24,7 C 6,4 km/h (2 Bft) 95,65 %
09.08.2022 19:10 24,7 C 23,3 C 44 % 1023,1 hPa 0,0 l/m 4,8 km/h (1 Bft) N-NO 22 0,000 mm 11,6 C 24,7 C 6,4 km/h (2 Bft) 95,65 %
09.08.2022 19:09 24,8 C 23,3 C 43 % 1023,0 hPa 0,0 l/m 4,8 km/h (1 Bft) N 360 0,000 mm 11,4 C 24,8 C 6,4 km/h (2 Bft) 95,65 %
09.08.2022 19:08 24,8 C 23,3 C 43 % 1023,1 hPa 0,0 l/m 6,4 km/h (2 Bft) N 360 0,000 mm 11,4 C 24,8 C 12,9 km/h (3 Bft) 91,30 %
09.08.2022 19:07 24,8 C 23,3 C 42 % 1023,1 hPa 0,0 l/m 3,2 km/h (1 Bft) N-NW 337 0,000 mm 11,0 C 24,8 C 4,8 km/h (1 Bft) 100,00 %
09.08.2022 19:06 24,9 C 23,3 C 43 % 1023,2 hPa 0,0 l/m 4,8 km/h (1 Bft) N-NW 337 0,000 mm 11,4 C 24,9 C 6,4 km/h (2 Bft) 91,30 %
09.08.2022 19:05 24,9 C 23,3 C 43 % 1023,1 hPa 0,0 l/m 4,8 km/h (1 Bft) N-NW 337 0,000 mm 11,4 C 24,9 C 8,0 km/h (2 Bft) 91,30 %
09.08.2022 19:04 25,1 C 23,3 C 44 % 1023,1 hPa 0,0 l/m 4,8 km/h (1 Bft) N-NW 337 0,000 mm 12,0 C 25,1 C 6,4 km/h (2 Bft) 91,30 %
09.08.2022 19:03 25,1 C 23,3 C 43 % 1023,1 hPa 0,0 l/m 3,2 km/h (1 Bft) N 360 0,000 mm 11,6 C 25,1 C 4,8 km/h (1 Bft) 95,65 %
09.08.2022 19:02 25,2 C 23,3 C 43 % 1023,2 hPa 0,0 l/m 3,2 km/h (1 Bft) N-NW 337 0,000 mm 11,7 C 25,2 C 4,8 km/h (1 Bft) 91,30 %
09.08.2022 19:01 25,2 C 23,3 C 43 % 1023,1 hPa 0,0 l/m 4,8 km/h (1 Bft) N-NW 337 0,000 mm 11,7 C 25,2 C 8,0 km/h (2 Bft) 100,00 %
09.08.2022 19:00 25,2 C 23,9 C 44 % 1023,2 hPa 0,0 l/m 3,2 km/h (1 Bft) N 360 0,000 mm 12,1 C 25,2 C 4,8 km/h (1 Bft) 91,30 %
09.08.2022 18:59 25,3 C 23,9 C 44 % 1023,2 hPa 0,0 l/m 3,2 km/h (1 Bft) N-NW 337 0,000 mm 12,2 C 25,3 C 4,8 km/h (1 Bft) 91,30 %
09.08.2022 18:58 25,3 C 23,9 C 44 % 1023,2 hPa 0,0 l/m 4,8 km/h (1 Bft) N 360 0,000 mm 12,2 C 25,3 C 9,7 km/h (2 Bft) 91,30 %
09.08.2022 18:57 25,3 C 23,9 C 44 % 1023,1 hPa 0,0 l/m 4,8 km/h (1 Bft) N 360 0,000 mm 12,2 C 25,3 C 6,4 km/h (2 Bft) 95,65 %
09.08.2022 18:56 25,3 C 23,9 C 44 % 1023,1 hPa 0,0 l/m 6,4 km/h (2 Bft) N 360 0,000 mm 12,2 C 25,3 C 11,3 km/h (2 Bft) 95,65 %
09.08.2022 18:55 25,4 C 23,9 C 43 % 1023,2 hPa 0,0 l/m 4,8 km/h (1 Bft) N 360 0,000 mm 11,9 C 25,4 C 6,4 km/h (2 Bft) 95,65 %
09.08.2022 18:54 25,4 C 23,9 C 42 % 1023,1 hPa 0,0 l/m 4,8 km/h (1 Bft) N-NO 22 0,000 mm 11,5 C 25,4 C 6,4 km/h (2 Bft) 95,65 %
09.08.2022 18:53 25,4 C 23,9 C 43 % 1023,2 hPa 0,0 l/m 4,8 km/h (1 Bft) N-NO 22 0,000 mm 11,9 C 25,4 C 8,0 km/h (2 Bft) 86,96 %
09.08.2022 18:52 25,4 C 23,9 C 42 % 1023,1 hPa 0,0 l/m 9,7 km/h (2 Bft) N 360 0,000 mm 11,5 C 24,7 C 12,9 km/h (3 Bft) 100,00 %
09.08.2022 18:51 25,4 C 23,9 C 42 % 1023,1 hPa 0,0 l/m 6,4 km/h (2 Bft) N 360 0,000 mm 11,5 C 25,4 C 11,3 km/h (2 Bft) 91,30 %
09.08.2022 18:50 25,4 C 23,9 C 44 % 1023,0 hPa 0,0 l/m 4,8 km/h (1 Bft) N 360 0,000 mm 12,2 C 25,4 C 8,0 km/h (2 Bft) 91,30 %
09.08.2022 18:49 25,4 C 23,9 C 42 % 1023,0 hPa 0,0 l/m 4,8 km/h (1 Bft) N-NW 337 0,000 mm 11,5 C 25,4 C 6,4 km/h (2 Bft) 95,65 %
09.08.2022 18:48 25,4 C 23,9 C 43 % 1023,0 hPa 0,0 l/m 8,0 km/h (2 Bft) N 360 0,000 mm 11,9 C 25,0 C 12,9 km/h (3 Bft) 95,65 %
09.08.2022 18:47 25,4 C 23,9 C 44 % 1023,1 hPa 0,0 l/m 4,8 km/h (1 Bft) N-NO 22 0,000 mm 12,2 C 25,4 C 8,0 km/h (2 Bft) 91,30 %
09.08.2022 18:46 25,4 C 23,9 C 42 % 1023,1 hPa 0,0 l/m 8,0 km/h (2 Bft) N 360 0,000 mm 11,5 C 25,0 C 11,3 km/h (2 Bft) 100,00 %
09.08.2022 18:45 25,4 C 23,9 C 42 % 1023,0 hPa 0,0 l/m 6,4 km/h (2 Bft) NW 315 0,000 mm 11,5 C 25,4 C 9,7 km/h (2 Bft) 86,96 %
09.08.2022 18:44 25,4 C 23,9 C 42 % 1023,0 hPa 0,0 l/m 6,4 km/h (2 Bft) NW 315 0,000 mm 11,5 C 25,4 C 12,9 km/h (3 Bft) 95,65 %
09.08.2022 18:43 25,3 C 23,9 C 44 % 1023,0 hPa 0,0 l/m 6,4 km/h (2 Bft) W-NW 292 0,000 mm 12,2 C 25,3 C 11,3 km/h (2 Bft) 95,65 %
09.08.2022 18:42 25,3 C 23,9 C 47 % 1023,1 hPa 0,0 l/m 3,2 km/h (1 Bft) NW 315 0,000 mm 13,2 C 25,3 C 6,4 km/h (2 Bft) 95,65 %
09.08.2022 18:41 25,2 C 23,9 C 42 % 1023,1 hPa 0,0 l/m 4,8 km/h (1 Bft) N 360 0,000 mm 11,4 C 25,2 C 8,0 km/h (2 Bft) 91,30 %
09.08.2022 18:40 25,1 C 23,9 C 44 % 1023,0 hPa 0,0 l/m 3,2 km/h (1 Bft) N-NO 22 0,000 mm 12,0 C 25,1 C 6,4 km/h (2 Bft) 91,30 %
09.08.2022 18:39 25,0 C 23,9 C 47 % 1023,0 hPa 0,0 l/m 4,8 km/h (1 Bft) N-NW 337 0,000 mm 12,9 C 25,0 C 9,7 km/h (2 Bft) 100,00 %
09.08.2022 18:38 24,8 C 23,9 C 47 % 1023,0 hPa 0,0 l/m 4,8 km/h (1 Bft) N-NO 22 0,000 mm 12,7 C 24,8 C 8,0 km/h (2 Bft) 91,30 %
09.08.2022 18:37 24,7 C 23,9 C 46 % 1023,0 hPa 0,0 l/m 3,2 km/h (1 Bft) N-NW 337 0,000 mm 12,3 C 24,7 C 3,2 km/h (1 Bft) 95,65 %
09.08.2022 18:36 24,6 C 23,9 C 52 % 1023,1 hPa 0,0 l/m 3,2 km/h (1 Bft) N-NO 22 0,000 mm 14,1 C 24,6 C 4,8 km/h (1 Bft) 95,65 %
09.08.2022 18:35 24,5 C 23,9 C 54 % 1023,1 hPa 0,0 l/m 1,6 km/h (1 Bft) N 360 0,000 mm 14,6 C 24,5 C 4,8 km/h (1 Bft) 95,65 %
09.08.2022 18:34 24,4 C 23,9 C 57 % 1023,1 hPa 0,0 l/m 1,6 km/h (1 Bft) N 360 0,000 mm 15,3 C 24,4 C 3,2 km/h (1 Bft) 91,30 %
09.08.2022 18:33 24,4 C 23,9 C 56 % 1023,0 hPa 0,0 l/m 1,6 km/h (1 Bft) W-SW 247 0,000 mm 15,0 C 24,4 C 4,8 km/h (1 Bft) 100,00 %
09.08.2022 18:32 24,4 C 23,9 C 56 % 1023,1 hPa 0,0 l/m 3,2 km/h (1 Bft) W-SW 247 0,000 mm 15,0 C 24,4 C 4,8 km/h (1 Bft) 86,96 %
09.08.2022 18:31 24,4 C 23,9 C 58 % 1023,1 hPa 0,0 l/m 3,2 km/h (1 Bft) W 270 0,000 mm 15,6 C 24,4 C 4,8 km/h (1 Bft) 91,30 %
09.08.2022 18:30 24,6 C 23,9 C 60 % 1023,0 hPa 0,0 l/m 3,2 km/h (1 Bft) W-NW 292 0,000 mm 16,3 C 24,6 C 4,8 km/h (1 Bft) 95,65 %
09.08.2022 18:29 24,6 C 23,9 C 56 % 1023,0 hPa 0,0 l/m 4,8 km/h (1 Bft) NW 315 0,000 mm 15,2 C 24,6 C 6,4 km/h (2 Bft) 95,65 %
09.08.2022 18:28 24,7 C 23,9 C 54 % 1023,0 hPa 0,0 l/m 1,6 km/h (1 Bft) W 270 0,000 mm 14,8 C 24,7 C 4,8 km/h (1 Bft) 95,65 %
09.08.2022 18:27 24,6 C 23,9 C 54 % 1023,0 hPa 0,0 l/m 0,0 km/h (0 Bft) W 270 0,000 mm 14,7 C 24,6 C 1,6 km/h (1 Bft) 95,65 %
09.08.2022 18:26 24,6 C 23,9 C 54 % 1023,1 hPa 0,0 l/m 0,0 km/h (0 Bft) W 270 0,000 mm 14,7 C 24,6 C 1,6 km/h (1 Bft) 86,96 %
09.08.2022 18:25 24,5 C 23,3 C 55 % 1023,1 hPa 0,0 l/m 1,6 km/h (1 Bft) W 270 0,000 mm 14,9 C 24,5 C 3,2 km/h (1 Bft) 91,30 %
09.08.2022 18:24 24,4 C 23,3 C 55 % 1023,0 hPa 0,0 l/m 1,6 km/h (1 Bft) W 270 0,000 mm 14,8 C 24,4 C 3,2 km/h (1 Bft) 95,65 %
09.08.2022 18:23 24,3 C 23,3 C 59 % 1023,0 hPa 0,0 l/m 1,6 km/h (1 Bft) W 270 0,000 mm 15,8 C 24,3 C 3,2 km/h (1 Bft) 91,30 %
09.08.2022 18:22 24,4 C 23,3 C 58 % 1023,0 hPa 0,0 l/m 1,6 km/h (1 Bft) W 270 0,000 mm 15,6 C 24,4 C 3,2 km/h (1 Bft) 95,65 %
09.08.2022 18:21 24,4 C 23,3 C 57 % 1023,0 hPa 0,0 l/m 1,6 km/h (1 Bft) W 270 0,000 mm 15,3 C 24,4 C 3,2 km/h (1 Bft) 95,65 %
09.08.2022 18:20 24,4 C 23,3 C 56 % 1023,0 hPa 0,0 l/m 1,6 km/h (1 Bft) W 270 0,000 mm 15,0 C 24,4 C 4,8 km/h (1 Bft) 86,96 %
09.08.2022 18:19 24,4 C 23,3 C 56 % 1023,0 hPa 0,0 l/m 3,2 km/h (1 Bft) W 270 0,000 mm 15,0 C 24,4 C 4,8 km/h (1 Bft) 86,96 %
09.08.2022 18:18 24,4 C 23,3 C 56 % 1023,0 hPa 0,0 l/m 3,2 km/h (1 Bft) W 270 0,000 mm 15,0 C 24,4 C 4,8 km/h (1 Bft) 100,00 %
09.08.2022 18:17 24,4 C 23,3 C 56 % 1023,0 hPa 0,0 l/m 4,8 km/h (1 Bft) W 270 0,000 mm 15,0 C 24,4 C 4,8 km/h (1 Bft) 86,96 %
09.08.2022 18:16 24,4 C 23,3 C 57 % 1023,1 hPa 0,0 l/m 3,2 km/h (1 Bft) W 270 0,000 mm 15,3 C 24,4 C 4,8 km/h (1 Bft) 91,30 %
09.08.2022 18:15 24,4 C 23,3 C 57 % 1023,1 hPa 0,0 l/m 3,2 km/h (1 Bft) W-SW 247 0,000 mm 15,3 C 24,4 C 6,4 km/h (2 Bft) 95,65 %
09.08.2022 18:14 24,4 C 23,3 C 57 % 1023,1 hPa 0,0 l/m 1,6 km/h (1 Bft) NW 315 0,000 mm 15,3 C 24,4 C 3,2 km/h (1 Bft) 95,65 %
09.08.2022 18:13 24,4 C 23,3 C 56 % 1023,1 hPa 0,0 l/m 0,0 km/h (0 Bft) NW 315 0,000 mm 15,0 C 24,4 C 1,6 km/h (1 Bft) 95,65 %
09.08.2022 18:12 24,5 C 23,9 C 55 % 1023,1 hPa 0,0 l/m 1,6 km/h (1 Bft) NW 315 0,000 mm 14,9 C 24,5 C 4,8 km/h (1 Bft) 91,30 %
09.08.2022 18:11 24,4 C 23,9 C 52 % 1023,1 hPa 0,0 l/m 3,2 km/h (1 Bft) N-NW 337 0,000 mm 13,9 C 24,4 C 6,4 km/h (2 Bft) 95,65 %
09.08.2022 18:10 24,6 C 23,9 C 55 % 1023,1 hPa 0,0 l/m 4,8 km/h (1 Bft) W-SW 247 0,000 mm 14,9 C 24,6 C 6,4 km/h (2 Bft) 86,96 %
09.08.2022 18:09 24,6 C 23,9 C 52 % 1023,0 hPa 0,0 l/m 9,7 km/h (2 Bft) S-SO 157 0,000 mm 14,1 C 23,8 C 12,9 km/h (3 Bft) 95,65 %
09.08.2022 18:08 24,6 C 23,9 C 52 % 1023,1 hPa 0,0 l/m 12,9 km/h (3 Bft) S 180 0,000 mm 14,1 C 23,2 C 16,1 km/h (3 Bft) 91,30 %
09.08.2022 18:07 24,6 C 23,9 C 52 % 1023,1 hPa 0,0 l/m 12,9 km/h (3 Bft) S 180 0,000 mm 14,1 C 23,2 C 16,1 km/h (3 Bft) 91,30 %
09.08.2022 18:06 24,7 C 23,9 C 56 % 1023,2 hPa 0,0 l/m 9,7 km/h (2 Bft) SW 225 0,000 mm 15,3 C 23,9 C 12,9 km/h (3 Bft) 95,65 %
09.08.2022 18:05 24,8 C 23,9 C 55 % 1023,2 hPa 0,0 l/m 9,7 km/h (2 Bft) W 270 0,000 mm 15,1 C 24,0 C 14,5 km/h (3 Bft) 91,30 %
09.08.2022 18:04 24,9 C 23,9 C 54 % 1023,2 hPa 0,0 l/m 9,7 km/h (2 Bft) W 270 0,000 mm 14,9 C 24,1 C 12,9 km/h (3 Bft) 91,30 %
09.08.2022 18:03 25,1 C 24,4 C 56 % 1023,2 hPa 0,0 l/m 9,7 km/h (2 Bft) W 270 0,000 mm 15,7 C 24,3 C 12,9 km/h (3 Bft) 91,30 %
09.08.2022 18:02 25,2 C 24,4 C 54 % 1023,2 hPa 0,0 l/m 8,0 km/h (2 Bft) W 270 0,000 mm 15,2 C 24,8 C 11,3 km/h (2 Bft) 91,30 %
09.08.2022 18:01 25,3 C 24,4 C 54 % 1023,2 hPa 0,0 l/m 6,4 km/h (2 Bft) W-SW 247 0,000 mm 15,3 C 25,3 C 8,0 km/h (2 Bft) 86,96 %
09.08.2022 18:00 25,4 C 25,0 C 53 % 1023,2 hPa 0,0 l/m 4,8 km/h (1 Bft) W-SW 247 0,000 mm 15,1 C 25,4 C 8,0 km/h (2 Bft) 95,65 %
09.08.2022 17:59 25,5 C 25,0 C 55 % 1023,2 hPa 0,0 l/m 8,0 km/h (2 Bft) W 270 0,000 mm 15,8 C 25,1 C 9,7 km/h (2 Bft) 95,65 %
09.08.2022 17:58 25,6 C 25,0 C 52 % 1023,3 hPa 0,0 l/m 8,0 km/h (2 Bft) W 270 0,000 mm 15,0 C 25,2 C 9,7 km/h (2 Bft) 91,30 %
09.08.2022 17:57 25,6 C 25,0 C 52 % 1023,3 hPa 0,0 l/m 6,4 km/h (2 Bft) W 270 0,000 mm 15,0 C 25,6 C 9,7 km/h (2 Bft) 91,30 %
09.08.2022 17:56 25,5 C 25,0 C 51 % 1023,2 hPa 0,0 l/m 6,4 km/h (2 Bft) W-SW 247 0,000 mm 14,6 C 25,5 C 9,7 km/h (2 Bft) 86,96 %
09.08.2022 17:55 25,4 C 25,0 C 51 % 1023,3 hPa 0,0 l/m 6,4 km/h (2 Bft) W 270 0,000 mm 14,5 C 25,4 C 9,7 km/h (2 Bft) 91,30 %
09.08.2022 17:54 25,3 C 24,4 C 51 % 1023,3 hPa 0,0 l/m 6,4 km/h (2 Bft) W-SW 247 0,000 mm 14,4 C 25,3 C 6,4 km/h (2 Bft) 91,30 %
09.08.2022 17:53 25,2 C 24,4 C 51 % 1023,2 hPa 0,0 l/m 6,4 km/h (2 Bft) W-SW 247 0,000 mm 14,3 C 25,2 C 8,0 km/h (2 Bft) 95,65 %
09.08.2022 17:52 25,1 C 24,4 C 50 % 1023,3 hPa 0,0 l/m 4,8 km/h (1 Bft) W-SW 247 0,000 mm 13,9 C 25,1 C 8,0 km/h (2 Bft) 91,30 %
09.08.2022 17:51 25,1 C 24,4 C 50 % 1023,3 hPa 0,0 l/m 3,2 km/h (1 Bft) SW 225 0,000 mm 13,9 C 25,1 C 4,8 km/h (1 Bft) 86,96 %
09.08.2022 17:50 24,9 C 24,4 C 50 % 1023,2 hPa 0,0 l/m 3,2 km/h (1 Bft) S-SW 202 0,000 mm 13,7 C 24,9 C 6,4 km/h (2 Bft) 95,65 %
09.08.2022 17:49 24,9 C 24,4 C 50 % 1023,2 hPa 0,0 l/m 3,2 km/h (1 Bft) S-SW 202 0,000 mm 13,7 C 24,9 C 8,0 km/h (2 Bft) 91,30 %
09.08.2022 17:48 24,8 C 24,4 C 51 % 1023,3 hPa 0,0 l/m 4,8 km/h (1 Bft) S 180 0,000 mm 14,0 C 24,8 C 8,0 km/h (2 Bft) 91,30 %
09.08.2022 17:47 24,8 C 24,4 C 51 % 1023,4 hPa 0,0 l/m 3,2 km/h (1 Bft) S-SW 202 0,000 mm 14,0 C 24,8 C 4,8 km/h (1 Bft) 95,65 %
09.08.2022 17:46 24,7 C 24,4 C 52 % 1023,3 hPa 0,0 l/m 3,2 km/h (1 Bft) W-SW 247 0,000 mm 14,2 C 24,7 C 6,4 km/h (2 Bft) 86,96 %
09.08.2022 17:45 24,7 C 24,4 C 55 % 1023,2 hPa 0,0 l/m 4,8 km/h (1 Bft) SW 225 0,000 mm 15,0 C 24,7 C 6,4 km/h (2 Bft) 91,30 %
09.08.2022 17:44 24,7 C 24,4 C 58 % 1023,3 hPa 0,0 l/m 4,8 km/h (1 Bft) S 180 0,000 mm 15,9 C 24,7 C 8,0 km/h (2 Bft) 91,30 %
09.08.2022 17:43 24,6 C 24,4 C 54 % 1023,3 hPa 0,0 l/m 1,6 km/h (1 Bft) S-SW 202 0,000 mm 14,7 C 24,6 C 3,2 km/h (1 Bft) 91,30 %
09.08.2022 17:42 24,5 C 24,4 C 55 % 1023,3 hPa 0,0 l/m 4,8 km/h (1 Bft) S-SO 157 0,000 mm 14,9 C 24,5 C 6,4 km/h (2 Bft) 91,30 %
09.08.2022 17:41 24,3 C 24,4 C 58 % 1023,4 hPa 0,0 l/m 3,2 km/h (1 Bft) S-SO 157 0,000 mm 15,5 C 24,3 C 6,4 km/h (2 Bft) 95,65 %
09.08.2022 17:40 24,3 C 24,4 C 58 % 1023,4 hPa 0,0 l/m 3,2 km/h (1 Bft) SW 225 0,000 mm 15,5 C 24,3 C 4,8 km/h (1 Bft) 91,30 %
09.08.2022 17:39 24,1 C 23,9 C 57 % 1023,3 hPa 0,0 l/m 3,2 km/h (1 Bft) S 180 0,000 mm 15,0 C 24,1 C 4,8 km/h (1 Bft) 78,26 %
09.08.2022 17:38 23,9 C 23,9 C 65 % 1023,3 hPa 0,0 l/m 3,2 km/h (1 Bft) SW 225 0,000 mm 16,9 C 23,9 C 3,2 km/h (1 Bft) 95,65 %
09.08.2022 17:37 23,8 C 23,9 C 65 % 1023,4 hPa 0,0 l/m 3,2 km/h (1 Bft) S 180 0,000 mm 16,8 C 23,8 C 4,8 km/h (1 Bft) 91,30 %
09.08.2022 17:36 23,7 C 23,9 C 63 % 1023,4 hPa 0,0 l/m 1,6 km/h (1 Bft) S 180 0,000 mm 16,2 C 23,7 C 1,6 km/h (1 Bft) 73,91 %
09.08.2022 17:35 23,5 C 23,9 C 61 % 1023,4 hPa 0,0 l/m 0,0 km/h (0 Bft) N 0 0,000 mm 15,5 C 23,5 C 0,0 km/h (0 Bft) 0,00 %
09.08.2022 17:34 23,4 C 23,3 C 68 % 1023,4 hPa 0,0 l/m 4,8 km/h (1 Bft) S-SW 202 0,000 mm 17,1 C 23,4 C 4,8 km/h (1 Bft) 4,35 %
09.08.2022 17:33 23,4 C 23,3 C 68 % 1023,4 hPa 0,0 l/m 0,0 km/h (0 Bft) N 0 0,000 mm 17,1 C 23,4 C 0,0 km/h (0 Bft) 0,00 %
09.08.2022 17:32 23,4 C 23,3 C 63 % 1023,5 hPa 0,0 l/m 3,2 km/h (1 Bft) S-SW 202 0,000 mm 15,9 C 23,4 C 4,8 km/h (1 Bft) 91,30 %
09.08.2022 17:31 23,4 C 23,3 C 63 % 1023,4 hPa 0,0 l/m 1,6 km/h (1 Bft) S-SW 202 0,000 mm 15,9 C 23,4 C 3,2 km/h (1 Bft) 91,30 %
09.08.2022 17:30 23,5 C 23,3 C 59 % 1023,4 hPa 0,0 l/m 1,6 km/h (1 Bft) S-SW 202 0,000 mm 15,0 C 23,5 C 3,2 km/h (1 Bft) 95,65 %
09.08.2022 17:29 23,4 C 23,3 C 59 % 1023,4 hPa 0,0 l/m 3,2 km/h (1 Bft) S-SW 202 0,000 mm 14,9 C 23,4 C 4,8 km/h (1 Bft) 91,30 %
09.08.2022 17:28 23,4 C 23,9 C 60 % 1023,5 hPa 0,0 l/m 4,8 km/h (1 Bft) SW 225 0,000 mm 15,2 C 23,4 C 6,4 km/h (2 Bft) 91,30 %
09.08.2022 17:27 23,2 C 23,9 C 64 % 1023,4 hPa 0,0 l/m 3,2 km/h (1 Bft) S 180 0,000 mm 16,0 C 23,2 C 4,8 km/h (1 Bft) 86,96 %
09.08.2022 17:26 23,0 C 23,9 C 64 % 1023,4 hPa 0,0 l/m 4,8 km/h (1 Bft) S 180 0,000 mm 15,8 C 23,0 C 8,0 km/h (2 Bft) 95,65 %
09.08.2022 17:25 22,7 C 23,9 C 63 % 1023,3 hPa 0,0 l/m 3,2 km/h (1 Bft) S-SO 157 0,000 mm 15,3 C 22,7 C 4,8 km/h (1 Bft) 91,30 %
09.08.2022 17:24 22,5 C 23,3 C 63 % 1023,4 hPa 0,0 l/m 1,6 km/h (1 Bft) S 180 0,000 mm 15,1 C 22,5 C 3,2 km/h (1 Bft) 86,96 %
09.08.2022 17:23 22,4 C 22,8 C 66 % 1023,4 hPa 0,0 l/m 1,6 km/h (1 Bft) S-SO 157 0,000 mm 15,7 C 22,4 C 3,2 km/h (1 Bft) 91,30 %
09.08.2022 17:22 22,2 C 22,2 C 66 % 1023,4 hPa 0,0 l/m 3,2 km/h (1 Bft) S-SO 157 0,000 mm 15,5 C 22,2 C 6,4 km/h (2 Bft) 86,96 %
09.08.2022 17:21 22,2 C 22,2 C 66 % 1023,4 hPa 0,0 l/m 3,2 km/h (1 Bft) S-SW 202 0,000 mm 15,5 C 22,2 C 8,0 km/h (2 Bft) 91,30 %
09.08.2022 17:20 22,3 C 22,2 C 68 % 1023,4 hPa 0,0 l/m 4,8 km/h (1 Bft) S 180 0,000 mm 16,1 C 22,3 C 8,0 km/h (2 Bft) 95,65 %
09.08.2022 17:19 22,6 C 22,8 C 68 % 1023,4 hPa 0,0 l/m 4,8 km/h (1 Bft) S-SW 202 0,000 mm 16,4 C 22,6 C 6,4 km/h (2 Bft) 91,30 %
09.08.2022 17:18 22,8 C 22,8 C 68 % 1023,4 hPa 0,0 l/m 4,8 km/h (1 Bft) S 180 0,000 mm 16,6 C 22,8 C 6,4 km/h (2 Bft) 86,96 %
09.08.2022 17:17 23,2 C 23,3 C 66 % 1023,3 hPa 0,0 l/m 3,2 km/h (1 Bft) S 180 0,000 mm 16,5 C 23,2 C 6,4 km/h (2 Bft) 95,65 %
09.08.2022 17:16 23,4 C 23,3 C 64 % 1023,4 hPa 0,0 l/m 3,2 km/h (1 Bft) S 180 0,000 mm 16,2 C 23,4 C 6,4 km/h (2 Bft) 86,96 %
09.08.2022 17:15 23,7 C 23,3 C 61 % 1023,4 hPa 0,0 l/m 3,2 km/h (1 Bft) SW 225 0,000 mm 15,7 C 23,7 C 4,8 km/h (1 Bft) 86,96 %
09.08.2022 17:14 23,9 C 23,9 C 61 % 1023,4 hPa 0,0 l/m 3,2 km/h (1 Bft) SW 225 0,000 mm 15,9 C 23,9 C 4,8 km/h (1 Bft) 95,65 %
09.08.2022 17:13 24,2 C 23,9 C 55 % 1023,5 hPa 0,0 l/m 3,2 km/h (1 Bft) SW 225 0,000 mm 14,6 C 24,2 C 4,8 km/h (1 Bft) 95,65 %
09.08.2022 17:12 24,3 C 24,4 C 55 % 1023,4 hPa 0,0 l/m 3,2 km/h (1 Bft) S-SO 157 0,000 mm 14,7 C 24,3 C 6,4 km/h (2 Bft) 82,61 %
09.08.2022 17:11 24,4 C 24,4 C 51 % 1023,4 hPa 0,0 l/m 4,8 km/h (1 Bft) SW 225 0,000 mm 13,6 C 24,4 C 6,4 km/h (2 Bft) 95,65 %
09.08.2022 17:10 24,5 C 24,4 C 51 % 1023,4 hPa 0,0 l/m 1,6 km/h (1 Bft) S 180 0,000 mm 13,7 C 24,5 C 4,8 km/h (1 Bft) 91,30 %
09.08.2022 17:09 24,5 C 25,0 C 54 % 1023,4 hPa 0,0 l/m 4,8 km/h (1 Bft) S-SW 202 0,000 mm 14,6 C 24,5 C 6,4 km/h (2 Bft) 86,96 %
09.08.2022 17:08 24,6 C 25,6 C 56 % 1023,4 hPa 0,0 l/m 4,8 km/h (1 Bft) S 180 0,000 mm 15,2 C 24,6 C 6,4 km/h (2 Bft) 91,30 %
09.08.2022 17:07 24,6 C 25,6 C 55 % 1023,4 hPa 0,0 l/m 4,8 km/h (1 Bft) SW 225 0,000 mm 14,9 C 24,6 C 6,4 km/h (2 Bft) 95,65 %
09.08.2022 17:06 24,6 C 26,1 C 54 % 1023,4 hPa 0,0 l/m 3,2 km/h (1 Bft) S-SO 157 0,000 mm 14,7 C 24,6 C 8,0 km/h (2 Bft) 91,30 %
09.08.2022 17:05 24,5 C 26,7 C 54 % 1023,4 hPa 0,0 l/m 0,0 km/h (0 Bft) S 180 0,000 mm 14,6 C 24,5 C 1,6 km/h (1 Bft) 86,96 %
09.08.2022 17:04 24,3 C 27,2 C 54 % 1023,4 hPa 0,0 l/m 1,6 km/h (1 Bft) S 180 0,000 mm 14,4 C 24,3 C 4,8 km/h (1 Bft) 95,65 %
09.08.2022 17:03 24,0 C 27,2 C 57 % 1023,4 hPa 0,0 l/m 4,8 km/h (1 Bft) S-SO 157 0,000 mm 14,9 C 24,0 C 9,7 km/h (2 Bft) 91,30 %
09.08.2022 17:02 23,7 C 27,2 C 65 % 1023,5 hPa 0,0 l/m 4,8 km/h (1 Bft) S-SO 157 0,000 mm 16,7 C 23,7 C 8,0 km/h (2 Bft) 95,65 %
09.08.2022 17:01 23,4 C 26,1 C 65 % 1023,5 hPa 0,0 l/m 4,8 km/h (1 Bft) S-SO 157 0,000 mm 16,4 C 23,4 C 8,0 km/h (2 Bft) 91,30 %
09.08.2022 17:00 23,2 C 25,0 C 67 % 1023,6 hPa 0,0 l/m 3,2 km/h (1 Bft) S 180 0,000 mm 16,7 C 23,2 C 6,4 km/h (2 Bft) 95,65 %
09.08.2022 16:59 23,2 C 24,4 C 67 % 1023,5 hPa 0,0 l/m 1,6 km/h (1 Bft) S 180 0,000 mm 16,7 C 23,2 C 3,2 km/h (1 Bft) 95,65 %
09.08.2022 16:58 23,3 C 23,9 C 67 % 1023,6 hPa 0,0 l/m 1,6 km/h (1 Bft) S 180 0,000 mm 16,8 C 23,3 C 3,2 km/h (1 Bft) 100,00 %
09.08.2022 16:57 23,4 C 23,9 C 66 % 1023,5 hPa 0,0 l/m 1,6 km/h (1 Bft) S 180 0,000 mm 16,7 C 23,4 C 3,2 km/h (1 Bft) 91,30 %
09.08.2022 16:56 23,5 C 23,9 C 64 % 1023,6 hPa 0,0 l/m 1,6 km/h (1 Bft) S 180 0,000 mm 16,3 C 23,5 C 1,6 km/h (1 Bft) 95,65 %
09.08.2022 16:55 23,7 C 23,9 C 62 % 1023,6 hPa 0,0 l/m 1,6 km/h (1 Bft) S 180 0,000 mm 16,0 C 23,7 C 3,2 km/h (1 Bft) 95,65 %
09.08.2022 16:54 23,8 C 23,9 C 59 % 1023,6 hPa 0,0 l/m 1,6 km/h (1 Bft) S 180 0,000 mm 15,3 C 23,8 C 3,2 km/h (1 Bft) 95,65 %
09.08.2022 16:53 24,1 C 23,9 C 56 % 1023,6 hPa 0,0 l/m 1,6 km/h (1 Bft) S 180 0,000 mm 14,8 C 24,1 C 3,2 km/h (1 Bft) 95,65 %
09.08.2022 16:52 24,2 C 23,9 C 56 % 1023,6 hPa 0,0 l/m 3,2 km/h (1 Bft) S 180 0,000 mm 14,9 C 24,2 C 4,8 km/h (1 Bft) 95,65 %
09.08.2022 16:51 24,4 C 23,9 C 57 % 1023,7 hPa 0,0 l/m 3,2 km/h (1 Bft) S 180 0,000 mm 15,3 C 24,4 C 6,4 km/h (2 Bft) 91,30 %
09.08.2022 16:50 24,5 C 23,9 C 57 % 1023,6 hPa 0,0 l/m 3,2 km/h (1 Bft) S 180 0,000 mm 15,4 C 24,5 C 6,4 km/h (2 Bft) 95,65 %
09.08.2022 16:49 24,7 C 24,4 C 49 % 1023,7 hPa 0,0 l/m 3,2 km/h (1 Bft) SO 135 0,000 mm 13,3 C 24,7 C 4,8 km/h (1 Bft) 100,00 %
09.08.2022 16:48 24,8 C 24,4 C 49 % 1023,6 hPa 0,0 l/m 1,6 km/h (1 Bft) S 180 0,000 mm 13,3 C 24,8 C 3,2 km/h (1 Bft) 95,65 %
09.08.2022 16:47 24,8 C 24,4 C 49 % 1023,7 hPa 0,0 l/m 0,0 km/h (0 Bft) N 0 0,000 mm 13,3 C 24,8 C 0,0 km/h (0 Bft) 86,96 %
09.08.2022 16:46 24,8 C 24,4 C 55 % 1023,7 hPa 0,0 l/m 3,2 km/h (1 Bft) S 180 0,000 mm 15,1 C 24,8 C 6,4 km/h (2 Bft) 95,65 %
09.08.2022 16:45 24,9 C 25,0 C 47 % 1023,7 hPa 0,0 l/m 1,6 km/h (1 Bft) SO 135 0,000 mm 12,8 C 24,9 C 4,8 km/h (1 Bft) 95,65 %
09.08.2022 16:44 25,0 C 25,0 C 47 % 1023,7 hPa 0,0 l/m 3,2 km/h (1 Bft) S 180 0,000 mm 12,9 C 25,0 C 6,4 km/h (2 Bft) 95,65 %
09.08.2022 16:43 25,1 C 25,0 C 51 % 1023,8 hPa 0,0 l/m 3,2 km/h (1 Bft) SO 135 0,000 mm 14,2 C 25,1 C 6,4 km/h (2 Bft) 100,00 %
09.08.2022 16:42 25,2 C 25,6 C 51 % 1023,7 hPa 0,0 l/m 3,2 km/h (1 Bft) O-SO 112 0,000 mm 14,3 C 25,2 C 4,8 km/h (1 Bft) 86,96 %
09.08.2022 16:41 25,2 C 25,6 C 47 % 1023,7 hPa 0,0 l/m 4,8 km/h (1 Bft) O-SO 112 0,000 mm 13,1 C 25,2 C 6,4 km/h (2 Bft) 91,30 %
09.08.2022 16:40 25,2 C 25,6 C 47 % 1023,7 hPa 0,0 l/m 3,2 km/h (1 Bft) O-NO 67 0,000 mm 13,1 C 25,2 C 4,8 km/h (1 Bft) 95,65 %
09.08.2022 16:39 25,3 C 25,6 C 46 % 1023,7 hPa 0,0 l/m 3,2 km/h (1 Bft) O-SO 112 0,000 mm 12,8 C 25,3 C 4,8 km/h (1 Bft) 95,65 %
09.08.2022 16:38 25,3 C 25,6 C 46 % 1023,6 hPa 0,0 l/m 3,2 km/h (1 Bft) O-SO 112 0,000 mm 12,8 C 25,3 C 4,8 km/h (1 Bft) 91,30 %
09.08.2022 16:37 25,4 C 25,6 C 47 % 1023,7 hPa 0,0 l/m 4,8 km/h (1 Bft) O-SO 112 0,000 mm 13,3 C 25,4 C 6,4 km/h (2 Bft) 100,00 %
09.08.2022 16:36 25,4 C 26,1 C 45 % 1023,7 hPa 0,0 l/m 4,8 km/h (1 Bft) S 180 0,000 mm 12,6 C 25,4 C 8,0 km/h (2 Bft) 95,65 %
09.08.2022 16:35 25,6 C 26,1 C 46 % 1023,6 hPa 0,0 l/m 8,0 km/h (2 Bft) SO 135 0,000 mm 13,1 C 25,2 C 14,5 km/h (3 Bft) 95,65 %
09.08.2022 16:34 25,6 C 26,7 C 45 % 1023,7 hPa 0,0 l/m 4,8 km/h (1 Bft) O 90 0,000 mm 12,8 C 25,6 C 9,7 km/h (2 Bft) 95,65 %
09.08.2022 16:33 25,7 C 26,7 C 45 % 1023,6 hPa 0,0 l/m 6,4 km/h (2 Bft) S-SO 157 0,000 mm 12,9 C 25,7 C 16,1 km/h (3 Bft) 95,65 %
09.08.2022 16:32 25,8 C 27,2 C 45 % 1023,7 hPa 0,0 l/m 4,8 km/h (1 Bft) S 180 0,000 mm 13,0 C 25,8 C 11,3 km/h (2 Bft) 95,65 %
09.08.2022 16:31 25,9 C 27,2 C 48 % 1023,7 hPa 0,0 l/m 1,6 km/h (1 Bft) S 180 0,000 mm 14,0 C 25,9 C 6,4 km/h (2 Bft) 95,65 %
09.08.2022 16:30 26,0 C 27,8 C 47 % 1023,7 hPa 0,0 l/m 6,4 km/h (2 Bft) O-SO 112 0,000 mm 13,8 C 26,0 C 12,9 km/h (3 Bft) 95,65 %
09.08.2022 16:29 26,1 C 27,8 C 45 % 1023,6 hPa 0,0 l/m 4,8 km/h (1 Bft) SO 135 0,000 mm 13,2 C 26,1 C 12,9 km/h (3 Bft) 95,65 %
09.08.2022 16:28 26,2 C 27,8 C 46 % 1023,6 hPa 0,0 l/m 1,6 km/h (1 Bft) W 270 0,000 mm 13,6 C 26,2 C 3,2 km/h (1 Bft) 95,65 %
09.08.2022 16:27 26,3 C 27,8 C 45 % 1023,5 hPa 0,0 l/m 3,2 km/h (1 Bft) W 270 0,000 mm 13,4 C 26,3 C 4,8 km/h (1 Bft) 95,65 %
09.08.2022 16:26 26,4 C 28,3 C 45 % 1023,6 hPa 0,0 l/m 4,8 km/h (1 Bft) W 270 0,000 mm 13,5 C 26,4 C 9,7 km/h (2 Bft) 95,65 %
09.08.2022 16:25 26,5 C 28,9 C 46 % 1023,6 hPa 0,0 l/m 3,2 km/h (1 Bft) W-SW 247 0,000 mm 13,9 C 26,5 C 8,0 km/h (2 Bft) 95,65 %
09.08.2022 16:24 26,5 C 28,9 C 46 % 1023,6 hPa 0,0 l/m 4,8 km/h (1 Bft) S-SO 157 0,000 mm 13,9 C 26,5 C 6,4 km/h (2 Bft) 95,65 %
09.08.2022 16:23 26,4 C 28,9 C 44 % 1023,6 hPa 0,0 l/m 3,2 km/h (1 Bft) S-SO 157 0,000 mm 13,1 C 26,4 C 4,8 km/h (1 Bft) 95,65 %
09.08.2022 16:22 26,4 C 28,9 C 44 % 1023,6 hPa 0,0 l/m 4,8 km/h (1 Bft) S-SO 157 0,000 mm 13,1 C 26,4 C 8,0 km/h (2 Bft) 95,65 %
09.08.2022 16:21 26,4 C 29,4 C 43 % 1023,6 hPa 0,0 l/m 4,8 km/h (1 Bft) SW 225 0,000 mm 12,8 C 26,4 C 6,4 km/h (2 Bft) 95,65 %
09.08.2022 16:20 26,3 C 28,9 C 45 % 1023,5 hPa 0,0 l/m 3,2 km/h (1 Bft) W 270 0,000 mm 13,4 C 26,3 C 4,8 km/h (1 Bft) 91,30 %
09.08.2022 16:19 26,3 C 28,9 C 45 % 1023,6 hPa 0,0 l/m 3,2 km/h (1 Bft) W 270 0,000 mm 13,4 C 26,3 C 6,4 km/h (2 Bft) 91,30 %
09.08.2022 16:18 26,1 C 28,9 C 47 % 1023,6 hPa 0,0 l/m 4,8 km/h (1 Bft) W 270 0,000 mm 13,9 C 26,1 C 6,4 km/h (2 Bft) 100,00 %
09.08.2022 16:17 25,9 C 28,3 C 47 % 1023,5 hPa 0,0 l/m 1,6 km/h (1 Bft) S 180 0,000 mm 13,7 C 25,9 C 4,8 km/h (1 Bft) 95,65 %
09.08.2022 16:16 25,8 C 28,3 C 47 % 1023,5 hPa 0,0 l/m 1,6 km/h (1 Bft) S 180 0,000 mm 13,6 C 25,8 C 3,2 km/h (1 Bft) 95,65 %
09.08.2022 16:15 25,7 C 27,8 C 47 % 1023,6 hPa 0,0 l/m 4,8 km/h (1 Bft) S-SO 157 0,000 mm 13,5 C 25,7 C 8,0 km/h (2 Bft) 95,65 %
09.08.2022 16:14 25,5 C 27,2 C 46 % 1023,6 hPa 0,0 l/m 4,8 km/h (1 Bft) SW 225 0,000 mm 13,0 C 25,5 C 8,0 km/h (2 Bft) 95,65 %
09.08.2022 16:13 25,3 C 26,7 C 47 % 1023,5 hPa 0,0 l/m 4,8 km/h (1 Bft) S-SW 202 0,000 mm 13,2 C 25,3 C 6,4 km/h (2 Bft) 91,30 %
09.08.2022 16:12 25,1 C 26,7 C 54 % 1023,6 hPa 0,0 l/m 3,2 km/h (1 Bft) S-SW 202 0,000 mm 15,1 C 25,1 C 6,4 km/h (2 Bft) 100,00 %
09.08.2022 16:11 25,1 C 26,1 C 54 % 1023,6 hPa 0,0 l/m 3,2 km/h (1 Bft) W 270 0,000 mm 15,1 C 25,1 C 4,8 km/h (1 Bft) 95,65 %
09.08.2022 16:10 25,1 C 26,1 C 50 % 1023,6 hPa 0,0 l/m 1,6 km/h (1 Bft) W 270 0,000 mm 13,9 C 25,1 C 3,2 km/h (1 Bft) 95,65 %
09.08.2022 16:09 25,1 C 26,1 C 49 % 1023,6 hPa 0,0 l/m 1,6 km/h (1 Bft) W 270 0,000 mm 13,6 C 25,1 C 3,2 km/h (1 Bft) 95,65 %
09.08.2022 16:08 25,2 C 26,1 C 46 % 1023,6 hPa 0,0 l/m 1,6 km/h (1 Bft) W-SW 247 0,000 mm 12,7 C 25,2 C 3,2 km/h (1 Bft) 95,65 %
09.08.2022 16:07 25,1 C 26,1 C 46 % 1023,5 hPa 0,0 l/m 1,6 km/h (1 Bft) W-SW 247 0,000 mm 12,7 C 25,1 C 3,2 km/h (1 Bft) 95,65 %
09.08.2022 16:06 25,2 C 26,1 C 45 % 1023,6 hPa 0,0 l/m 1,6 km/h (1 Bft) W-SW 247 0,000 mm 12,4 C 25,2 C 3,2 km/h (1 Bft) 100,00 %
09.08.2022 16:05 25,2 C 26,1 C 48 % 1023,6 hPa 0,0 l/m 4,8 km/h (1 Bft) W-SW 247 0,000 mm 13,4 C 25,2 C 6,4 km/h (2 Bft) 95,65 %
09.08.2022 16:04 25,3 C 26,7 C 47 % 1023,6 hPa 0,0 l/m 4,8 km/h (1 Bft) SW 225 0,000 mm 13,2 C 25,3 C 6,4 km/h (2 Bft) 95,65 %
09.08.2022 16:03 25,3 C 26,7 C 46 % 1023,6 hPa 0,0 l/m 6,4 km/h (2 Bft) SW 225 0,000 mm 12,8 C 25,3 C 8,0 km/h (2 Bft) 100,00 %
09.08.2022 16:02 25,4 C 26,7 C 44 % 1023,7 hPa 0,0 l/m 4,8 km/h (1 Bft) S 180 0,000 mm 12,2 C 25,4 C 6,4 km/h (2 Bft) 95,65 %
09.08.2022 16:01 25,5 C 27,2 C 51 % 1023,6 hPa 0,0 l/m 4,8 km/h (1 Bft) S 180 0,000 mm 14,6 C 25,5 C 8,0 km/h (2 Bft) 95,65 %
09.08.2022 16:00 25,6 C 27,2 C 51 % 1023,6 hPa 0,0 l/m 6,4 km/h (2 Bft) SW 225 0,000 mm 14,7 C 25,6 C 8,0 km/h (2 Bft) 100,00 %
09.08.2022 15:59 25,6 C 27,2 C 47 % 1023,6 hPa 0,0 l/m 4,8 km/h (1 Bft) W-SW 247 0,000 mm 13,4 C 25,6 C 9,7 km/h (2 Bft) 95,65 %
09.08.2022 15:58 25,7 C 27,2 C 46 % 1023,6 hPa 0,0 l/m 1,6 km/h (1 Bft) SW 225 0,000 mm 13,2 C 25,7 C 3,2 km/h (1 Bft) 95,65 %
09.08.2022 15:57 25,8 C 27,2 C 45 % 1023,6 hPa 0,0 l/m 3,2 km/h (1 Bft) W-SW 247 0,000 mm 13,0 C 25,8 C 4,8 km/h (1 Bft) 91,30 %
09.08.2022 15:56 25,9 C 27,8 C 44 % 1023,6 hPa 0,0 l/m 1,6 km/h (1 Bft) W-SW 247 0,000 mm 12,7 C 25,9 C 4,8 km/h (1 Bft) 91,30 %
09.08.2022 15:55 26,1 C 27,8 C 44 % 1023,6 hPa 0,0 l/m 4,8 km/h (1 Bft) W-SW 247 0,000 mm 12,9 C 26,1 C 6,4 km/h (2 Bft) 95,65 %
09.08.2022 15:54 26,2 C 28,3 C 44 % 1023,6 hPa 0,0 l/m 6,4 km/h (2 Bft) W-SW 247 0,000 mm 13,0 C 26,2 C 8,0 km/h (2 Bft) 100,00 %
09.08.2022 15:53 26,2 C 28,9 C 46 % 1023,5 hPa 0,0 l/m 8,0 km/h (2 Bft) W-SW 247 0,000 mm 13,6 C 25,9 C 11,3 km/h (2 Bft) 95,65 %
09.08.2022 15:52 26,2 C 28,9 C 49 % 1023,6 hPa 0,0 l/m 3,2 km/h (1 Bft) NW 315 0,000 mm 14,6 C 26,2 C 9,7 km/h (2 Bft) 95,65 %
09.08.2022 15:51 26,0 C 28,9 C 43 % 1023,5 hPa 0,0 l/m 1,6 km/h (1 Bft) W-NW 292 0,000 mm 12,4 C 26,0 C 4,8 km/h (1 Bft) 100,00 %
09.08.2022 15:50 25,9 C 28,9 C 43 % 1023,6 hPa 0,0 l/m 3,2 km/h (1 Bft) W-NW 292 0,000 mm 12,3 C 25,9 C 6,4 km/h (2 Bft) 95,65 %
09.08.2022 15:49 25,9 C 28,3 C 45 % 1023,6 hPa 0,0 l/m 3,2 km/h (1 Bft) W 270 0,000 mm 13,0 C 25,9 C 4,8 km/h (1 Bft) 91,30 %
09.08.2022 15:48 25,8 C 27,8 C 45 % 1023,6 hPa 0,0 l/m 3,2 km/h (1 Bft) W-SW 247 0,000 mm 13,0 C 25,8 C 4,8 km/h (1 Bft) 100,00 %
09.08.2022 15:47 25,7 C 27,8 C 49 % 1023,6 hPa 0,0 l/m 3,2 km/h (1 Bft) W 270 0,000 mm 14,2 C 25,7 C 4,8 km/h (1 Bft) 95,65 %
09.08.2022 15:46 25,5 C 27,8 C 47 % 1023,6 hPa 0,0 l/m 3,2 km/h (1 Bft) W-SW 247 0,000 mm 13,3 C 25,5 C 4,8 km/h (1 Bft) 95,65 %
09.08.2022 15:45 25,4 C 27,2 C 48 % 1023,6 hPa 0,0 l/m 4,8 km/h (1 Bft) W 270 0,000 mm 13,6 C 25,4 C 6,4 km/h (2 Bft) 100,00 %
09.08.2022 15:44 25,2 C 27,2 C 48 % 1023,6 hPa 0,0 l/m 3,2 km/h (1 Bft) W-SW 247 0,000 mm 13,4 C 25,2 C 4,8 km/h (1 Bft) 95,65 %
09.08.2022 15:43 25,2 C 27,2 C 50 % 1023,7 hPa 0,0 l/m 4,8 km/h (1 Bft) W-SW 247 0,000 mm 14,0 C 25,2 C 6,4 km/h (2 Bft) 86,96 %
09.08.2022 15:42 25,2 C 26,7 C 48 % 1023,6 hPa 0,0 l/m 4,8 km/h (1 Bft) W 270 0,000 mm 13,4 C 25,2 C 6,4 km/h (2 Bft) 100,00 %
09.08.2022 15:41 25,2 C 26,7 C 47 % 1023,6 hPa 0,0 l/m 3,2 km/h (1 Bft) W-SW 247 0,000 mm 13,1 C 25,2 C 4,8 km/h (1 Bft) 95,65 %
09.08.2022 15:40 25,2 C 26,7 C 50 % 1023,7 hPa 0,0 l/m 3,2 km/h (1 Bft) W-NW 292 0,000 mm 14,0 C 25,2 C 4,8 km/h (1 Bft) 91,30 %
09.08.2022 15:39 25,2 C 26,7 C 48 % 1023,6 hPa 0,0 l/m 3,2 km/h (1 Bft) W-NW 292 0,000 mm 13,4 C 25,2 C 4,8 km/h (1 Bft) 95,65 %
09.08.2022 15:38 25,2 C 27,2 C 46 % 1023,6 hPa 0,0 l/m 3,2 km/h (1 Bft) W 270 0,000 mm 12,7 C 25,2 C 4,8 km/h (1 Bft) 95,65 %
09.08.2022 15:37 25,3 C 27,2 C 47 % 1023,7 hPa 0,0 l/m 4,8 km/h (1 Bft) W 270 0,000 mm 13,2 C 25,3 C 4,8 km/h (1 Bft) 95,65 %
09.08.2022 15:36 25,3 C 27,2 C 47 % 1023,6 hPa 0,0 l/m 3,2 km/h (1 Bft) W 270 0,000 mm 13,2 C 25,3 C 6,4 km/h (2 Bft) 100,00 %
09.08.2022 15:35 25,3 C 27,2 C 45 % 1023,7 hPa 0,0 l/m 3,2 km/h (1 Bft) S-SW 202 0,000 mm 12,5 C 25,3 C 4,8 km/h (1 Bft) 86,96 %
09.08.2022 15:34 25,4 C 27,2 C 46 % 1023,6 hPa 0,0 l/m 4,8 km/h (1 Bft) SW 225 0,000 mm 12,9 C 25,4 C 6,4 km/h (2 Bft) 95,65 %
09.08.2022 15:33 25,4 C 27,2 C 47 % 1023,7 hPa 0,0 l/m 8,0 km/h (2 Bft) W-SW 247 0,000 mm 13,3 C 25,0 C 9,7 km/h (2 Bft) 91,30 %
09.08.2022 15:32 25,5 C 27,2 C 47 % 1023,7 hPa 0,0 l/m 6,4 km/h (2 Bft) W 270 0,000 mm 13,3 C 25,5 C 11,3 km/h (2 Bft) 95,65 %
09.08.2022 15:31 25,6 C 27,8 C 47 % 1023,7 hPa 0,0 l/m 6,4 km/h (2 Bft) W 270 0,000 mm 13,4 C 25,6 C 9,7 km/h (2 Bft) 95,65 %
09.08.2022 15:30 25,7 C 27,8 C 47 % 1023,6 hPa 0,0 l/m 6,4 km/h (2 Bft) W-SW 247 0,000 mm 13,5 C 25,7 C 9,7 km/h (2 Bft) 95,65 %
09.08.2022 15:29 25,7 C 28,3 C 46 % 1023,7 hPa 0,0 l/m 3,2 km/h (1 Bft) NW 315 0,000 mm 13,2 C 25,7 C 4,8 km/h (1 Bft) 100,00 %
09.08.2022 15:28 25,8 C 28,9 C 46 % 1023,6 hPa 0,0 l/m 4,8 km/h (1 Bft) W-NW 292 0,000 mm 13,3 C 25,8 C 8,0 km/h (2 Bft) 95,65 %
09.08.2022 15:27 25,9 C 29,4 C 46 % 1023,5 hPa 0,0 l/m 6,4 km/h (2 Bft) W 270 0,000 mm 13,4 C 25,9 C 11,3 km/h (2 Bft) 91,30 %
09.08.2022 15:26 26,1 C 29,4 C 46 % 1023,6 hPa 0,0 l/m 4,8 km/h (1 Bft) W 270 0,000 mm 13,6 C 26,1 C 9,7 km/h (2 Bft) 100,00 %
09.08.2022 15:25 26,2 C 30,0 C 42 % 1023,6 hPa 0,0 l/m 3,2 km/h (1 Bft) W-SW 247 0,000 mm 12,3 C 26,2 C 4,8 km/h (1 Bft) 95,65 %
09.08.2022 15:24 26,4 C 31,1 C 43 % 1023,6 hPa 0,0 l/m 4,8 km/h (1 Bft) W 270 0,000 mm 12,8 C 26,4 C 6,4 km/h (2 Bft) 91,30 %
09.08.2022 15:23 26,6 C 33,9 C 43 % 1023,6 hPa 0,0 l/m 3,2 km/h (1 Bft) W-NW 292 0,000 mm 13,0 C 26,6 C 6,4 km/h (2 Bft) 100,00 %
09.08.2022 15:22 26,7 C 33,9 C 43 % 1023,6 hPa 0,0 l/m 6,4 km/h (2 Bft) W 270 0,000 mm 13,1 C 26,7 C 9,7 km/h (2 Bft) 95,65 %
09.08.2022 15:21 26,8 C 35,0 C 44 % 1023,6 hPa 0,0 l/m 4,8 km/h (1 Bft) W 270 0,000 mm 13,5 C 26,8 C 6,4 km/h (2 Bft) 95,65 %
09.08.2022 15:20 26,8 C 37,2 C 44 % 1023,6 hPa 0,0 l/m 8,0 km/h (2 Bft) W 270 0,000 mm 13,5 C 26,5 C 12,9 km/h (3 Bft) 95,65 %
09.08.2022 15:19 26,7 C 39,4 C 45 % 1023,6 hPa 0,0 l/m 8,0 km/h (2 Bft) W 270 0,000 mm 13,8 C 26,4 C 12,9 km/h (3 Bft) 95,65 %
09.08.2022 15:18 26,4 C 39,4 C 46 % 1023,6 hPa 0,0 l/m 4,8 km/h (1 Bft) W 270 0,000 mm 13,8 C 26,4 C 9,7 km/h (2 Bft) 95,65 %
09.08.2022 15:17 26,1 C 38,3 C 46 % 1023,5 hPa 0,0 l/m 3,2 km/h (1 Bft) W-NW 292 0,000 mm 13,6 C 26,1 C 6,4 km/h (2 Bft) 100,00 %
09.08.2022 15:16 26,2 C 37,8 C 43 % 1023,6 hPa 0,0 l/m 3,2 km/h (1 Bft) W-NW 292 0,000 mm 12,6 C 26,2 C 4,8 km/h (1 Bft) 95,65 %
09.08.2022 15:15 26,3 C 37,2 C 43 % 1023,6 hPa 0,0 l/m 4,8 km/h (1 Bft) W-SW 247 0,000 mm 12,7 C 26,3 C 8,0 km/h (2 Bft) 95,65 %
09.08.2022 15:14 26,3 C 36,7 C 46 % 1023,6 hPa 0,0 l/m 8,0 km/h (2 Bft) W-SW 247 0,000 mm 13,7 C 26,0 C 11,3 km/h (2 Bft) 100,00 %
09.08.2022 15:13 26,2 C 35,6 C 44 % 1023,6 hPa 0,0 l/m 3,2 km/h (1 Bft) S-SO 157 0,000 mm 13,0 C 26,2 C 4,8 km/h (1 Bft) 91,30 %
09.08.2022 15:12 26,4 C 37,2 C 41 % 1023,7 hPa 0,0 l/m 3,2 km/h (1 Bft) S-SO 157 0,000 mm 12,1 C 26,4 C 4,8 km/h (1 Bft) 91,30 %
09.08.2022 15:11 26,4 C 38,9 C 45 % 1023,6 hPa 0,0 l/m 6,4 km/h (2 Bft) SW 225 0,000 mm 13,5 C 26,4 C 12,9 km/h (3 Bft) 100,00 %
09.08.2022 15:10 26,2 C 37,8 C 47 % 1023,6 hPa 0,0 l/m 6,4 km/h (2 Bft) W-SW 247 0,000 mm 14,0 C 26,2 C 12,9 km/h (3 Bft) 95,65 %
09.08.2022 15:09 26,2 C 36,7 C 44 % 1023,6 hPa 0,0 l/m 1,6 km/h (1 Bft) N-NW 337 0,000 mm 13,0 C 26,2 C 3,2 km/h (1 Bft) 95,65 %
09.08.2022 15:08 26,2 C 36,7 C 44 % 1023,6 hPa 0,0 l/m 3,2 km/h (1 Bft) W-SW 247 0,000 mm 13,0 C 26,2 C 6,4 km/h (2 Bft) 95,65 %
09.08.2022 15:07 26,1 C 35,6 C 45 % 1023,6 hPa 0,0 l/m 6,4 km/h (2 Bft) W-SW 247 0,000 mm 13,2 C 26,1 C 11,3 km/h (2 Bft) 95,65 %
09.08.2022 15:06 26,1 C 34,4 C 46 % 1023,7 hPa 0,0 l/m 3,2 km/h (1 Bft) W 270 0,000 mm 13,6 C 26,1 C 4,8 km/h (1 Bft) 95,65 %
09.08.2022 15:05 26,1 C 34,4 C 47 % 1023,7 hPa 0,0 l/m 6,4 km/h (2 Bft) W-NW 292 0,000 mm 13,9 C 26,1 C 11,3 km/h (2 Bft) 95,65 %
09.08.2022 15:04 26,1 C 33,9 C 46 % 1023,7 hPa 0,0 l/m 6,4 km/h (2 Bft) W 270 0,000 mm 13,6 C 26,1 C 9,7 km/h (2 Bft) 95,65 %
09.08.2022 15:03 26,1 C 35,0 C 46 % 1023,7 hPa 0,0 l/m 8,0 km/h (2 Bft) W 270 0,000 mm 13,6 C 25,8 C 9,7 km/h (2 Bft) 95,65 %
09.08.2022 15:02 26,1 C 35,6 C 44 % 1023,8 hPa 0,0 l/m 9,7 km/h (2 Bft) W 270 0,000 mm 12,9 C 25,4 C 12,9 km/h (3 Bft) 95,65 %
09.08.2022 15:01 26,1 C 37,2 C 44 % 1023,8 hPa 0,0 l/m 11,3 km/h (2 Bft) W 270 0,000 mm 12,9 C 25,2 C 12,9 km/h (3 Bft) 86,96 %
09.08.2022 15:00 26,2 C 37,2 C 45 % 1023,7 hPa 0,0 l/m 12,9 km/h (3 Bft) W 270 0,000 mm 13,3 C 25,0 C 16,1 km/h (3 Bft) 95,65 %
09.08.2022 14:59 26,1 C 37,8 C 45 % 1023,8 hPa 0,0 l/m 6,4 km/h (2 Bft) W 270 0,000 mm 13,2 C 26,1 C 12,9 km/h (3 Bft) 91,30 %
09.08.2022 14:58 26,1 C 38,3 C 44 % 1023,7 hPa 0,0 l/m 4,8 km/h (1 Bft) W 270 0,000 mm 12,9 C 26,1 C 6,4 km/h (2 Bft) 86,96 %
09.08.2022 14:57 26,0 C 37,2 C 44 % 1023,7 hPa 0,0 l/m 6,4 km/h (2 Bft) W-SW 247 0,000 mm 12,8 C 26,0 C 9,7 km/h (2 Bft) 91,30 %
09.08.2022 14:56 25,9 C 36,7 C 43 % 1023,8 hPa 0,0 l/m 8,0 km/h (2 Bft) W-SW 247 0,000 mm 12,3 C 25,5 C 11,3 km/h (2 Bft) 91,30 %
09.08.2022 14:55 25,9 C 36,1 C 45 % 1023,8 hPa 0,0 l/m 11,3 km/h (2 Bft) W 270 0,000 mm 13,0 C 24,9 C 14,5 km/h (3 Bft) 86,96 %
09.08.2022 14:54 25,8 C 35,0 C 42 % 1023,8 hPa 0,0 l/m 4,8 km/h (1 Bft) W-SW 247 0,000 mm 11,9 C 25,8 C 8,0 km/h (2 Bft) 95,65 %
09.08.2022 14:53 25,8 C 33,9 C 43 % 1023,8 hPa 0,0 l/m 4,8 km/h (1 Bft) SW 225 0,000 mm 12,3 C 25,8 C 8,0 km/h (2 Bft) 100,00 %
09.08.2022 14:52 25,9 C 35,0 C 48 % 1023,9 hPa 0,0 l/m 8,0 km/h (2 Bft) W-SW 247 0,000 mm 14,0 C 25,5 C 11,3 km/h (2 Bft) 86,96 %
09.08.2022 14:51 26,0 C 36,1 C 42 % 1023,8 hPa 0,0 l/m 9,7 km/h (2 Bft) W-SW 247 0,000 mm 12,1 C 25,3 C 12,9 km/h (3 Bft) 95,65 %
09.08.2022 14:50 26,0 C 36,7 C 42 % 1023,9 hPa 0,0 l/m 3,2 km/h (1 Bft) W-SW 247 0,000 mm 12,1 C 26,0 C 4,8 km/h (1 Bft) 95,65 %
09.08.2022 14:49 26,1 C 37,2 C 42 % 1023,9 hPa 0,0 l/m 4,8 km/h (1 Bft) SW 225 0,000 mm 12,2 C 26,1 C 6,4 km/h (2 Bft) 95,65 %
09.08.2022 14:48 26,2 C 36,7 C 45 % 1023,9 hPa 0,0 l/m 8,0 km/h (2 Bft) SW 225 0,000 mm 13,3 C 25,9 C 11,3 km/h (2 Bft) 95,65 %
09.08.2022 14:47 26,3 C 36,7 C 44 % 1023,8 hPa 0,0 l/m 9,7 km/h (2 Bft) W 270 0,000 mm 13,1 C 25,7 C 12,9 km/h (3 Bft) 100,00 %
09.08.2022 14:46 26,3 C 35,6 C 45 % 1023,9 hPa 0,0 l/m 8,0 km/h (2 Bft) W 270 0,000 mm 13,4 C 26,0 C 14,5 km/h (3 Bft) 86,96 %
09.08.2022 14:45 26,3 C 35,6 C 47 % 1023,8 hPa 0,0 l/m 9,7 km/h (2 Bft) W 270 0,000 mm 14,1 C 25,7 C 16,1 km/h (3 Bft) 91,30 %
09.08.2022 14:44 26,3 C 37,8 C 45 % 1023,9 hPa 0,0 l/m 8,0 km/h (2 Bft) W 270 0,000 mm 13,4 C 26,0 C 9,7 km/h (2 Bft) 91,30 %
09.08.2022 14:43 26,5 C 39,4 C 45 % 1023,9 hPa 0,0 l/m 6,4 km/h (2 Bft) W 270 0,000 mm 13,6 C 26,5 C 9,7 km/h (2 Bft) 95,65 %
09.08.2022 14:42 26,6 C 39,4 C 46 % 1023,8 hPa 0,0 l/m 6,4 km/h (2 Bft) W 270 0,000 mm 14,0 C 26,6 C 9,7 km/h (2 Bft) 91,30 %
09.08.2022 14:41 26,4 C 39,4 C 45 % 1023,9 hPa 0,0 l/m 8,0 km/h (2 Bft) W 270 0,000 mm 13,5 C 26,1 C 12,9 km/h (3 Bft) 95,65 %
09.08.2022 14:40 26,4 C 39,4 C 45 % 1023,9 hPa 0,0 l/m 6,4 km/h (2 Bft) W 270 0,000 mm 13,5 C 26,4 C 12,9 km/h (3 Bft) 95,65 %
09.08.2022 14:39 26,4 C 40,0 C 46 % 1023,8 hPa 0,0 l/m 6,4 km/h (2 Bft) SW 225 0,000 mm 13,8 C 26,4 C 8,0 km/h (2 Bft) 95,65 %
09.08.2022 14:38 26,4 C 36,7 C 45 % 1023,8 hPa 0,0 l/m 4,8 km/h (1 Bft) NW 315 0,000 mm 13,5 C 26,4 C 6,4 km/h (2 Bft) 95,65 %
09.08.2022 14:37 26,4 C 36,7 C 45 % 1023,8 hPa 0,0 l/m 3,2 km/h (1 Bft) NO 45 0,000 mm 13,5 C 26,4 C 3,2 km/h (1 Bft) 91,30 %
09.08.2022 14:36 26,4 C 35,6 C 44 % 1023,9 hPa 0,0 l/m 3,2 km/h (1 Bft) S-SW 202 0,000 mm 13,1 C 26,4 C 8,0 km/h (2 Bft) 95,65 %
09.08.2022 14:35 26,6 C 34,4 C 47 % 1023,8 hPa 0,0 l/m 8,0 km/h (2 Bft) S-SO 157 0,000 mm 14,3 C 26,3 C 12,9 km/h (3 Bft) 82,61 %
09.08.2022 14:34 26,5 C 34,4 C 49 % 1023,9 hPa 0,0 l/m 6,4 km/h (2 Bft) W 270 0,000 mm 14,9 C 26,5 C 9,7 km/h (2 Bft) 100,00 %
09.08.2022 14:33 26,4 C 34,4 C 48 % 1023,8 hPa 0,0 l/m 4,8 km/h (1 Bft) SW 225 0,000 mm 14,5 C 26,4 C 8,0 km/h (2 Bft) 86,96 %
09.08.2022 14:32 26,3 C 34,4 C 48 % 1023,9 hPa 0,0 l/m 6,4 km/h (2 Bft) S-SW 202 0,000 mm 14,4 C 26,3 C 12,9 km/h (3 Bft) 95,65 %
09.08.2022 14:31 26,3 C 34,4 C 49 % 1023,9 hPa 0,0 l/m 3,2 km/h (1 Bft) S 180 0,000 mm 14,7 C 26,3 C 9,7 km/h (2 Bft) 91,30 %
09.08.2022 14:30 26,2 C 35,0 C 46 % 1024,0 hPa 0,0 l/m 4,8 km/h (1 Bft) S-SW 202 0,000 mm 13,6 C 26,2 C 6,4 km/h (2 Bft) 91,30 %
09.08.2022 14:29 26,3 C 35,6 C 46 % 1024,0 hPa 0,0 l/m 8,0 km/h (2 Bft) S-SO 157 0,000 mm 13,7 C 26,0 C 11,3 km/h (2 Bft) 91,30 %
09.08.2022 14:28 26,3 C 35,6 C 50 % 1023,9 hPa 0,0 l/m 3,2 km/h (1 Bft) S-SW 202 0,000 mm 15,0 C 26,3 C 8,0 km/h (2 Bft) 100,00 %
09.08.2022 14:27 26,1 C 35,0 C 47 % 1024,0 hPa 0,0 l/m 3,2 km/h (1 Bft) W 270 0,000 mm 13,9 C 26,1 C 4,8 km/h (1 Bft) 91,30 %
09.08.2022 14:26 25,8 C 34,4 C 50 % 1024,1 hPa 0,0 l/m 4,8 km/h (1 Bft) W-SW 247 0,000 mm 14,6 C 25,8 C 6,4 km/h (2 Bft) 95,65 %
09.08.2022 14:25 25,8 C 33,3 C 47 % 1024,0 hPa 0,0 l/m 3,2 km/h (1 Bft) W-SW 247 0,000 mm 13,6 C 25,8 C 8,0 km/h (2 Bft) 95,65 %
09.08.2022 14:24 25,8 C 32,2 C 50 % 1024,0 hPa 0,0 l/m 4,8 km/h (1 Bft) W-SW 247 0,000 mm 14,6 C 25,8 C 9,7 km/h (2 Bft) 86,96 %
09.08.2022 14:23 25,7 C 32,2 C 48 % 1024,0 hPa 0,0 l/m 4,8 km/h (1 Bft) S-SW 202 0,000 mm 13,9 C 25,7 C 11,3 km/h (2 Bft) 95,65 %
09.08.2022 14:22 25,6 C 31,7 C 49 % 1024,0 hPa 0,0 l/m 4,8 km/h (1 Bft) W 270 0,000 mm 14,1 C 25,6 C 6,4 km/h (2 Bft) 95,65 %
09.08.2022 14:21 25,3 C 29,4 C 50 % 1024,0 hPa 0,0 l/m 1,6 km/h (1 Bft) N-NW 337 0,000 mm 14,1 C 25,3 C 4,8 km/h (1 Bft) 91,30 %
09.08.2022 14:20 25,3 C 29,4 C 49 % 1024,1 hPa 0,0 l/m 4,8 km/h (1 Bft) N-NW 337 0,000 mm 13,8 C 25,3 C 6,4 km/h (2 Bft) 86,96 %
09.08.2022 14:19 25,4 C 29,4 C 46 % 1024,0 hPa 0,0 l/m 4,8 km/h (1 Bft) W 270 0,000 mm 12,9 C 25,4 C 9,7 km/h (2 Bft) 100,00 %
09.08.2022 14:18 25,5 C 30,0 C 47 % 1024,1 hPa 0,0 l/m 6,4 km/h (2 Bft) W-SW 247 0,000 mm 13,3 C 25,5 C 11,3 km/h (2 Bft) 91,30 %
09.08.2022 14:17 25,6 C 31,1 C 47 % 1024,1 hPa 0,0 l/m 6,4 km/h (2 Bft) W 270 0,000 mm 13,4 C 25,6 C 9,7 km/h (2 Bft) 95,65 %
09.08.2022 14:16 25,6 C 31,7 C 48 % 1024,0 hPa 0,0 l/m 8,0 km/h (2 Bft) W 270 0,000 mm 13,8 C 25,2 C 14,5 km/h (3 Bft) 95,65 %
09.08.2022 14:15 25,6 C 32,2 C 47 % 1024,1 hPa 0,0 l/m 3,2 km/h (1 Bft) W 270 0,000 mm 13,4 C 25,6 C 4,8 km/h (1 Bft) 95,65 %
09.08.2022 14:14 25,6 C 33,9 C 46 % 1024,1 hPa 0,0 l/m 4,8 km/h (1 Bft) W-SW 247 0,000 mm 13,1 C 25,6 C 9,7 km/h (2 Bft) 86,96 %
09.08.2022 14:13 25,6 C 33,3 C 45 % 1024,2 hPa 0,0 l/m 6,4 km/h (2 Bft) W 270 0,000 mm 12,8 C 25,6 C 9,7 km/h (2 Bft) 95,65 %
09.08.2022 14:12 25,7 C 32,2 C 45 % 1024,1 hPa 0,0 l/m 8,0 km/h (2 Bft) W 270 0,000 mm 12,9 C 25,3 C 12,9 km/h (3 Bft) 86,96 %
09.08.2022 14:11 25,7 C 32,2 C 47 % 1024,1 hPa 0,0 l/m 11,3 km/h (2 Bft) W-SW 247 0,000 mm 13,5 C 24,7 C 16,1 km/h (3 Bft) 95,65 %
09.08.2022 14:10 25,6 C 31,1 C 48 % 1024,2 hPa 0,0 l/m 8,0 km/h (2 Bft) W-SW 247 0,000 mm 13,8 C 25,2 C 11,3 km/h (2 Bft) 100,00 %
09.08.2022 14:09 25,6 C 30,6 C 48 % 1024,1 hPa 0,0 l/m 6,4 km/h (2 Bft) W-SW 247 0,000 mm 13,8 C 25,6 C 8,0 km/h (2 Bft) 91,30 %
09.08.2022 14:08 25,7 C 31,7 C 46 % 1024,1 hPa 0,0 l/m 9,7 km/h (2 Bft) W-SW 247 0,000 mm 13,2 C 25,0 C 14,5 km/h (3 Bft) 95,65 %
09.08.2022 14:07 25,8 C 32,2 C 47 % 1024,2 hPa 0,0 l/m 8,0 km/h (2 Bft) W 270 0,000 mm 13,6 C 25,4 C 14,5 km/h (3 Bft) 95,65 %
09.08.2022 14:06 25,9 C 33,3 C 46 % 1024,1 hPa 0,0 l/m 8,0 km/h (2 Bft) W-SW 247 0,000 mm 13,4 C 25,5 C 11,3 km/h (2 Bft) 95,65 %
09.08.2022 14:05 25,8 C 33,3 C 49 % 1024,1 hPa 0,0 l/m 6,4 km/h (2 Bft) S-SW 202 0,000 mm 14,3 C 25,8 C 9,7 km/h (2 Bft) 91,30 %
09.08.2022 14:04 25,7 C 33,3 C 48 % 1024,2 hPa 0,0 l/m 6,4 km/h (2 Bft) SW 225 0,000 mm 13,9 C 25,7 C 11,3 km/h (2 Bft) 100,00 %
09.08.2022 14:03 25,4 C 33,3 C 49 % 1024,1 hPa 0,0 l/m 8,0 km/h (2 Bft) W 270 0,000 mm 13,9 C 25,0 C 11,3 km/h (2 Bft) 86,96 %
09.08.2022 14:02 25,3 C 33,3 C 48 % 1024,2 hPa 0,0 l/m 3,2 km/h (1 Bft) SW 225 0,000 mm 13,5 C 25,3 C 6,4 km/h (2 Bft) 86,96 %
09.08.2022 14:01 25,1 C 31,1 C 52 % 1024,2 hPa 0,0 l/m 6,4 km/h (2 Bft) W-SW 247 0,000 mm 14,5 C 25,1 C 11,3 km/h (2 Bft) 91,30 %
09.08.2022 14:00 24,8 C 29,4 C 49 % 1024,3 hPa 0,0 l/m 6,4 km/h (2 Bft) W 270 0,000 mm 13,3 C 24,8 C 9,7 km/h (2 Bft) 95,65 %
09.08.2022 13:59 24,7 C 29,4 C 50 % 1024,3 hPa 0,0 l/m 8,0 km/h (2 Bft) W-SW 247 0,000 mm 13,6 C 24,3 C 11,3 km/h (2 Bft) 86,96 %
09.08.2022 13:58 24,7 C 28,3 C 48 % 1024,3 hPa 0,0 l/m 8,0 km/h (2 Bft) W 270 0,000 mm 12,9 C 24,3 C 12,9 km/h (3 Bft) 95,65 %
09.08.2022 13:57 24,7 C 27,8 C 48 % 1024,3 hPa 0,0 l/m 4,8 km/h (1 Bft) W 270 0,000 mm 12,9 C 24,7 C 8,0 km/h (2 Bft) 91,30 %
09.08.2022 13:56 24,7 C 27,8 C 48 % 1024,2 hPa 0,0 l/m 8,0 km/h (2 Bft) SW 225 0,000 mm 12,9 C 24,3 C 11,3 km/h (2 Bft) 91,30 %
09.08.2022 13:55 24,7 C 28,3 C 49 % 1024,3 hPa 0,0 l/m 6,4 km/h (2 Bft) SW 225 0,000 mm 13,3 C 24,7 C 14,5 km/h (3 Bft) 91,30 %
09.08.2022 13:54 24,8 C 27,8 C 48 % 1024,3 hPa 0,0 l/m 6,4 km/h (2 Bft) W 270 0,000 mm 13,0 C 24,8 C 11,3 km/h (2 Bft) 91,30 %
09.08.2022 13:53 24,8 C 28,3 C 48 % 1024,3 hPa 0,0 l/m 6,4 km/h (2 Bft) SW 225 0,000 mm 13,0 C 24,8 C 11,3 km/h (2 Bft) 91,30 %
09.08.2022 13:52 24,8 C 28,3 C 47 % 1024,3 hPa 0,0 l/m 8,0 km/h (2 Bft) W-SW 247 0,000 mm 12,7 C 24,4 C 16,1 km/h (3 Bft) 91,30 %
09.08.2022 13:51 24,9 C 28,9 C 48 % 1024,3 hPa 0,0 l/m 12,9 km/h (3 Bft) W-SW 247 0,000 mm 13,1 C 23,5 C 16,1 km/h (3 Bft) 95,65 %
09.08.2022 13:50 25,1 C 29,4 C 48 % 1024,3 hPa 0,0 l/m 8,0 km/h (2 Bft) W 270 0,000 mm 13,3 C 24,7 C 11,3 km/h (2 Bft) 82,61 %
09.08.2022 13:49 25,2 C 30,6 C 48 % 1024,3 hPa 0,0 l/m 11,3 km/h (2 Bft) W 270 0,000 mm 13,4 C 24,1 C 12,9 km/h (3 Bft) 91,30 %
09.08.2022 13:48 25,3 C 31,1 C 47 % 1024,3 hPa 0,0 l/m 6,4 km/h (2 Bft) W-SW 247 0,000 mm 13,2 C 25,3 C 11,3 km/h (2 Bft) 91,30 %
09.08.2022 13:47 25,4 C 31,7 C 48 % 1024,4 hPa 0,0 l/m 8,0 km/h (2 Bft) W 270 0,000 mm 13,6 C 25,0 C 11,3 km/h (2 Bft) 91,30 %
09.08.2022 13:46 25,4 C 32,8 C 49 % 1024,4 hPa 0,0 l/m 4,8 km/h (1 Bft) SW 225 0,000 mm 13,9 C 25,4 C 6,4 km/h (2 Bft) 91,30 %
09.08.2022 13:45 25,3 C 33,3 C 48 % 1024,3 hPa 0,0 l/m 4,8 km/h (1 Bft) W-SW 247 0,000 mm 13,5 C 25,3 C 6,4 km/h (2 Bft) 95,65 %
09.08.2022 13:44 25,3 C 34,4 C 46 % 1024,4 hPa 0,0 l/m 4,8 km/h (1 Bft) S-SW 202 0,000 mm 12,8 C 25,3 C 8,0 km/h (2 Bft) 86,96 %
09.08.2022 13:43 25,3 C 35,0 C 46 % 1024,4 hPa 0,0 l/m 1,6 km/h (1 Bft) S 180 0,000 mm 12,8 C 25,3 C 3,2 km/h (1 Bft) 91,30 %
09.08.2022 13:42 25,3 C 35,0 C 45 % 1024,5 hPa 0,0 l/m 3,2 km/h (1 Bft) S 180 0,000 mm 12,5 C 25,3 C 3,2 km/h (1 Bft) 91,30 %
09.08.2022 13:41 25,2 C 35,0 C 45 % 1024,4 hPa 0,0 l/m 3,2 km/h (1 Bft) O 90 0,000 mm 12,4 C 25,2 C 4,8 km/h (1 Bft) 95,65 %
09.08.2022 13:40 25,2 C 33,9 C 45 % 1024,3 hPa 0,0 l/m 1,6 km/h (1 Bft) W-SW 247 0,000 mm 12,4 C 25,2 C 4,8 km/h (1 Bft) 91,30 %
09.08.2022 13:39 25,0 C 33,3 C 46 % 1024,5 hPa 0,0 l/m 6,4 km/h (2 Bft) SW 225 0,000 mm 12,6 C 25,0 C 9,7 km/h (2 Bft) 91,30 %
09.08.2022 13:38 24,9 C 33,3 C 47 % 1024,4 hPa 0,0 l/m 1,6 km/h (1 Bft) SW 225 0,000 mm 12,8 C 24,9 C 4,8 km/h (1 Bft) 91,30 %
09.08.2022 13:37 24,9 C 32,8 C 46 % 1024,4 hPa 0,0 l/m 4,8 km/h (1 Bft) SW 225 0,000 mm 12,5 C 24,9 C 8,0 km/h (2 Bft) 91,30 %
09.08.2022 13:36 24,8 C 31,7 C 50 % 1024,5 hPa 0,0 l/m 6,4 km/h (2 Bft) W-SW 247 0,000 mm 13,7 C 24,8 C 9,7 km/h (2 Bft) 95,65 %
09.08.2022 13:35 24,7 C 30,6 C 52 % 1024,5 hPa 0,0 l/m 8,0 km/h (2 Bft) W 270 0,000 mm 14,2 C 24,3 C 11,3 km/h (2 Bft) 91,30 %
09.08.2022 13:34 24,6 C 28,9 C 48 % 1024,5 hPa 0,0 l/m 8,0 km/h (2 Bft) W 270 0,000 mm 12,8 C 24,2 C 11,3 km/h (2 Bft) 91,30 %
09.08.2022 13:33 24,6 C 29,4 C 52 % 1024,5 hPa 0,0 l/m 8,0 km/h (2 Bft) W 270 0,000 mm 14,1 C 24,2 C 12,9 km/h (3 Bft) 91,30 %
09.08.2022 13:32 24,6 C 30,0 C 48 % 1024,5 hPa 0,0 l/m 8,0 km/h (2 Bft) W 270 0,000 mm 12,8 C 24,2 C 11,3 km/h (2 Bft) 82,61 %
09.08.2022 13:31 24,5 C 29,4 C 47 % 1024,4 hPa 0,0 l/m 6,4 km/h (2 Bft) SW 225 0,000 mm 12,4 C 24,5 C 9,7 km/h (2 Bft) 91,30 %
09.08.2022 13:30 24,4 C 27,2 C 47 % 1024,4 hPa 0,0 l/m 4,8 km/h (1 Bft) W 270 0,000 mm 12,3 C 24,4 C 6,4 km/h (2 Bft) 95,65 %
09.08.2022 13:29 24,6 C 27,8 C 47 % 1024,4 hPa 0,0 l/m 6,4 km/h (2 Bft) W-SW 247 0,000 mm 12,5 C 24,6 C 8,0 km/h (2 Bft) 86,96 %
09.08.2022 13:28 24,7 C 28,9 C 47 % 1024,4 hPa 0,0 l/m 6,4 km/h (2 Bft) W-SW 247 0,000 mm 12,6 C 24,7 C 9,7 km/h (2 Bft) 91,30 %
09.08.2022 13:27 24,8 C 30,0 C 45 % 1024,4 hPa 0,0 l/m 6,4 km/h (2 Bft) W-SW 247 0,000 mm 12,0 C 24,8 C 8,0 km/h (2 Bft) 95,65 %
09.08.2022 13:26 25,1 C 32,2 C 46 % 1024,4 hPa 0,0 l/m 8,0 km/h (2 Bft) W 270 0,000 mm 12,7 C 24,7 C 11,3 km/h (2 Bft) 91,30 %
09.08.2022 13:25 25,1 C 32,8 C 49 % 1024,4 hPa 0,0 l/m 9,7 km/h (2 Bft) W-SW 247 0,000 mm 13,6 C 24,3 C 14,5 km/h (3 Bft) 91,30 %
09.08.2022 13:24 25,1 C 33,3 C 47 % 1024,4 hPa 0,0 l/m 9,7 km/h (2 Bft) W-SW 247 0,000 mm 13,0 C 24,3 C 14,5 km/h (3 Bft) 91,30 %
09.08.2022 13:23 25,1 C 35,0 C 51 % 1024,4 hPa 0,0 l/m 4,8 km/h (1 Bft) W-SW 247 0,000 mm 14,2 C 25,1 C 6,4 km/h (2 Bft) 86,96 %
09.08.2022 13:22 24,9 C 36,1 C 51 % 1024,5 hPa 0,0 l/m 6,4 km/h (2 Bft) S-SW 202 0,000 mm 14,1 C 24,9 C 9,7 km/h (2 Bft) 91,30 %
09.08.2022 13:21 24,7 C 35,6 C 48 % 1024,5 hPa 0,0 l/m 1,6 km/h (1 Bft) S 180 0,000 mm 12,9 C 24,7 C 4,8 km/h (1 Bft) 95,65 %
09.08.2022 13:20 24,6 C 35,6 C 48 % 1024,6 hPa 0,0 l/m 4,8 km/h (1 Bft) SW 225 0,000 mm 12,8 C 24,6 C 9,7 km/h (2 Bft) 86,96 %
09.08.2022 13:19 24,6 C 35,0 C 50 % 1024,5 hPa 0,0 l/m 3,2 km/h (1 Bft) SW 225 0,000 mm 13,5 C 24,6 C 6,4 km/h (2 Bft) 91,30 %
09.08.2022 13:18 24,5 C 33,9 C 49 % 1024,5 hPa 0,0 l/m 3,2 km/h (1 Bft) SW 225 0,000 mm 13,1 C 24,5 C 9,7 km/h (2 Bft) 95,65 %
09.08.2022 13:17 24,5 C 33,9 C 47 % 1024,6 hPa 0,0 l/m 3,2 km/h (1 Bft) S 180 0,000 mm 12,4 C 24,5 C 6,4 km/h (2 Bft) 91,30 %
09.08.2022 13:16 24,4 C 33,9 C 49 % 1024,6 hPa 0,0 l/m 6,4 km/h (2 Bft) SO 135 0,000 mm 13,0 C 24,4 C 9,7 km/h (2 Bft) 86,96 %
09.08.2022 13:15 24,4 C 33,9 C 51 % 1024,7 hPa 0,0 l/m 4,8 km/h (1 Bft) S-SO 157 0,000 mm 13,6 C 24,4 C 11,3 km/h (2 Bft) 95,65 %
09.08.2022 13:14 24,3 C 32,8 C 55 % 1024,5 hPa 0,0 l/m 4,8 km/h (1 Bft) S-SO 157 0,000 mm 14,7 C 24,3 C 9,7 km/h (2 Bft) 86,96 %
09.08.2022 13:13 24,2 C 32,2 C 52 % 1024,6 hPa 0,0 l/m 6,4 km/h (2 Bft) S-SO 157 0,000 mm 13,7 C 24,2 C 12,9 km/h (3 Bft) 91,30 %
09.08.2022 13:12 24,1 C 31,1 C 56 % 1024,6 hPa 0,0 l/m 6,4 km/h (2 Bft) S-SO 157 0,000 mm 14,8 C 24,1 C 14,5 km/h (3 Bft) 95,65 %
09.08.2022 13:11 23,8 C 29,4 C 53 % 1024,6 hPa 0,0 l/m 6,4 km/h (2 Bft) S 180 0,000 mm 13,6 C 23,8 C 9,7 km/h (2 Bft) 91,30 %
09.08.2022 13:10 23,7 C 27,2 C 53 % 1024,6 hPa 0,0 l/m 8,0 km/h (2 Bft) S-SO 157 0,000 mm 13,5 C 23,2 C 16,1 km/h (3 Bft) 91,30 %
09.08.2022 13:09 23,6 C 27,2 C 56 % 1024,6 hPa 0,0 l/m 6,4 km/h (2 Bft) S 180 0,000 mm 14,3 C 23,6 C 12,9 km/h (3 Bft) 86,96 %
09.08.2022 13:08 23,6 C 27,2 C 56 % 1024,6 hPa 0,0 l/m 3,2 km/h (1 Bft) S 180 0,000 mm 14,3 C 23,6 C 8,0 km/h (2 Bft) 95,65 %
09.08.2022 13:07 23,5 C 26,7 C 57 % 1024,6 hPa 0,0 l/m 3,2 km/h (1 Bft) S 180 0,000 mm 14,5 C 23,5 C 6,4 km/h (2 Bft) 91,30 %
09.08.2022 13:06 23,5 C 26,1 C 55 % 1024,6 hPa 0,0 l/m 3,2 km/h (1 Bft) S 180 0,000 mm 13,9 C 23,5 C 6,4 km/h (2 Bft) 91,30 %
09.08.2022 13:05 23,6 C 26,1 C 54 % 1024,6 hPa 0,0 l/m 1,6 km/h (1 Bft) S 180 0,000 mm 13,7 C 23,6 C 3,2 km/h (1 Bft) 95,65 %
09.08.2022 13:04 23,6 C 26,7 C 53 % 1024,7 hPa 0,0 l/m 3,2 km/h (1 Bft) S-SO 157 0,000 mm 13,4 C 23,6 C 9,7 km/h (2 Bft) 86,96 %
09.08.2022 13:03 23,7 C 27,2 C 54 % 1024,7 hPa 0,0 l/m 4,8 km/h (1 Bft) S-SO 157 0,000 mm 13,8 C 23,7 C 9,7 km/h (2 Bft) 91,30 %
09.08.2022 13:02 23,8 C 27,8 C 52 % 1024,7 hPa 0,0 l/m 4,8 km/h (1 Bft) S-SW 202 0,000 mm 13,3 C 23,8 C 8,0 km/h (2 Bft) 91,30 %
09.08.2022 13:01 23,9 C 27,2 C 55 % 1024,7 hPa 0,0 l/m 6,4 km/h (2 Bft) SW 225 0,000 mm 14,3 C 23,9 C 8,0 km/h (2 Bft) 95,65 %
09.08.2022 13:00 23,9 C 27,8 C 54 % 1024,7 hPa 0,0 l/m 6,4 km/h (2 Bft) SW 225 0,000 mm 14,0 C 23,9 C 9,7 km/h (2 Bft) 91,30 %
09.08.2022 12:59 23,9 C 27,8 C 53 % 1024,7 hPa 0,0 l/m 6,4 km/h (2 Bft) SW 225 0,000 mm 13,7 C 23,9 C 9,7 km/h (2 Bft) 95,65 %
09.08.2022 12:58 23,9 C 27,8 C 52 % 1024,7 hPa 0,0 l/m 8,0 km/h (2 Bft) S 180 0,000 mm 13,4 C 23,4 C 12,9 km/h (3 Bft) 91,30 %
09.08.2022 12:57 23,9 C 27,8 C 53 % 1024,8 hPa 0,0 l/m 4,8 km/h (1 Bft) W-SW 247 0,000 mm 13,7 C 23,9 C 9,7 km/h (2 Bft) 91,30 %
09.08.2022 12:56 24,0 C 27,8 C 52 % 1024,7 hPa 0,0 l/m 3,2 km/h (1 Bft) W-SW 247 0,000 mm 13,5 C 24,0 C 4,8 km/h (1 Bft) 100,00 %
09.08.2022 12:55 24,0 C 28,3 C 51 % 1024,8 hPa 0,0 l/m 4,8 km/h (1 Bft) W 270 0,000 mm 13,2 C 24,0 C 6,4 km/h (2 Bft) 91,30 %
09.08.2022 12:54 23,9 C 28,3 C 54 % 1024,7 hPa 0,0 l/m 4,8 km/h (1 Bft) W 270 0,000 mm 14,0 C 23,9 C 8,0 km/h (2 Bft) 91,30 %
09.08.2022 12:53 23,7 C 27,8 C 56 % 1024,7 hPa 0,0 l/m 4,8 km/h (1 Bft) W 270 0,000 mm 14,4 C 23,7 C 6,4 km/h (2 Bft) 100,00 %
09.08.2022 12:52 23,6 C 27,2 C 53 % 1024,8 hPa 0,0 l/m 8,0 km/h (2 Bft) W-SW 247 0,000 mm 13,4 C 23,1 C 9,7 km/h (2 Bft) 95,65 %
09.08.2022 12:51 23,6 C 27,8 C 53 % 1024,8 hPa 0,0 l/m 9,7 km/h (2 Bft) W-SW 247 0,000 mm 13,4 C 22,7 C 12,9 km/h (3 Bft) 95,65 %
09.08.2022 12:50 23,6 C 27,2 C 53 % 1024,8 hPa 0,0 l/m 9,7 km/h (2 Bft) W-SW 247 0,000 mm 13,4 C 22,7 C 12,9 km/h (3 Bft) 95,65 %
09.08.2022 12:49 23,5 C 27,2 C 56 % 1024,8 hPa 0,0 l/m 6,4 km/h (2 Bft) W-SW 247 0,000 mm 14,2 C 23,5 C 12,9 km/h (3 Bft) 91,30 %
09.08.2022 12:48 23,4 C 26,7 C 54 % 1024,8 hPa 0,0 l/m 4,8 km/h (1 Bft) W-NW 292 0,000 mm 13,6 C 23,4 C 6,4 km/h (2 Bft) 95,65 %
09.08.2022 12:47 23,4 C 26,7 C 55 % 1024,8 hPa 0,0 l/m 6,4 km/h (2 Bft) W-SW 247 0,000 mm 13,8 C 23,4 C 11,3 km/h (2 Bft) 95,65 %
09.08.2022 12:46 23,5 C 26,7 C 54 % 1024,8 hPa 0,0 l/m 3,2 km/h (1 Bft) W 270 0,000 mm 13,6 C 23,5 C 6,4 km/h (2 Bft) 91,30 %
09.08.2022 12:45 23,6 C 27,2 C 54 % 1024,8 hPa 0,0 l/m 4,8 km/h (1 Bft) W 270 0,000 mm 13,7 C 23,6 C 6,4 km/h (2 Bft) 95,65 %
09.08.2022 12:44 23,6 C 27,8 C 53 % 1024,8 hPa 0,0 l/m 1,6 km/h (1 Bft) W 270 0,000 mm 13,4 C 23,6 C 3,2 km/h (1 Bft) 100,00 %
09.08.2022 12:43 23,6 C 27,8 C 54 % 1024,8 hPa 0,0 l/m 1,6 km/h (1 Bft) W 270 0,000 mm 13,7 C 23,6 C 3,2 km/h (1 Bft) 91,30 %
09.08.2022 12:42 23,6 C 27,8 C 52 % 1024,8 hPa 0,0 l/m 1,6 km/h (1 Bft) W 270 0,000 mm 13,2 C 23,6 C 3,2 km/h (1 Bft) 95,65 %
09.08.2022 12:41 23,6 C 28,9 C 54 % 1024,7 hPa 0,0 l/m 1,6 km/h (1 Bft) NW 315 0,000 mm 13,7 C 23,6 C 4,8 km/h (1 Bft) 91,30 %
09.08.2022 12:40 23,6 C 28,3 C 51 % 1024,8 hPa 0,0 l/m 1,6 km/h (1 Bft) N-NW 337 0,000 mm 12,9 C 23,6 C 4,8 km/h (1 Bft) 95,65 %
09.08.2022 12:39 23,6 C 28,3 C 50 % 1024,8 hPa 0,0 l/m 1,6 km/h (1 Bft) N 360 0,000 mm 12,6 C 23,6 C 3,2 km/h (1 Bft) 95,65 %
09.08.2022 12:38 23,7 C 28,3 C 52 % 1024,8 hPa 0,0 l/m 3,2 km/h (1 Bft) N-NO 22 0,000 mm 13,2 C 23,7 C 3,2 km/h (1 Bft) 100,00 %
09.08.2022 12:37 23,8 C 28,3 C 52 % 1024,8 hPa 0,0 l/m 3,2 km/h (1 Bft) N 360 0,000 mm 13,3 C 23,8 C 4,8 km/h (1 Bft) 86,96 %
09.08.2022 12:36 23,8 C 29,4 C 49 % 1024,8 hPa 0,0 l/m 3,2 km/h (1 Bft) N 360 0,000 mm 12,4 C 23,8 C 4,8 km/h (1 Bft) 95,65 %
09.08.2022 12:35 23,9 C 30,6 C 50 % 1024,8 hPa 0,0 l/m 4,8 km/h (1 Bft) N 360 0,000 mm 12,8 C 23,9 C 4,8 km/h (1 Bft) 100,00 %
09.08.2022 12:34 23,9 C 31,7 C 49 % 1024,8 hPa 0,0 l/m 3,2 km/h (1 Bft) N-NW 337 0,000 mm 12,5 C 23,9 C 6,4 km/h (2 Bft) 95,65 %
09.08.2022 12:33 24,0 C 31,7 C 50 % 1024,8 hPa 0,0 l/m 1,6 km/h (1 Bft) N 360 0,000 mm 12,9 C 24,0 C 3,2 km/h (1 Bft) 91,30 %
09.08.2022 12:32 24,1 C 33,3 C 49 % 1024,7 hPa 0,0 l/m 4,8 km/h (1 Bft) N 360 0,000 mm 12,7 C 24,1 C 6,4 km/h (2 Bft) 100,00 %
09.08.2022 12:31 24,2 C 33,9 C 50 % 1024,8 hPa 0,0 l/m 6,4 km/h (2 Bft) N-NO 22 0,000 mm 13,1 C 24,2 C 9,7 km/h (2 Bft) 95,65 %
09.08.2022 12:30 24,2 C 34,4 C 47 % 1024,8 hPa 0,0 l/m 4,8 km/h (1 Bft) N-NO 22 0,000 mm 12,2 C 24,2 C 8,0 km/h (2 Bft) 95,65 %
09.08.2022 12:29 24,3 C 35,0 C 47 % 1024,8 hPa 0,0 l/m 1,6 km/h (1 Bft) N-NO 22 0,000 mm 12,3 C 24,3 C 4,8 km/h (1 Bft) 100,00 %
09.08.2022 12:28 24,6 C 36,1 C 47 % 1024,8 hPa 0,0 l/m 3,2 km/h (1 Bft) SO 135 0,000 mm 12,5 C 24,6 C 4,8 km/h (1 Bft) 95,65 %
09.08.2022 12:27 24,7 C 36,7 C 47 % 1024,9 hPa 0,0 l/m 4,8 km/h (1 Bft) SO 135 0,000 mm 12,6 C 24,7 C 8,0 km/h (2 Bft) 95,65 %
09.08.2022 12:26 24,8 C 36,7 C 53 % 1024,9 hPa 0,0 l/m 3,2 km/h (1 Bft) O-SO 112 0,000 mm 14,6 C 24,8 C 4,8 km/h (1 Bft) 95,65 %
09.08.2022 12:25 24,8 C 36,7 C 53 % 1024,8 hPa 0,0 l/m 3,2 km/h (1 Bft) N-NO 22 0,000 mm 14,6 C 24,8 C 4,8 km/h (1 Bft) 95,65 %
09.08.2022 12:24 24,5 C 35,6 C 53 % 1024,8 hPa 0,0 l/m 1,6 km/h (1 Bft) O-NO 67 0,000 mm 14,3 C 24,5 C 3,2 km/h (1 Bft) 95,65 %
09.08.2022 12:23 24,2 C 35,6 C 53 % 1024,8 hPa 0,0 l/m 3,2 km/h (1 Bft) N 360 0,000 mm 14,0 C 24,2 C 4,8 km/h (1 Bft) 82,61 %
09.08.2022 12:22 23,9 C 34,4 C 53 % 1024,8 hPa 0,0 l/m 3,2 km/h (1 Bft) N-NO 22 0,000 mm 13,7 C 23,9 C 3,2 km/h (1 Bft) 91,30 %
09.08.2022 12:21 23,6 C 33,3 C 55 % 1024,8 hPa 0,0 l/m 3,2 km/h (1 Bft) N 360 0,000 mm 14,0 C 23,6 C 4,8 km/h (1 Bft) 95,65 %
09.08.2022 12:20 23,3 C 32,8 C 53 % 1024,8 hPa 0,0 l/m 4,8 km/h (1 Bft) N 360 0,000 mm 13,2 C 23,3 C 6,4 km/h (2 Bft) 91,30 %
09.08.2022 12:19 23,2 C 31,7 C 53 % 1024,8 hPa 0,0 l/m 3,2 km/h (1 Bft) N-NO 22 0,000 mm 13,1 C 23,2 C 4,8 km/h (1 Bft) 95,65 %
09.08.2022 12:18 23,1 C 30,6 C 54 % 1024,9 hPa 0,0 l/m 3,2 km/h (1 Bft) N 360 0,000 mm 13,3 C 23,1 C 3,2 km/h (1 Bft) 91,30 %
09.08.2022 12:17 23,1 C 30,6 C 51 % 1024,8 hPa 0,0 l/m 3,2 km/h (1 Bft) N-NO 22 0,000 mm 12,4 C 23,1 C 4,8 km/h (1 Bft) 95,65 %
09.08.2022 12:16 23,2 C 29,4 C 50 % 1024,8 hPa 0,0 l/m 3,2 km/h (1 Bft) N-NO 22 0,000 mm 12,2 C 23,2 C 4,8 km/h (1 Bft) 100,00 %
09.08.2022 12:15 23,3 C 28,3 C 51 % 1024,8 hPa 0,0 l/m 4,8 km/h (1 Bft) N-NW 337 0,000 mm 12,6 C 23,3 C 6,4 km/h (2 Bft) 95,65 %
09.08.2022 12:14 23,4 C 28,9 C 52 % 1024,8 hPa 0,0 l/m 1,6 km/h (1 Bft) SW 225 0,000 mm 13,0 C 23,4 C 3,2 km/h (1 Bft) 91,30 %
09.08.2022 12:13 23,5 C 31,7 C 51 % 1024,9 hPa 0,0 l/m 1,6 km/h (1 Bft) SW 225 0,000 mm 12,8 C 23,5 C 6,4 km/h (2 Bft) 95,65 %
09.08.2022 12:12 23,6 C 31,7 C 54 % 1024,8 hPa 0,0 l/m 6,4 km/h (2 Bft) W-SW 247 0,000 mm 13,7 C 23,6 C 11,3 km/h (2 Bft) 95,65 %
09.08.2022 12:11 23,3 C 31,7 C 54 % 1024,9 hPa 0,0 l/m 3,2 km/h (1 Bft) S 180 0,000 mm 13,5 C 23,3 C 6,4 km/h (2 Bft) 95,65 %
09.08.2022 12:10 23,2 C 32,2 C 55 % 1024,8 hPa 0,0 l/m 4,8 km/h (1 Bft) S-SW 202 0,000 mm 13,6 C 23,2 C 6,4 km/h (2 Bft) 100,00 %
09.08.2022 12:09 23,1 C 31,1 C 54 % 1024,9 hPa 0,0 l/m 3,2 km/h (1 Bft) SW 225 0,000 mm 13,3 C 23,1 C 6,4 km/h (2 Bft) 91,30 %
09.08.2022 12:08 23,0 C 30,6 C 53 % 1024,9 hPa 0,0 l/m 4,8 km/h (1 Bft) W-SW 247 0,000 mm 12,9 C 23,0 C 6,4 km/h (2 Bft) 95,65 %
09.08.2022 12:07 22,9 C 30,0 C 55 % 1025,0 hPa 0,0 l/m 4,8 km/h (1 Bft) W-SW 247 0,000 mm 13,4 C 22,9 C 8,0 km/h (2 Bft) 95,65 %
09.08.2022 12:06 22,7 C 28,3 C 55 % 1024,9 hPa 0,0 l/m 6,4 km/h (2 Bft) SW 225 0,000 mm 13,2 C 22,7 C 11,3 km/h (2 Bft) 95,65 %
09.08.2022 12:05 22,7 C 26,1 C 55 % 1025,0 hPa 0,0 l/m 3,2 km/h (1 Bft) W-SW 247 0,000 mm 13,2 C 22,7 C 9,7 km/h (2 Bft) 91,30 %
09.08.2022 12:04 22,7 C 25,6 C 53 % 1025,0 hPa 0,0 l/m 3,2 km/h (1 Bft) W-SW 247 0,000 mm 12,6 C 22,7 C 4,8 km/h (1 Bft) 95,65 %
09.08.2022 12:03 22,8 C 26,1 C 54 % 1024,9 hPa 0,0 l/m 4,8 km/h (1 Bft) W-SW 247 0,000 mm 13,0 C 22,8 C 6,4 km/h (2 Bft) 95,65 %
09.08.2022 12:02 23,0 C 27,2 C 55 % 1025,0 hPa 0,0 l/m 4,8 km/h (1 Bft) W 270 0,000 mm 13,5 C 23,0 C 9,7 km/h (2 Bft) 91,30 %
09.08.2022 12:01 23,2 C 28,3 C 55 % 1025,0 hPa 0,0 l/m 6,4 km/h (2 Bft) W 270 0,000 mm 13,6 C 23,2 C 9,7 km/h (2 Bft) 95,65 %
09.08.2022 12:00 23,3 C 30,0 C 54 % 1025,0 hPa 0,0 l/m 3,2 km/h (1 Bft) W-NW 292 0,000 mm 13,5 C 23,3 C 4,8 km/h (1 Bft) 91,30 %
09.08.2022 11:59 23,4 C 30,6 C 54 % 1025,1 hPa 0,0 l/m 4,8 km/h (1 Bft) W 270 0,000 mm 13,6 C 23,4 C 9,7 km/h (2 Bft) 95,65 %
09.08.2022 11:58 23,6 C 32,2 C 53 % 1025,1 hPa 0,0 l/m 3,2 km/h (1 Bft) S-SW 202 0,000 mm 13,4 C 23,6 C 3,2 km/h (1 Bft) 95,65 %
09.08.2022 11:57 23,7 C 33,9 C 53 % 1025,1 hPa 0,0 l/m 3,2 km/h (1 Bft) S-SW 202 0,000 mm 13,5 C 23,7 C 3,2 km/h (1 Bft) 95,65 %
09.08.2022 11:56 23,7 C 33,9 C 57 % 1025,1 hPa 0,0 l/m 4,8 km/h (1 Bft) SW 225 0,000 mm 14,7 C 23,7 C 6,4 km/h (2 Bft) 91,30 %
09.08.2022 11:55 23,7 C 35,0 C 57 % 1025,1 hPa 0,0 l/m 4,8 km/h (1 Bft) SW 225 0,000 mm 14,7 C 23,7 C 6,4 km/h (2 Bft) 100,00 %
09.08.2022 11:54 23,4 C 33,3 C 58 % 1025,1 hPa 0,0 l/m 4,8 km/h (1 Bft) W 270 0,000 mm 14,7 C 23,4 C 8,0 km/h (2 Bft) 95,65 %
09.08.2022 11:53 23,1 C 33,3 C 58 % 1025,1 hPa 0,0 l/m 6,4 km/h (2 Bft) W-SW 247 0,000 mm 14,4 C 23,1 C 9,7 km/h (2 Bft) 91,30 %
09.08.2022 11:52 22,8 C 30,6 C 56 % 1025,2 hPa 0,0 l/m 4,8 km/h (1 Bft) W-SW 247 0,000 mm 13,6 C 22,8 C 6,4 km/h (2 Bft) 95,65 %
09.08.2022 11:51 22,7 C 30,6 C 56 % 1025,1 hPa 0,0 l/m 4,8 km/h (1 Bft) W 270 0,000 mm 13,5 C 22,7 C 8,0 km/h (2 Bft) 95,65 %
09.08.2022 11:50 22,6 C 28,9 C 55 % 1025,1 hPa 0,0 l/m 6,4 km/h (2 Bft) W 270 0,000 mm 13,1 C 22,6 C 9,7 km/h (2 Bft) 95,65 %
09.08.2022 11:49 22,6 C 27,2 C 55 % 1025,2 hPa 0,0 l/m 3,2 km/h (1 Bft) O-SO 112 0,000 mm 13,1 C 22,6 C 4,8 km/h (1 Bft) 100,00 %
09.08.2022 11:48 22,7 C 27,8 C 55 % 1025,2 hPa 0,0 l/m 3,2 km/h (1 Bft) S-SO 157 0,000 mm 13,2 C 22,7 C 8,0 km/h (2 Bft) 95,65 %
09.08.2022 11:47 22,8 C 28,9 C 55 % 1025,2 hPa 0,0 l/m 8,0 km/h (2 Bft) S-SO 157 0,000 mm 13,3 C 22,3 C 11,3 km/h (2 Bft) 91,30 %
09.08.2022 11:46 22,9 C 29,4 C 55 % 1025,2 hPa 0,0 l/m 6,4 km/h (2 Bft) S 180 0,000 mm 13,4 C 22,9 C 9,7 km/h (2 Bft) 100,00 %
09.08.2022 11:45 22,9 C 30,0 C 57 % 1025,2 hPa 0,0 l/m 3,2 km/h (1 Bft) S 180 0,000 mm 13,9 C 22,9 C 6,4 km/h (2 Bft) 95,65 %
09.08.2022 11:44 22,8 C 30,0 C 58 % 1025,1 hPa 0,0 l/m 3,2 km/h (1 Bft) S-SW 202 0,000 mm 14,1 C 22,8 C 4,8 km/h (1 Bft) 95,65 %
09.08.2022 11:43 22,6 C 28,3 C 58 % 1025,2 hPa 0,0 l/m 4,8 km/h (1 Bft) S 180 0,000 mm 13,9 C 22,6 C 8,0 km/h (2 Bft) 100,00 %
09.08.2022 11:42 22,3 C 26,7 C 59 % 1025,2 hPa 0,0 l/m 1,6 km/h (1 Bft) S 180 0,000 mm 13,9 C 22,3 C 6,4 km/h (2 Bft) 95,65 %
09.08.2022 11:41 22,4 C 26,7 C 58 % 1025,2 hPa 0,0 l/m 3,2 km/h (1 Bft) S-SW 202 0,000 mm 13,7 C 22,4 C 6,4 km/h (2 Bft) 91,30 %
09.08.2022 11:40 22,4 C 27,2 C 58 % 1025,2 hPa 0,0 l/m 3,2 km/h (1 Bft) S-SW 202 0,000 mm 13,7 C 22,4 C 6,4 km/h (2 Bft) 100,00 %
09.08.2022 11:39 22,4 C 27,2 C 58 % 1025,2 hPa 0,0 l/m 3,2 km/h (1 Bft) W-SW 247 0,000 mm 13,7 C 22,4 C 6,4 km/h (2 Bft) 95,65 %
09.08.2022 11:38 22,3 C 26,7 C 57 % 1025,3 hPa 0,0 l/m 3,2 km/h (1 Bft) W 270 0,000 mm 13,4 C 22,3 C 4,8 km/h (1 Bft) 95,65 %
09.08.2022 11:37 22,3 C 26,1 C 58 % 1025,2 hPa 0,0 l/m 4,8 km/h (1 Bft) W-SW 247 0,000 mm 13,6 C 22,3 C 8,0 km/h (2 Bft) 100,00 %
09.08.2022 11:36 22,3 C 26,1 C 57 % 1025,2 hPa 0,0 l/m 6,4 km/h (2 Bft) W-SW 247 0,000 mm 13,4 C 22,3 C 12,9 km/h (3 Bft) 95,65 %
09.08.2022 11:35 22,3 C 26,1 C 56 % 1025,2 hPa 0,0 l/m 3,2 km/h (1 Bft) W-SW 247 0,000 mm 13,1 C 22,3 C 4,8 km/h (1 Bft) 91,30 %
09.08.2022 11:34 22,3 C 26,1 C 56 % 1025,2 hPa 0,0 l/m 1,6 km/h (1 Bft) W-SW 247 0,000 mm 13,1 C 22,3 C 3,2 km/h (1 Bft) 91,30 %
09.08.2022 11:33 22,3 C 26,1 C 56 % 1025,2 hPa 0,0 l/m 1,6 km/h (1 Bft) NW 315 0,000 mm 13,1 C 22,3 C 4,8 km/h (1 Bft) 100,00 %
09.08.2022 11:32 22,3 C 26,1 C 55 % 1025,1 hPa 0,0 l/m 3,2 km/h (1 Bft) W-NW 292 0,000 mm 12,8 C 22,3 C 6,4 km/h (2 Bft) 91,30 %
09.08.2022 11:31 22,3 C 26,1 C 56 % 1025,1 hPa 0,0 l/m 4,8 km/h (1 Bft) W-SW 247 0,000 mm 13,1 C 22,3 C 6,4 km/h (2 Bft) 95,65 %
09.08.2022 11:30 22,3 C 26,7 C 57 % 1025,2 hPa 0,0 l/m 4,8 km/h (1 Bft) SW 225 0,000 mm 13,4 C 22,3 C 6,4 km/h (2 Bft) 100,00 %
09.08.2022 11:29 22,3 C 26,7 C 54 % 1025,2 hPa 0,0 l/m 4,8 km/h (1 Bft) W-NW 292 0,000 mm 12,5 C 22,3 C 6,4 km/h (2 Bft) 91,30 %
09.08.2022 11:28 22,3 C 27,2 C 53 % 1025,2 hPa 0,0 l/m 4,8 km/h (1 Bft) W 270 0,000 mm 12,2 C 22,3 C 6,4 km/h (2 Bft) 91,30 %
09.08.2022 11:27 22,3 C 27,2 C 54 % 1025,2 hPa 0,0 l/m 6,4 km/h (2 Bft) W-SW 247 0,000 mm 12,5 C 22,3 C 9,7 km/h (2 Bft) 100,00 %
09.08.2022 11:26 22,4 C 26,7 C 54 % 1025,2 hPa 0,0 l/m 3,2 km/h (1 Bft) W-NW 292 0,000 mm 12,6 C 22,4 C 6,4 km/h (2 Bft) 86,96 %
09.08.2022 11:25 22,4 C 27,2 C 54 % 1025,2 hPa 0,0 l/m 6,4 km/h (2 Bft) S-SW 202 0,000 mm 12,6 C 22,4 C 8,0 km/h (2 Bft) 95,65 %
09.08.2022 11:24 22,4 C 27,8 C 55 % 1025,1 hPa 0,0 l/m 6,4 km/h (2 Bft) S-SW 202 0,000 mm 12,9 C 22,4 C 11,3 km/h (2 Bft) 100,00 %
09.08.2022 11:23 22,6 C 28,9 C 52 % 1025,1 hPa 0,0 l/m 6,4 km/h (2 Bft) S 180 0,000 mm 12,2 C 22,6 C 11,3 km/h (2 Bft) 95,65 %
09.08.2022 11:22 22,7 C 30,0 C 52 % 1025,2 hPa 0,0 l/m 4,8 km/h (1 Bft) S-SW 202 0,000 mm 12,3 C 22,7 C 9,7 km/h (2 Bft) 95,65 %
09.08.2022 11:21 22,8 C 31,7 C 53 % 1025,1 hPa 0,0 l/m 6,4 km/h (2 Bft) S-SW 202 0,000 mm 12,7 C 22,8 C 11,3 km/h (2 Bft) 100,00 %
09.08.2022 11:20 22,6 C 31,1 C 57 % 1025,2 hPa 0,0 l/m 3,2 km/h (1 Bft) W-SW 247 0,000 mm 13,6 C 22,6 C 6,4 km/h (2 Bft) 95,65 %
09.08.2022 11:19 22,6 C 31,7 C 53 % 1025,1 hPa 0,0 l/m 6,4 km/h (2 Bft) W-SW 247 0,000 mm 12,5 C 22,6 C 9,7 km/h (2 Bft) 95,65 %
09.08.2022 11:18 22,6 C 32,2 C 53 % 1025,2 hPa 0,0 l/m 6,4 km/h (2 Bft) S-SW 202 0,000 mm 12,5 C 22,6 C 11,3 km/h (2 Bft) 100,00 %
09.08.2022 11:17 22,4 C 31,7 C 54 % 1025,2 hPa 0,0 l/m 4,8 km/h (1 Bft) SW 225 0,000 mm 12,6 C 22,4 C 8,0 km/h (2 Bft) 91,30 %
09.08.2022 11:16 22,4 C 31,1 C 55 % 1025,2 hPa 0,0 l/m 6,4 km/h (2 Bft) W-SW 247 0,000 mm 12,9 C 22,4 C 9,7 km/h (2 Bft) 95,65 %
09.08.2022 11:15 22,4 C 30,0 C 55 % 1025,3 hPa 0,0 l/m 4,8 km/h (1 Bft) S-SW 202 0,000 mm 12,9 C 22,4 C 11,3 km/h (2 Bft) 100,00 %
09.08.2022 11:14 22,4 C 30,0 C 55 % 1025,2 hPa 0,0 l/m 6,4 km/h (2 Bft) S-SW 202 0,000 mm 12,9 C 22,4 C 11,3 km/h (2 Bft) 95,65 %
09.08.2022 11:13 22,4 C 30,6 C 55 % 1025,2 hPa 0,0 l/m 6,4 km/h (2 Bft) SW 225 0,000 mm 12,9 C 22,4 C 11,3 km/h (2 Bft) 95,65 %
09.08.2022 11:12 22,4 C 30,6 C 58 % 1025,2 hPa 0,0 l/m 3,2 km/h (1 Bft) S-SW 202 0,000 mm 13,7 C 22,4 C 4,8 km/h (1 Bft) 100,00 %
09.08.2022 11:11 22,3 C 30,6 C 56 % 1025,3 hPa 0,0 l/m 4,8 km/h (1 Bft) SW 225 0,000 mm 13,1 C 22,3 C 6,4 km/h (2 Bft) 95,65 %
09.08.2022 11:10 22,2 C 30,6 C 57 % 1025,3 hPa 0,0 l/m 4,8 km/h (1 Bft) S-SW 202 0,000 mm 13,3 C 22,2 C 8,0 km/h (2 Bft) 95,65 %
09.08.2022 11:09 22,2 C 29,4 C 58 % 1025,3 hPa 0,0 l/m 6,4 km/h (2 Bft) SW 225 0,000 mm 13,5 C 22,2 C 9,7 km/h (2 Bft) 100,00 %
09.08.2022 11:08 22,1 C 28,9 C 57 % 1025,3 hPa 0,0 l/m 8,0 km/h (2 Bft) S-SW 202 0,000 mm 13,2 C 21,6 C 11,3 km/h (2 Bft) 95,65 %
09.08.2022 11:07 21,9 C 28,9 C 57 % 1025,3 hPa 0,0 l/m 4,8 km/h (1 Bft) S 180 0,000 mm 13,0 C 21,9 C 8,0 km/h (2 Bft) 95,65 %
09.08.2022 11:06 21,7 C 28,9 C 58 % 1025,3 hPa 0,0 l/m 6,4 km/h (2 Bft) W-SW 247 0,000 mm 13,1 C 21,7 C 8,0 km/h (2 Bft) 100,00 %
09.08.2022 11:05 21,6 C 27,2 C 58 % 1025,3 hPa 0,0 l/m 4,8 km/h (1 Bft) W 270 0,000 mm 13,0 C 21,6 C 6,4 km/h (2 Bft) 91,30 %
09.08.2022 11:04 21,4 C 25,6 C 56 % 1025,4 hPa 0,0 l/m 3,2 km/h (1 Bft) W 270 0,000 mm 12,3 C 21,4 C 4,8 km/h (1 Bft) 95,65 %
09.08.2022 11:03 21,4 C 25,0 C 55 % 1025,3 hPa 0,0 l/m 4,8 km/h (1 Bft) W-SW 247 0,000 mm 12,0 C 21,4 C 6,4 km/h (2 Bft) 95,65 %
09.08.2022 11:02 21,5 C 25,6 C 55 % 1025,3 hPa 0,0 l/m 3,2 km/h (1 Bft) W 270 0,000 mm 12,1 C 21,5 C 4,8 km/h (1 Bft) 95,65 %
09.08.2022 11:01 21,6 C 26,1 C 56 % 1025,3 hPa 0,0 l/m 4,8 km/h (1 Bft) W 270 0,000 mm 12,4 C 21,6 C 4,8 km/h (1 Bft) 95,65 %
09.08.2022 11:00 21,5 C 26,7 C 57 % 1025,4 hPa 0,0 l/m 4,8 km/h (1 Bft) SW 225 0,000 mm 12,6 C 21,5 C 6,4 km/h (2 Bft) 100,00 %
09.08.2022 10:59 21,6 C 26,7 C 55 % 1025,4 hPa 0,0 l/m 3,2 km/h (1 Bft) SW 225 0,000 mm 12,2 C 21,6 C 4,8 km/h (1 Bft) 95,65 %
09.08.2022 10:58 21,6 C 26,7 C 56 % 1025,3 hPa 0,0 l/m 4,8 km/h (1 Bft) SW 225 0,000 mm 12,4 C 21,6 C 6,4 km/h (2 Bft) 95,65 %
09.08.2022 10:57 21,6 C 27,2 C 55 % 1025,3 hPa 0,0 l/m 3,2 km/h (1 Bft) W 270 0,000 mm 12,2 C 21,6 C 4,8 km/h (1 Bft) 100,00 %
09.08.2022 10:56 21,7 C 27,2 C 56 % 1025,4 hPa 0,0 l/m 4,8 km/h (1 Bft) W-NW 292 0,000 mm 12,5 C 21,7 C 6,4 km/h (2 Bft) 95,65 %
09.08.2022 10:55 21,7 C 27,2 C 54 % 1025,4 hPa 0,0 l/m 6,4 km/h (2 Bft) W 270 0,000 mm 12,0 C 21,7 C 9,7 km/h (2 Bft) 95,65 %
09.08.2022 10:54 21,8 C 28,3 C 55 % 1025,4 hPa 0,0 l/m 4,8 km/h (1 Bft) W-SW 247 0,000 mm 12,4 C 21,8 C 8,0 km/h (2 Bft) 100,00 %
09.08.2022 10:53 21,9 C 30,0 C 51 % 1025,4 hPa 0,0 l/m 4,8 km/h (1 Bft) W-SW 247 0,000 mm 11,3 C 21,9 C 9,7 km/h (2 Bft) 95,65 %
09.08.2022 10:52 22,1 C 32,2 C 54 % 1025,4 hPa 0,0 l/m 4,8 km/h (1 Bft) W 270 0,000 mm 12,3 C 22,1 C 8,0 km/h (2 Bft) 95,65 %
09.08.2022 10:51 22,3 C 32,2 C 55 % 1025,3 hPa 0,0 l/m 4,8 km/h (1 Bft) SW 225 0,000 mm 12,8 C 22,3 C 8,0 km/h (2 Bft) 100,00 %
09.08.2022 10:50 22,2 C 33,3 C 55 % 1025,3 hPa 0,0 l/m 4,8 km/h (1 Bft) SW 225 0,000 mm 12,7 C 22,2 C 9,7 km/h (2 Bft) 95,65 %
09.08.2022 10:49 22,0 C 31,7 C 59 % 1025,3 hPa 0,0 l/m 8,0 km/h (2 Bft) W 270 0,000 mm 13,6 C 21,5 C 11,3 km/h (2 Bft) 95,65 %
09.08.2022 10:48 21,9 C 31,7 C 58 % 1025,4 hPa 0,0 l/m 6,4 km/h (2 Bft) W-SW 247 0,000 mm 13,3 C 21,9 C 9,7 km/h (2 Bft) 100,00 %
09.08.2022 10:47 21,9 C 31,7 C 57 % 1025,4 hPa 0,0 l/m 4,8 km/h (1 Bft) W 270 0,000 mm 13,0 C 21,9 C 9,7 km/h (2 Bft) 95,65 %
09.08.2022 10:46 22,0 C 31,1 C 57 % 1025,4 hPa 0,0 l/m 3,2 km/h (1 Bft) S-SW 202 0,000 mm 13,1 C 22,0 C 6,4 km/h (2 Bft) 95,65 %
09.08.2022 10:45 22,1 C 31,1 C 58 % 1025,4 hPa 0,0 l/m 4,8 km/h (1 Bft) SW 225 0,000 mm 13,4 C 22,1 C 9,7 km/h (2 Bft) 95,65 %
09.08.2022 10:44 22,2 C 32,2 C 57 % 1025,4 hPa 0,0 l/m 4,8 km/h (1 Bft) S-SW 202 0,000 mm 13,3 C 22,2 C 8,0 km/h (2 Bft) 100,00 %
09.08.2022 10:43 22,2 C 32,2 C 56 % 1025,4 hPa 0,0 l/m 4,8 km/h (1 Bft) SW 225 0,000 mm 13,0 C 22,2 C 6,4 km/h (2 Bft) 86,96 %
09.08.2022 10:42 22,1 C 32,2 C 56 % 1025,5 hPa 0,0 l/m 4,8 km/h (1 Bft) S-SW 202 0,000 mm 12,9 C 22,1 C 8,0 km/h (2 Bft) 95,65 %
09.08.2022 10:41 21,9 C 32,2 C 58 % 1025,4 hPa 0,0 l/m 4,8 km/h (1 Bft) S-SW 202 0,000 mm 13,3 C 21,9 C 9,7 km/h (2 Bft) 100,00 %
09.08.2022 10:40 21,9 C 31,1 C 58 % 1025,4 hPa 0,0 l/m 4,8 km/h (1 Bft) S-SW 202 0,000 mm 13,3 C 21,9 C 8,0 km/h (2 Bft) 95,65 %
09.08.2022 10:39 21,8 C 31,1 C 58 % 1025,4 hPa 0,0 l/m 6,4 km/h (2 Bft) SW 225 0,000 mm 13,2 C 21,8 C 8,0 km/h (2 Bft) 95,65 %
09.08.2022 10:38 21,8 C 30,0 C 59 % 1025,3 hPa 0,0 l/m 3,2 km/h (1 Bft) W 270 0,000 mm 13,4 C 21,8 C 6,4 km/h (2 Bft) 100,00 %
09.08.2022 10:37 21,8 C 29,4 C 58 % 1025,4 hPa 0,0 l/m 3,2 km/h (1 Bft) S 180 0,000 mm 13,2 C 21,8 C 4,8 km/h (1 Bft) 91,30 %
09.08.2022 10:36 21,8 C 30,6 C 57 % 1025,4 hPa 0,0 l/m 3,2 km/h (1 Bft) S-SW 202 0,000 mm 12,9 C 21,8 C 8,0 km/h (2 Bft) 95,65 %
09.08.2022 10:35 21,8 C 30,6 C 61 % 1025,4 hPa 0,0 l/m 6,4 km/h (2 Bft) W-SW 247 0,000 mm 13,9 C 21,8 C 11,3 km/h (2 Bft) 100,00 %
09.08.2022 10:34 21,6 C 30,6 C 58 % 1025,4 hPa 0,0 l/m 6,4 km/h (2 Bft) W 270 0,000 mm 13,0 C 21,6 C 12,9 km/h (3 Bft) 91,30 %
09.08.2022 10:33 21,6 C 30,0 C 59 % 1025,4 hPa 0,0 l/m 9,7 km/h (2 Bft) W-SW 247 0,000 mm 13,2 C 20,5 C 11,3 km/h (2 Bft) 95,65 %
09.08.2022 10:32 21,5 C 30,0 C 58 % 1025,4 hPa 0,0 l/m 4,8 km/h (1 Bft) S 180 0,000 mm 12,9 C 21,5 C 9,7 km/h (2 Bft) 100,00 %
09.08.2022 10:31 21,4 C 30,6 C 58 % 1025,5 hPa 0,0 l/m 6,4 km/h (2 Bft) S-SW 202 0,000 mm 12,8 C 21,4 C 8,0 km/h (2 Bft) 95,65 %
09.08.2022 10:30 21,3 C 29,4 C 60 % 1025,4 hPa 0,0 l/m 4,8 km/h (1 Bft) S-SW 202 0,000 mm 13,2 C 21,3 C 8,0 km/h (2 Bft) 95,65 %
09.08.2022 10:29 21,3 C 28,9 C 59 % 1025,4 hPa 0,0 l/m 3,2 km/h (1 Bft) W-SW 247 0,000 mm 13,0 C 21,3 C 4,8 km/h (1 Bft) 100,00 %
09.08.2022 10:28 21,3 C 28,9 C 60 % 1025,4 hPa 0,0 l/m 3,2 km/h (1 Bft) W-SW 247 0,000 mm 13,2 C 21,3 C 4,8 km/h (1 Bft) 95,65 %
09.08.2022 10:27 21,3 C 30,0 C 60 % 1025,4 hPa 0,0 l/m 4,8 km/h (1 Bft) W-SW 247 0,000 mm 13,2 C 21,3 C 11,3 km/h (2 Bft) 95,65 %
09.08.2022 10:26 21,4 C 30,0 C 57 % 1025,4 hPa 0,0 l/m 1,6 km/h (1 Bft) S 180 0,000 mm 12,5 C 21,4 C 6,4 km/h (2 Bft) 91,30 %
09.08.2022 10:25 21,4 C 30,0 C 61 % 1025,4 hPa 0,0 l/m 4,8 km/h (1 Bft) S 180 0,000 mm 13,6 C 21,4 C 8,0 km/h (2 Bft) 95,65 %
09.08.2022 10:24 21,5 C 31,1 C 61 % 1025,4 hPa 0,0 l/m 6,4 km/h (2 Bft) S-SO 157 0,000 mm 13,7 C 21,5 C 9,7 km/h (2 Bft) 95,65 %
09.08.2022 10:23 21,4 C 31,1 C 63 % 1025,4 hPa 0,0 l/m 6,4 km/h (2 Bft) S 180 0,000 mm 14,1 C 21,4 C 9,7 km/h (2 Bft) 95,65 %
09.08.2022 10:22 21,3 C 30,6 C 61 % 1025,4 hPa 0,0 l/m 6,4 km/h (2 Bft) S 180 0,000 mm 13,5 C 21,3 C 9,7 km/h (2 Bft) 95,65 %
09.08.2022 10:21 21,2 C 30,0 C 64 % 1025,4 hPa 0,0 l/m 6,4 km/h (2 Bft) S 180 0,000 mm 14,1 C 21,2 C 9,7 km/h (2 Bft) 95,65 %
09.08.2022 10:20 21,1 C 29,4 C 62 % 1025,4 hPa 0,0 l/m 3,2 km/h (1 Bft) S-SW 202 0,000 mm 13,5 C 21,1 C 6,4 km/h (2 Bft) 100,00 %
09.08.2022 10:19 21,0 C 29,4 C 61 % 1025,4 hPa 0,0 l/m 6,4 km/h (2 Bft) S-SO 157 0,000 mm 13,2 C 21,0 C 11,3 km/h (2 Bft) 95,65 %
09.08.2022 10:18 20,9 C 30,0 C 61 % 1025,4 hPa 0,0 l/m 8,0 km/h (2 Bft) S-SW 202 0,000 mm 13,1 C 20,3 C 12,9 km/h (3 Bft) 95,65 %
09.08.2022 10:17 21,0 C 30,0 C 61 % 1025,4 hPa 0,0 l/m 6,4 km/h (2 Bft) S-SW 202 0,000 mm 13,2 C 21,0 C 14,5 km/h (3 Bft) 95,65 %
09.08.2022 10:16 21,0 C 30,6 C 63 % 1025,4 hPa 0,0 l/m 4,8 km/h (1 Bft) W 270 0,000 mm 13,7 C 21,0 C 9,7 km/h (2 Bft) 91,30 %
09.08.2022 10:15 20,8 C 30,0 C 66 % 1025,4 hPa 0,0 l/m 4,8 km/h (1 Bft) S-SW 202 0,000 mm 14,2 C 20,8 C 9,7 km/h (2 Bft) 95,65 %
09.08.2022 10:14 20,9 C 30,0 C 69 % 1025,4 hPa 0,0 l/m 4,8 km/h (1 Bft) S 180 0,000 mm 15,0 C 20,9 C 9,7 km/h (2 Bft) 95,65 %
09.08.2022 10:13 20,9 C 29,4 C 69 % 1025,4 hPa 0,0 l/m 6,4 km/h (2 Bft) S-SW 202 0,000 mm 15,0 C 20,9 C 12,9 km/h (3 Bft) 91,30 %
09.08.2022 10:12 20,8 C 28,3 C 67 % 1025,4 hPa 0,0 l/m 3,2 km/h (1 Bft) S 180 0,000 mm 14,4 C 20,8 C 6,4 km/h (2 Bft) 95,65 %
09.08.2022 10:11 20,7 C 28,3 C 65 % 1025,4 hPa 0,0 l/m 4,8 km/h (1 Bft) S-SO 157 0,000 mm 13,9 C 20,7 C 8,0 km/h (2 Bft) 100,00 %
09.08.2022 10:10 20,7 C 28,9 C 67 % 1025,4 hPa 0,0 l/m 4,8 km/h (1 Bft) S-SW 202 0,000 mm 14,3 C 20,7 C 9,7 km/h (2 Bft) 86,96 %
09.08.2022 10:09 20,6 C 28,9 C 67 % 1025,4 hPa 0,0 l/m 8,0 km/h (2 Bft) S 180 0,000 mm 14,3 C 20,0 C 12,9 km/h (3 Bft) 91,30 %
09.08.2022 10:08 20,5 C 29,4 C 68 % 1025,4 hPa 0,0 l/m 4,8 km/h (1 Bft) SO 135 0,000 mm 14,4 C 20,5 C 8,0 km/h (2 Bft) 100,00 %
09.08.2022 10:07 20,3 C 28,3 C 69 % 1025,4 hPa 0,0 l/m 4,8 km/h (1 Bft) SW 225 0,000 mm 14,4 C 20,3 C 9,7 km/h (2 Bft) 91,30 %
09.08.2022 10:06 20,2 C 28,3 C 70 % 1025,4 hPa 0,0 l/m 4,8 km/h (1 Bft) SW 225 0,000 mm 14,5 C 20,2 C 9,7 km/h (2 Bft) 91,30 %
09.08.2022 10:05 20,1 C 28,3 C 69 % 1025,5 hPa 0,0 l/m 6,4 km/h (2 Bft) W-SW 247 0,000 mm 14,2 C 20,1 C 11,3 km/h (2 Bft) 100,00 %
09.08.2022 10:04 20,1 C 28,3 C 69 % 1025,5 hPa 0,0 l/m 1,6 km/h (1 Bft) SW 225 0,000 mm 14,2 C 20,1 C 6,4 km/h (2 Bft) 95,65 %
09.08.2022 10:03 20,2 C 27,8 C 70 % 1025,5 hPa 0,0 l/m 4,8 km/h (1 Bft) SW 225 0,000 mm 14,5 C 20,2 C 8,0 km/h (2 Bft) 91,30 %
09.08.2022 10:02 20,1 C 27,8 C 73 % 1025,5 hPa 0,0 l/m 3,2 km/h (1 Bft) S 180 0,000 mm 15,1 C 20,1 C 4,8 km/h (1 Bft) 91,30 %
09.08.2022 10:01 19,9 C 27,8 C 73 % 1025,4 hPa 0,0 l/m 4,8 km/h (1 Bft) S-SO 157 0,000 mm 14,9 C 19,9 C 9,7 km/h (2 Bft) 95,65 %
09.08.2022 10:00 19,8 C 27,8 C 70 % 1025,4 hPa 0,0 l/m 6,4 km/h (2 Bft) W-SW 247 0,000 mm 14,2 C 19,8 C 8,0 km/h (2 Bft) 91,30 %
09.08.2022 09:59 19,8 C 28,3 C 70 % 1025,4 hPa 0,0 l/m 4,8 km/h (1 Bft) S 180 0,000 mm 14,2 C 19,8 C 8,0 km/h (2 Bft) 95,65 %
09.08.2022 09:58 19,7 C 27,8 C 74 % 1025,5 hPa 0,0 l/m 4,8 km/h (1 Bft) S-SW 202 0,000 mm 14,9 C 19,7 C 8,0 km/h (2 Bft) 91,30 %
09.08.2022 09:57 19,6 C 27,2 C 72 % 1025,4 hPa 0,0 l/m 6,4 km/h (2 Bft) S-SW 202 0,000 mm 14,4 C 19,6 C 9,7 km/h (2 Bft) 95,65 %
09.08.2022 09:56 19,6 C 27,2 C 70 % 1025,5 hPa 0,0 l/m 6,4 km/h (2 Bft) S-SO 157 0,000 mm 14,0 C 19,6 C 9,7 km/h (2 Bft) 91,30 %
09.08.2022 09:55 19,6 C 27,2 C 72 % 1025,5 hPa 0,0 l/m 3,2 km/h (1 Bft) W 270 0,000 mm 14,4 C 19,6 C 6,4 km/h (2 Bft) 95,65 %
09.08.2022 09:54 19,6 C 26,7 C 70 % 1025,4 hPa 0,0 l/m 3,2 km/h (1 Bft) W 270 0,000 mm 14,0 C 19,6 C 4,8 km/h (1 Bft) 91,30 %
09.08.2022 09:53 19,6 C 26,7 C 70 % 1025,4 hPa 0,0 l/m 3,2 km/h (1 Bft) S-SO 157 0,000 mm 14,0 C 19,6 C 4,8 km/h (1 Bft) 95,65 %
09.08.2022 09:52 19,5 C 27,2 C 70 % 1025,4 hPa 0,0 l/m 3,2 km/h (1 Bft) S 180 0,000 mm 13,9 C 19,5 C 6,4 km/h (2 Bft) 95,65 %
09.08.2022 09:51 19,3 C 26,7 C 73 % 1025,5 hPa 0,0 l/m 4,8 km/h (1 Bft) W-SW 247 0,000 mm 14,3 C 19,3 C 8,0 km/h (2 Bft) 95,65 %
09.08.2022 09:50 19,3 C 26,7 C 72 % 1025,5 hPa 0,0 l/m 6,4 km/h (2 Bft) S-SW 202 0,000 mm 14,1 C 19,3 C 9,7 km/h (2 Bft) 91,30 %
09.08.2022 09:49 19,1 C 26,7 C 74 % 1025,5 hPa 0,0 l/m 6,4 km/h (2 Bft) S 180 0,000 mm 14,4 C 19,1 C 9,7 km/h (2 Bft) 95,65 %
09.08.2022 09:48 18,9 C 26,7 C 74 % 1025,4 hPa 0,0 l/m 3,2 km/h (1 Bft) W 270 0,000 mm 14,2 C 18,9 C 6,4 km/h (2 Bft) 91,30 %
09.08.2022 09:47 18,9 C 27,2 C 73 % 1025,5 hPa 0,0 l/m 3,2 km/h (1 Bft) SO 135 0,000 mm 13,9 C 18,9 C 6,4 km/h (2 Bft) 91,30 %
09.08.2022 09:46 18,8 C 27,2 C 73 % 1025,5 hPa 0,0 l/m 4,8 km/h (1 Bft) W 270 0,000 mm 13,9 C 18,8 C 8,0 km/h (2 Bft) 100,00 %
09.08.2022 09:45 18,8 C 26,7 C 72 % 1025,5 hPa 0,0 l/m 4,8 km/h (1 Bft) SW 225 0,000 mm 13,6 C 18,8 C 6,4 km/h (2 Bft) 91,30 %
09.08.2022 09:44 18,7 C 27,2 C 73 % 1025,5 hPa 0,0 l/m 3,2 km/h (1 Bft) W-SW 247 0,000 mm 13,8 C 18,7 C 6,4 km/h (2 Bft) 95,65 %
09.08.2022 09:43 18,7 C 27,2 C 74 % 1025,5 hPa 0,0 l/m 8,0 km/h (2 Bft) W 270 0,000 mm 14,0 C 18,0 C 11,3 km/h (2 Bft) 91,30 %
09.08.2022 09:42 18,6 C 26,1 C 74 % 1025,5 hPa 0,0 l/m 6,4 km/h (2 Bft) W-SW 247 0,000 mm 13,9 C 18,6 C 6,4 km/h (2 Bft) 95,65 %
09.08.2022 09:41 18,6 C 26,1 C 73 % 1025,5 hPa 0,0 l/m 6,4 km/h (2 Bft) W-NW 292 0,000 mm 13,7 C 18,6 C 9,7 km/h (2 Bft) 86,96 %
09.08.2022 09:40 18,4 C 26,1 C 77 % 1025,5 hPa 0,0 l/m 6,4 km/h (2 Bft) W-SW 247 0,000 mm 14,3 C 18,4 C 9,7 km/h (2 Bft) 100,00 %
09.08.2022 09:39 18,2 C 26,1 C 77 % 1025,5 hPa 0,0 l/m 3,2 km/h (1 Bft) W-NW 292 0,000 mm 14,1 C 18,2 C 4,8 km/h (1 Bft) 91,30 %
09.08.2022 09:38 18,1 C 25,6 C 76 % 1025,6 hPa 0,0 l/m 3,2 km/h (1 Bft) W-NW 292 0,000 mm 13,8 C 18,1 C 4,8 km/h (1 Bft) 91,30 %
09.08.2022 09:37 18,1 C 25,0 C 76 % 1025,5 hPa 0,0 l/m 3,2 km/h (1 Bft) NW 315 0,000 mm 13,8 C 18,1 C 4,8 km/h (1 Bft) 95,65 %
09.08.2022 09:36 18,1 C 25,0 C 76 % 1025,5 hPa 0,0 l/m 3,2 km/h (1 Bft) W 270 0,000 mm 13,8 C 18,1 C 6,4 km/h (2 Bft) 91,30 %
09.08.2022 09:35 17,9 C 24,4 C 78 % 1025,5 hPa 0,0 l/m 3,2 km/h (1 Bft) W 270 0,000 mm 14,0 C 17,9 C 4,8 km/h (1 Bft) 91,30 %
09.08.2022 09:34 17,8 C 24,4 C 77 % 1025,6 hPa 0,0 l/m 3,2 km/h (1 Bft) W-NW 292 0,000 mm 13,7 C 17,8 C 4,8 km/h (1 Bft) 95,65 %
09.08.2022 09:33 17,7 C 24,4 C 78 % 1025,5 hPa 0,0 l/m 3,2 km/h (1 Bft) W 270 0,000 mm 13,8 C 17,7 C 4,8 km/h (1 Bft) 82,61 %
09.08.2022 09:32 17,7 C 24,4 C 77 % 1025,5 hPa 0,0 l/m 3,2 km/h (1 Bft) W 270 0,000 mm 13,6 C 17,7 C 6,4 km/h (2 Bft) 91,30 %
09.08.2022 09:31 17,7 C 24,4 C 77 % 1025,5 hPa 0,0 l/m 4,8 km/h (1 Bft) N-NW 337 0,000 mm 13,6 C 17,7 C 6,4 km/h (2 Bft) 95,65 %
09.08.2022 09:30 17,8 C 24,4 C 77 % 1025,5 hPa 0,0 l/m 1,6 km/h (1 Bft) W 270 0,000 mm 13,7 C 17,8 C 4,8 km/h (1 Bft) 91,30 %
09.08.2022 09:29 17,7 C 24,4 C 77 % 1025,6 hPa 0,0 l/m 1,6 km/h (1 Bft) NW 315 0,000 mm 13,6 C 17,7 C 3,2 km/h (1 Bft) 95,65 %
09.08.2022 09:28 17,7 C 24,4 C 78 % 1025,6 hPa 0,0 l/m 4,8 km/h (1 Bft) W-SW 247 0,000 mm 13,8 C 17,7 C 6,4 km/h (2 Bft) 95,65 %
09.08.2022 09:27 17,7 C 24,4 C 78 % 1025,6 hPa 0,0 l/m 3,2 km/h (1 Bft) W 270 0,000 mm 13,8 C 17,7 C 4,8 km/h (1 Bft) 95,65 %
09.08.2022 09:26 17,6 C 24,4 C 78 % 1025,6 hPa 0,0 l/m 4,8 km/h (1 Bft) W 270 0,000 mm 13,7 C 17,6 C 9,7 km/h (2 Bft) 86,96 %
09.08.2022 09:25 17,5 C 23,9 C 79 % 1025,6 hPa 0,0 l/m 3,2 km/h (1 Bft) W 270 0,000 mm 13,8 C 17,5 C 4,8 km/h (1 Bft) 91,30 %
09.08.2022 09:24 17,4 C 23,3 C 78 % 1025,5 hPa 0,0 l/m 1,6 km/h (1 Bft) W 270 0,000 mm 13,5 C 17,4 C 3,2 km/h (1 Bft) 91,30 %
09.08.2022 09:23 17,4 C 23,9 C 77 % 1025,5 hPa 0,0 l/m 4,8 km/h (1 Bft) W 270 0,000 mm 13,3 C 17,4 C 6,4 km/h (2 Bft) 91,30 %
09.08.2022 09:22 17,3 C 23,9 C 76 % 1025,6 hPa 0,0 l/m 4,8 km/h (1 Bft) W-SW 247 0,000 mm 13,0 C 17,3 C 4,8 km/h (1 Bft) 95,65 %
09.08.2022 09:21 17,3 C 24,4 C 75 % 1025,5 hPa 0,0 l/m 3,2 km/h (1 Bft) W 270 0,000 mm 12,8 C 17,3 C 6,4 km/h (2 Bft) 95,65 %
09.08.2022 09:20 17,3 C 23,9 C 77 % 1025,6 hPa 0,0 l/m 1,6 km/h (1 Bft) W 270 0,000 mm 13,2 C 17,3 C 4,8 km/h (1 Bft) 91,30 %
09.08.2022 09:19 17,3 C 24,4 C 78 % 1025,5 hPa 0,0 l/m 3,2 km/h (1 Bft) W 270 0,000 mm 13,4 C 17,3 C 4,8 km/h (1 Bft) 95,65 %
09.08.2022 09:18 17,2 C 24,4 C 78 % 1025,6 hPa 0,0 l/m 3,2 km/h (1 Bft) W-SW 247 0,000 mm 13,3 C 17,2 C 3,2 km/h (1 Bft) 86,96 %
09.08.2022 09:17 17,2 C 24,4 C 77 % 1025,6 hPa 0,0 l/m 3,2 km/h (1 Bft) W 270 0,000 mm 13,1 C 17,2 C 4,8 km/h (1 Bft) 91,30 %
09.08.2022 09:16 17,2 C 25,0 C 78 % 1025,6 hPa 0,0 l/m 4,8 km/h (1 Bft) W 270 0,000 mm 13,3 C 17,2 C 6,4 km/h (2 Bft) 95,65 %
09.08.2022 09:15 17,2 C 24,4 C 79 % 1025,6 hPa 0,0 l/m 6,4 km/h (2 Bft) W-SW 247 0,000 mm 13,5 C 17,2 C 9,7 km/h (2 Bft) 91,30 %
09.08.2022 09:14 17,1 C 23,3 C 80 % 1025,6 hPa 0,0 l/m 3,2 km/h (1 Bft) W 270 0,000 mm 13,6 C 17,1 C 6,4 km/h (2 Bft) 95,65 %
09.08.2022 09:13 17,1 C 23,3 C 79 % 1025,5 hPa 0,0 l/m 3,2 km/h (1 Bft) W 270 0,000 mm 13,4 C 17,1 C 6,4 km/h (2 Bft) 95,65 %
09.08.2022 09:12 17,0 C 23,3 C 80 % 1025,5 hPa 0,0 l/m 4,8 km/h (1 Bft) W-SW 247 0,000 mm 13,5 C 17,0 C 6,4 km/h (2 Bft) 95,65 %
09.08.2022 09:11 16,8 C 22,8 C 81 % 1025,6 hPa 0,0 l/m 4,8 km/h (1 Bft) W-NW 292 0,000 mm 13,5 C 16,8 C 9,7 km/h (2 Bft) 86,96 %
09.08.2022 09:10 16,6 C 22,2 C 80 % 1025,6 hPa 0,0 l/m 1,6 km/h (1 Bft) W-SW 247 0,000 mm 13,1 C 16,6 C 4,8 km/h (1 Bft) 91,30 %
09.08.2022 09:09 16,6 C 22,2 C 80 % 1025,7 hPa 0,0 l/m 1,6 km/h (1 Bft) W-SW 247 0,000 mm 13,1 C 16,6 C 4,8 km/h (1 Bft) 95,65 %
09.08.2022 09:08 16,5 C 22,2 C 80 % 1025,5 hPa 0,0 l/m 4,8 km/h (1 Bft) W-SW 247 0,000 mm 13,0 C 16,5 C 6,4 km/h (2 Bft) 91,30 %
09.08.2022 09:07 16,4 C 21,7 C 80 % 1025,6 hPa 0,0 l/m 6,4 km/h (2 Bft) W 270 0,000 mm 12,9 C 16,4 C 9,7 km/h (2 Bft) 95,65 %
09.08.2022 09:06 16,4 C 21,1 C 81 % 1025,6 hPa 0,0 l/m 4,8 km/h (1 Bft) SW 225 0,000 mm 13,1 C 16,4 C 6,4 km/h (2 Bft) 100,00 %
09.08.2022 09:05 16,4 C 20,6 C 81 % 1025,5 hPa 0,0 l/m 4,8 km/h (1 Bft) W-SW 247 0,000 mm 13,1 C 16,4 C 8,0 km/h (2 Bft) 91,30 %
09.08.2022 09:04 16,4 C 20,0 C 81 % 1025,6 hPa 0,0 l/m 4,8 km/h (1 Bft) W 270 0,000 mm 13,1 C 16,4 C 6,4 km/h (2 Bft) 95,65 %
09.08.2022 09:03 16,4 C 18,9 C 81 % 1025,6 hPa 0,0 l/m 4,8 km/h (1 Bft) SW 225 0,000 mm 13,1 C 16,4 C 6,4 km/h (2 Bft) 100,00 %
09.08.2022 09:02 16,3 C 18,3 C 81 % 1025,6 hPa 0,0 l/m 8,0 km/h (2 Bft) W-SW 247 0,000 mm 13,0 C 15,5 C 9,7 km/h (2 Bft) 91,30 %
09.08.2022 09:01 16,3 C 18,3 C 82 % 1025,6 hPa 0,0 l/m 6,4 km/h (2 Bft) W-SW 247 0,000 mm 13,2 C 16,3 C 8,0 km/h (2 Bft) 95,65 %
09.08.2022 09:00 16,2 C 17,8 C 82 % 1025,6 hPa 0,0 l/m 3,2 km/h (1 Bft) W 270 0,000 mm 13,1 C 16,2 C 4,8 km/h (1 Bft) 100,00 %
09.08.2022 08:59 16,2 C 17,2 C 82 % 1025,6 hPa 0,0 l/m 4,8 km/h (1 Bft) W 270 0,000 mm 13,1 C 16,2 C 6,4 km/h (2 Bft) 91,30 %
09.08.2022 08:58 16,1 C 16,7 C 83 % 1025,5 hPa 0,0 l/m 6,4 km/h (2 Bft) W-SW 247 0,000 mm 13,2 C 16,1 C 8,0 km/h (2 Bft) 95,65 %
09.08.2022 08:57 16,1 C 16,1 C 82 % 1025,5 hPa 0,0 l/m 6,4 km/h (2 Bft) S-SW 202 0,000 mm 13,0 C 16,1 C 8,0 km/h (2 Bft) 100,00 %
09.08.2022 08:56 16,1 C 16,1 C 82 % 1025,5 hPa 0,0 l/m 4,8 km/h (1 Bft) W-SW 247 0,000 mm 13,0 C 16,1 C 6,4 km/h (2 Bft) 91,30 %
09.08.2022 08:55 16,2 C 16,1 C 82 % 1025,6 hPa 0,0 l/m 4,8 km/h (1 Bft) W-SW 247 0,000 mm 13,1 C 16,2 C 6,4 km/h (2 Bft) 91,30 %
09.08.2022 08:54 16,1 C 16,1 C 83 % 1025,7 hPa 0,0 l/m 4,8 km/h (1 Bft) W 270 0,000 mm 13,2 C 16,1 C 6,4 km/h (2 Bft) 100,00 %
09.08.2022 08:53 16,0 C 16,1 C 84 % 1025,6 hPa 0,0 l/m 3,2 km/h (1 Bft) W-SW 247 0,000 mm 13,3 C 16,0 C 4,8 km/h (1 Bft) 95,65 %
09.08.2022 08:52 15,9 C 15,6 C 82 % 1025,6 hPa 0,0 l/m 4,8 km/h (1 Bft) SW 225 0,000 mm 12,8 C 15,9 C 6,4 km/h (2 Bft) 95,65 %
09.08.2022 08:51 15,9 C 15,6 C 82 % 1025,6 hPa 0,0 l/m 4,8 km/h (1 Bft) W-SW 247 0,000 mm 12,8 C 15,9 C 9,7 km/h (2 Bft) 95,65 %
09.08.2022 08:50 15,8 C 15,6 C 84 % 1025,6 hPa 0,0 l/m 3,2 km/h (1 Bft) W-SW 247 0,000 mm 13,1 C 15,8 C 4,8 km/h (1 Bft) 95,65 %
09.08.2022 08:49 15,8 C 15,6 C 83 % 1025,6 hPa 0,0 l/m 4,8 km/h (1 Bft) W 270 0,000 mm 12,9 C 15,8 C 6,4 km/h (2 Bft) 95,65 %
09.08.2022 08:48 15,7 C 15,6 C 84 % 1025,6 hPa 0,0 l/m 4,8 km/h (1 Bft) W-SW 247 0,000 mm 13,0 C 15,7 C 8,0 km/h (2 Bft) 100,00 %
09.08.2022 08:47 15,6 C 15,6 C 83 % 1025,6 hPa 0,0 l/m 4,8 km/h (1 Bft) W-SW 247 0,000 mm 12,7 C 15,6 C 6,4 km/h (2 Bft) 95,65 %
09.08.2022 08:46 15,6 C 15,6 C 83 % 1025,7 hPa 0,0 l/m 4,8 km/h (1 Bft) W 270 0,000 mm 12,7 C 15,6 C 6,4 km/h (2 Bft) 95,65 %
09.08.2022 08:45 15,6 C 15,6 C 82 % 1025,6 hPa 0,0 l/m 4,8 km/h (1 Bft) SW 225 0,000 mm 12,5 C 15,6 C 8,0 km/h (2 Bft) 100,00 %
09.08.2022 08:44 15,6 C 16,1 C 84 % 1025,6 hPa 0,0 l/m 4,8 km/h (1 Bft) SW 225 0,000 mm 12,9 C 15,6 C 6,4 km/h (2 Bft) 91,30 %
09.08.2022 08:43 15,5 C 15,6 C 84 % 1025,5 hPa 0,0 l/m 4,8 km/h (1 Bft) SW 225 0,000 mm 12,8 C 15,5 C 4,8 km/h (1 Bft) 95,65 %
09.08.2022 08:42 15,4 C 15,6 C 84 % 1025,6 hPa 0,0 l/m 6,4 km/h (2 Bft) W-SW 247 0,000 mm 12,7 C 15,4 C 11,3 km/h (2 Bft) 100,00 %
09.08.2022 08:41 15,3 C 15,6 C 85 % 1025,6 hPa 0,0 l/m 4,8 km/h (1 Bft) W-SW 247 0,000 mm 12,8 C 15,3 C 9,7 km/h (2 Bft) 91,30 %
09.08.2022 08:40 15,3 C 15,6 C 84 % 1025,6 hPa 0,0 l/m 6,4 km/h (2 Bft) W 270 0,000 mm 12,6 C 15,3 C 9,7 km/h (2 Bft) 91,30 %
09.08.2022 08:39 15,2 C 15,0 C 84 % 1025,5 hPa 0,0 l/m 6,4 km/h (2 Bft) W-SW 247 0,000 mm 12,5 C 15,2 C 8,0 km/h (2 Bft) 95,65 %
09.08.2022 08:38 15,2 C 15,0 C 85 % 1025,5 hPa 0,0 l/m 4,8 km/h (1 Bft) W-SW 247 0,000 mm 12,7 C 15,2 C 6,4 km/h (2 Bft) 95,65 %
09.08.2022 08:37 15,1 C 15,0 C 85 % 1025,6 hPa 0,0 l/m 6,4 km/h (2 Bft) W-SW 247 0,000 mm 12,6 C 15,1 C 8,0 km/h (2 Bft) 95,65 %
09.08.2022 08:36 15,2 C 15,0 C 85 % 1025,5 hPa 0,0 l/m 6,4 km/h (2 Bft) W 270 0,000 mm 12,7 C 15,2 C 6,4 km/h (2 Bft) 100,00 %
09.08.2022 08:35 15,2 C 15,0 C 85 % 1025,5 hPa 0,0 l/m 4,8 km/h (1 Bft) W 270 0,000 mm 12,7 C 15,2 C 8,0 km/h (2 Bft) 86,96 %
09.08.2022 08:34 15,2 C 15,0 C 85 % 1025,5 hPa 0,0 l/m 6,4 km/h (2 Bft) W 270 0,000 mm 12,7 C 15,2 C 8,0 km/h (2 Bft) 95,65 %
09.08.2022 08:33 15,2 C 15,0 C 85 % 1025,5 hPa 0,0 l/m 6,4 km/h (2 Bft) W 270 0,000 mm 12,7 C 15,2 C 9,7 km/h (2 Bft) 100,00 %
09.08.2022 08:32 15,2 C 15,0 C 85 % 1025,4 hPa 0,0 l/m 8,0 km/h (2 Bft) W-SW 247 0,000 mm 12,7 C 14,3 C 12,9 km/h (3 Bft) 95,65 %
09.08.2022 08:31 15,2 C 15,0 C 86 % 1025,5 hPa 0,0 l/m 9,7 km/h (2 Bft) W 270 0,000 mm 12,9 C 13,5 C 11,3 km/h (2 Bft) 91,30 %
09.08.2022 08:30 15,1 C 15,0 C 86 % 1025,5 hPa 0,0 l/m 8,0 km/h (2 Bft) W 270 0,000 mm 12,8 C 14,2 C 11,3 km/h (2 Bft) 100,00 %
09.08.2022 08:29 14,9 C 14,4 C 85 % 1025,5 hPa 0,0 l/m 4,8 km/h (1 Bft) W-SW 247 0,000 mm 12,4 C 14,9 C 6,4 km/h (2 Bft) 91,30 %
09.08.2022 08:28 14,9 C 14,4 C 86 % 1025,5 hPa 0,0 l/m 6,4 km/h (2 Bft) W-SW 247 0,000 mm 12,6 C 14,9 C 9,7 km/h (2 Bft) 91,30 %
09.08.2022 08:27 14,9 C 14,4 C 86 % 1025,5 hPa 0,0 l/m 8,0 km/h (2 Bft) W-SW 247 0,000 mm 12,6 C 14,0 C 11,3 km/h (2 Bft) 100,00 %
09.08.2022 08:26 14,9 C 14,4 C 86 % 1025,5 hPa 0,0 l/m 9,7 km/h (2 Bft) W-SW 247 0,000 mm 12,6 C 13,1 C 12,9 km/h (3 Bft) 95,65 %
09.08.2022 08:25 14,8 C 14,4 C 87 % 1025,4 hPa 0,0 l/m 6,4 km/h (2 Bft) W-SW 247 0,000 mm 12,7 C 14,8 C 9,7 km/h (2 Bft) 95,65 %
09.08.2022 08:24 14,8 C 14,4 C 87 % 1025,5 hPa 0,0 l/m 8,0 km/h (2 Bft) W-SW 247 0,000 mm 12,7 C 13,9 C 12,9 km/h (3 Bft) 95,65 %
09.08.2022 08:23 14,8 C 14,4 C 87 % 1025,4 hPa 0,0 l/m 6,4 km/h (2 Bft) W 270 0,000 mm 12,7 C 14,8 C 11,3 km/h (2 Bft) 100,00 %
09.08.2022 08:22 14,8 C 14,4 C 87 % 1025,4 hPa 0,0 l/m 8,0 km/h (2 Bft) W 270 0,000 mm 12,7 C 13,9 C 12,9 km/h (3 Bft) 91,30 %
09.08.2022 08:21 14,8 C 14,4 C 88 % 1025,5 hPa 0,0 l/m 8,0 km/h (2 Bft) W-SW 247 0,000 mm 12,8 C 13,9 C 11,3 km/h (2 Bft) 95,65 %
09.08.2022 08:20 14,7 C 14,4 C 89 % 1025,4 hPa 0,0 l/m 6,4 km/h (2 Bft) W 270 0,000 mm 12,9 C 14,7 C 11,3 km/h (2 Bft) 100,00 %
09.08.2022 08:19 14,6 C 14,4 C 89 % 1025,4 hPa 0,0 l/m 3,2 km/h (1 Bft) W 270 0,000 mm 12,8 C 14,6 C 6,4 km/h (2 Bft) 95,65 %
09.08.2022 08:18 14,6 C 14,4 C 89 % 1025,4 hPa 0,0 l/m 4,8 km/h (1 Bft) W-SW 247 0,000 mm 12,8 C 14,6 C 6,4 km/h (2 Bft) 91,30 %
09.08.2022 08:17 14,5 C 14,4 C 90 % 1025,4 hPa 0,0 l/m 4,8 km/h (1 Bft) W 270 0,000 mm 12,9 C 14,5 C 6,4 km/h (2 Bft) 100,00 %
09.08.2022 08:16 14,3 C 14,4 C 90 % 1025,4 hPa 0,0 l/m 3,2 km/h (1 Bft) NW 315 0,000 mm 12,7 C 14,3 C 4,8 km/h (1 Bft) 91,30 %
09.08.2022 08:15 14,3 C 14,4 C 90 % 1025,4 hPa 0,0 l/m 3,2 km/h (1 Bft) W 270 0,000 mm 12,7 C 14,3 C 4,8 km/h (1 Bft) 95,65 %
09.08.2022 08:14 14,2 C 14,4 C 91 % 1025,4 hPa 0,0 l/m 3,2 km/h (1 Bft) W 270 0,000 mm 12,8 C 14,2 C 4,8 km/h (1 Bft) 100,00 %
09.08.2022 08:13 14,1 C 15,0 C 91 % 1025,4 hPa 0,0 l/m 1,6 km/h (1 Bft) W-SW 247 0,000 mm 12,7 C 14,1 C 4,8 km/h (1 Bft) 95,65 %
09.08.2022 08:12 14,1 C 15,0 C 91 % 1025,4 hPa 0,0 l/m 1,6 km/h (1 Bft) W 270 0,000 mm 12,7 C 14,1 C 3,2 km/h (1 Bft) 91,30 %
09.08.2022 08:11 13,9 C 14,4 C 91 % 1025,4 hPa 0,0 l/m 1,6 km/h (1 Bft) W 270 0,000 mm 12,5 C 13,9 C 3,2 km/h (1 Bft) 100,00 %
09.08.2022 08:10 13,9 C 13,9 C 91 % 1025,4 hPa 0,0 l/m 1,6 km/h (1 Bft) W 270 0,000 mm 12,5 C 13,9 C 3,2 km/h (1 Bft) 95,65 %
09.08.2022 08:09 13,8 C 13,9 C 92 % 1025,5 hPa 0,0 l/m 1,6 km/h (1 Bft) W 270 0,000 mm 12,5 C 13,8 C 3,2 km/h (1 Bft) 95,65 %
09.08.2022 08:08 13,8 C 13,9 C 92 % 1025,4 hPa 0,0 l/m 1,6 km/h (1 Bft) W-NW 292 0,000 mm 12,5 C 13,8 C 3,2 km/h (1 Bft) 100,00 %
09.08.2022 08:07 13,7 C 13,9 C 92 % 1025,5 hPa 0,0 l/m 1,6 km/h (1 Bft) NW 315 0,000 mm 12,4 C 13,7 C 3,2 km/h (1 Bft) 91,30 %
09.08.2022 08:06 13,7 C 13,9 C 92 % 1025,5 hPa 0,0 l/m 1,6 km/h (1 Bft) NW 315 0,000 mm 12,4 C 13,7 C 3,2 km/h (1 Bft) 91,30 %
09.08.2022 08:05 13,6 C 13,9 C 92 % 1025,5 hPa 0,0 l/m 3,2 km/h (1 Bft) W-NW 292 0,000 mm 12,3 C 13,6 C 3,2 km/h (1 Bft) 100,00 %
09.08.2022 08:04 13,6 C 13,9 C 92 % 1025,4 hPa 0,0 l/m 1,6 km/h (1 Bft) W-NW 292 0,000 mm 12,3 C 13,6 C 3,2 km/h (1 Bft) 91,30 %
09.08.2022 08:03 13,6 C 13,9 C 93 % 1025,4 hPa 0,0 l/m 1,6 km/h (1 Bft) W-NW 292 0,000 mm 12,5 C 13,6 C 3,2 km/h (1 Bft) 95,65 %
09.08.2022 08:02 13,5 C 13,9 C 93 % 1025,4 hPa 0,0 l/m 0,0 km/h (0 Bft) W-NW 292 0,000 mm 12,4 C 13,5 C 1,6 km/h (1 Bft) 100,00 %
09.08.2022 08:01 13,4 C 13,9 C 93 % 1025,4 hPa 0,0 l/m 1,6 km/h (1 Bft) W-NW 292 0,000 mm 12,3 C 13,4 C 3,2 km/h (1 Bft) 95,65 %
09.08.2022 08:00 13,4 C 13,9 C 93 % 1025,3 hPa 0,0 l/m 1,6 km/h (1 Bft) NW 315 0,000 mm 12,3 C 13,4 C 3,2 km/h (1 Bft) 95,65 %
09.08.2022 07:59 13,3 C 13,3 C 93 % 1025,3 hPa 0,0 l/m 1,6 km/h (1 Bft) W 270 0,000 mm 12,2 C 13,3 C 3,2 km/h (1 Bft) 100,00 %
09.08.2022 07:58 13,3 C 13,3 C 93 % 1025,3 hPa 0,0 l/m 0,0 km/h (0 Bft) W 270 0,000 mm 12,2 C 13,3 C 1,6 km/h (1 Bft) 95,65 %
09.08.2022 07:57 13,3 C 13,3 C 93 % 1025,4 hPa 0,0 l/m 0,0 km/h (0 Bft) W 270 0,000 mm 12,2 C 13,3 C 1,6 km/h (1 Bft) 95,65 %
09.08.2022 07:56 13,2 C 13,3 C 93 % 1025,4 hPa 0,0 l/m 1,6 km/h (1 Bft) W 270 0,000 mm 12,1 C 13,2 C 3,2 km/h (1 Bft) 100,00 %
09.08.2022 07:55 13,2 C 13,3 C 94 % 1025,4 hPa 0,0 l/m 3,2 km/h (1 Bft) W-NW 292 0,000 mm 12,3 C 13,2 C 4,8 km/h (1 Bft) 95,65 %
09.08.2022 07:54 13,1 C 13,3 C 94 % 1025,4 hPa 0,0 l/m 1,6 km/h (1 Bft) W-NW 292 0,000 mm 12,2 C 13,1 C 3,2 km/h (1 Bft) 95,65 %
09.08.2022 07:53 13,1 C 13,3 C 94 % 1025,4 hPa 0,0 l/m 1,6 km/h (1 Bft) W-NW 292 0,000 mm 12,2 C 13,1 C 3,2 km/h (1 Bft) 95,65 %
09.08.2022 07:52 13,0 C 13,3 C 94 % 1025,4 hPa 0,0 l/m 3,2 km/h (1 Bft) W-NW 292 0,000 mm 12,1 C 13,0 C 4,8 km/h (1 Bft) 95,65 %
09.08.2022 07:51 12,9 C 12,8 C 94 % 1025,3 hPa 0,0 l/m 1,6 km/h (1 Bft) W 270 0,000 mm 12,0 C 12,9 C 3,2 km/h (1 Bft) 95,65 %
09.08.2022 07:50 12,8 C 12,8 C 94 % 1025,4 hPa 0,0 l/m 1,6 km/h (1 Bft) W 270 0,000 mm 11,9 C 12,8 C 1,6 km/h (1 Bft) 95,65 %
09.08.2022 07:49 12,8 C 12,8 C 94 % 1025,4 hPa 0,0 l/m 1,6 km/h (1 Bft) W 270 0,000 mm 11,9 C 12,8 C 4,8 km/h (1 Bft) 91,30 %
09.08.2022 07:48 12,7 C 12,8 C 94 % 1025,4 hPa 0,0 l/m 1,6 km/h (1 Bft) W 270 0,000 mm 11,8 C 12,7 C 3,2 km/h (1 Bft) 95,65 %
09.08.2022 07:47 12,7 C 12,8 C 94 % 1025,4 hPa 0,0 l/m 1,6 km/h (1 Bft) W 270 0,000 mm 11,8 C 12,7 C 3,2 km/h (1 Bft) 100,00 %
09.08.2022 07:46 12,7 C 12,8 C 94 % 1025,3 hPa 0,0 l/m 3,2 km/h (1 Bft) W 270 0,000 mm 11,8 C 12,7 C 3,2 km/h (1 Bft) 95,65 %
09.08.2022 07:45 12,6 C 12,8 C 94 % 1025,3 hPa 0,0 l/m 3,2 km/h (1 Bft) W 270 0,000 mm 11,7 C 12,6 C 4,8 km/h (1 Bft) 86,96 %
09.08.2022 07:44 12,7 C 12,8 C 94 % 1025,3 hPa 0,0 l/m 1,6 km/h (1 Bft) W 270 0,000 mm 11,8 C 12,7 C 3,2 km/h (1 Bft) 100,00 %
09.08.2022 07:43 12,6 C 12,8 C 94 % 1025,3 hPa 0,0 l/m 1,6 km/h (1 Bft) W 270 0,000 mm 11,7 C 12,6 C 3,2 km/h (1 Bft) 91,30 %
09.08.2022 07:42 12,5 C 12,8 C 94 % 1025,3 hPa 0,0 l/m 1,6 km/h (1 Bft) W 270 0,000 mm 11,6 C 12,5 C 3,2 km/h (1 Bft) 95,65 %
09.08.2022 07:41 12,4 C 12,8 C 94 % 1025,3 hPa 0,0 l/m 1,6 km/h (1 Bft) W 270 0,000 mm 11,5 C 12,4 C 3,2 km/h (1 Bft) 100,00 %
09.08.2022 07:40 12,4 C 12,8 C 94 % 1025,3 hPa 0,0 l/m 1,6 km/h (1 Bft) W 270 0,000 mm 11,5 C 12,4 C 4,8 km/h (1 Bft) 95,65 %
09.08.2022 07:39 12,4 C 12,8 C 94 % 1025,3 hPa 0,0 l/m 0,0 km/h (0 Bft) W 270 0,000 mm 11,5 C 12,4 C 1,6 km/h (1 Bft) 95,65 %
09.08.2022 07:38 12,4 C 12,8 C 94 % 1025,3 hPa 0,0 l/m 1,6 km/h (1 Bft) W 270 0,000 mm 11,5 C 12,4 C 3,2 km/h (1 Bft) 100,00 %
09.08.2022 07:37 12,3 C 12,8 C 94 % 1025,3 hPa 0,0 l/m 1,6 km/h (1 Bft) W 270 0,000 mm 11,4 C 12,3 C 3,2 km/h (1 Bft) 91,30 %
09.08.2022 07:36 12,3 C 12,8 C 94 % 1025,3 hPa 0,0 l/m 3,2 km/h (1 Bft) W 270 0,000 mm 11,4 C 12,3 C 3,2 km/h (1 Bft) 95,65 %
09.08.2022 07:35 12,3 C 12,8 C 94 % 1025,3 hPa 0,0 l/m 4,8 km/h (1 Bft) W-NW 292 0,000 mm 11,4 C 12,3 C 6,4 km/h (2 Bft) 95,65 %
09.08.2022 07:34 12,3 C 12,8 C 94 % 1025,4 hPa 0,0 l/m 3,2 km/h (1 Bft) W 270 0,000 mm 11,4 C 12,3 C 4,8 km/h (1 Bft) 100,00 %
09.08.2022 07:33 12,3 C 12,8 C 94 % 1025,3 hPa 0,0 l/m 1,6 km/h (1 Bft) W-SW 247 0,000 mm 11,4 C 12,3 C 3,2 km/h (1 Bft) 95,65 %
09.08.2022 07:32 12,2 C 12,2 C 94 % 1025,3 hPa 0,0 l/m 1,6 km/h (1 Bft) W-SW 247 0,000 mm 11,3 C 12,2 C 3,2 km/h (1 Bft) 95,65 %
09.08.2022 07:31 12,2 C 12,2 C 94 % 1025,3 hPa 0,0 l/m 1,6 km/h (1 Bft) W-SW 247 0,000 mm 11,3 C 12,2 C 3,2 km/h (1 Bft) 95,65 %
09.08.2022 07:30 12,2 C 12,2 C 94 % 1025,3 hPa 0,0 l/m 3,2 km/h (1 Bft) W-SW 247 0,000 mm 11,3 C 12,2 C 4,8 km/h (1 Bft) 95,65 %
09.08.2022 07:29 12,2 C 12,2 C 94 % 1025,3 hPa 0,0 l/m 1,6 km/h (1 Bft) W-SW 247 0,000 mm 11,3 C 12,2 C 3,2 km/h (1 Bft) 95,65 %
09.08.2022 07:28 12,2 C 12,2 C 94 % 1025,3 hPa 0,0 l/m 3,2 km/h (1 Bft) W-SW 247 0,000 mm 11,3 C 12,2 C 3,2 km/h (1 Bft) 100,00 %
09.08.2022 07:27 12,2 C 12,8 C 94 % 1025,3 hPa 0,0 l/m 3,2 km/h (1 Bft) W-SW 247 0,000 mm 11,3 C 12,2 C 4,8 km/h (1 Bft) 86,96 %
09.08.2022 07:26 12,2 C 12,8 C 94 % 1025,3 hPa 0,0 l/m 3,2 km/h (1 Bft) W 270 0,000 mm 11,3 C 12,2 C 4,8 km/h (1 Bft) 95,65 %
09.08.2022 07:25 12,2 C 12,8 C 94 % 1025,4 hPa 0,0 l/m 3,2 km/h (1 Bft) W 270 0,000 mm 11,3 C 12,2 C 4,8 km/h (1 Bft) 91,30 %
09.08.2022 07:24 12,2 C 12,8 C 94 % 1025,3 hPa 0,0 l/m 3,2 km/h (1 Bft) W-SW 247 0,000 mm 11,3 C 12,2 C 4,8 km/h (1 Bft) 82,61 %
09.08.2022 07:23 12,2 C 12,8 C 94 % 1025,2 hPa 0,0 l/m 1,6 km/h (1 Bft) W-SW 247 0,000 mm 11,3 C 12,2 C 1,6 km/h (1 Bft) 91,30 %
09.08.2022 07:22 12,2 C 12,8 C 94 % 1025,3 hPa 0,0 l/m 1,6 km/h (1 Bft) W-SW 247 0,000 mm 11,3 C 12,2 C 3,2 km/h (1 Bft) 95,65 %
09.08.2022 07:21 12,2 C 12,2 C 94 % 1025,3 hPa 0,0 l/m 3,2 km/h (1 Bft) W 270 0,000 mm 11,3 C 12,2 C 4,8 km/h (1 Bft) 91,30 %
09.08.2022 07:20 12,2 C 12,2 C 94 % 1025,3 hPa 0,0 l/m 1,6 km/h (1 Bft) W-NW 292 0,000 mm 11,3 C 12,2 C 3,2 km/h (1 Bft) 91,30 %
09.08.2022 07:19 12,2 C 12,2 C 94 % 1025,3 hPa 0,0 l/m 1,6 km/h (1 Bft) W 270 0,000 mm 11,3 C 12,2 C 3,2 km/h (1 Bft) 100,00 %
09.08.2022 07:18 12,2 C 12,2 C 94 % 1025,2 hPa 0,0 l/m 3,2 km/h (1 Bft) W 270 0,000 mm 11,3 C 12,2 C 4,8 km/h (1 Bft) 91,30 %
09.08.2022 07:17 12,2 C 12,2 C 94 % 1025,2 hPa 0,0 l/m 3,2 km/h (1 Bft) W 270 0,000 mm 11,3 C 12,2 C 3,2 km/h (1 Bft) 91,30 %
09.08.2022 07:16 12,2 C 12,2 C 94 % 1025,3 hPa 0,0 l/m 1,6 km/h (1 Bft) W 270 0,000 mm 11,3 C 12,2 C 3,2 km/h (1 Bft) 95,65 %
09.08.2022 07:15 12,1 C 12,2 C 94 % 1025,2 hPa 0,0 l/m 3,2 km/h (1 Bft) W 270 0,000 mm 11,2 C 12,1 C 4,8 km/h (1 Bft) 95,65 %
09.08.2022 07:14 12,1 C 12,2 C 94 % 1025,3 hPa 0,0 l/m 3,2 km/h (1 Bft) W 270 0,000 mm 11,2 C 12,1 C 4,8 km/h (1 Bft) 91,30 %
09.08.2022 07:13 12,1 C 12,2 C 94 % 1025,3 hPa 0,0 l/m 3,2 km/h (1 Bft) W 270 0,000 mm 11,2 C 12,1 C 4,8 km/h (1 Bft) 100,00 %
09.08.2022 07:12 12,1 C 12,2 C 94 % 1025,3 hPa 0,0 l/m 4,8 km/h (1 Bft) W-SW 247 0,000 mm 11,2 C 12,1 C 4,8 km/h (1 Bft) 91,30 %
09.08.2022 07:11 12,1 C 12,2 C 94 % 1025,3 hPa 0,0 l/m 1,6 km/h (1 Bft) W 270 0,000 mm 11,2 C 12,1 C 4,8 km/h (1 Bft) 95,65 %
09.08.2022 07:10 12,1 C 12,2 C 94 % 1025,3 hPa 0,0 l/m 3,2 km/h (1 Bft) W 270 0,000 mm 11,2 C 12,1 C 4,8 km/h (1 Bft) 95,65 %
09.08.2022 07:09 12,1 C 12,2 C 94 % 1025,2 hPa 0,0 l/m 3,2 km/h (1 Bft) W 270 0,000 mm 11,2 C 12,1 C 4,8 km/h (1 Bft) 95,65 %
09.08.2022 07:08 12,0 C 11,7 C 94 % 1025,2 hPa 0,0 l/m 1,6 km/h (1 Bft) W-SW 247 0,000 mm 11,1 C 12,0 C 1,6 km/h (1 Bft) 91,30 %
09.08.2022 07:07 11,9 C 11,7 C 94 % 1025,3 hPa 0,0 l/m 1,6 km/h (1 Bft) W-SW 247 0,000 mm 11,0 C 11,9 C 3,2 km/h (1 Bft) 95,65 %
09.08.2022 07:06 11,9 C 11,7 C 94 % 1025,2 hPa 0,0 l/m 3,2 km/h (1 Bft) W-SW 247 0,000 mm 11,0 C 11,9 C 4,8 km/h (1 Bft) 95,65 %
09.08.2022 07:05 11,9 C 11,7 C 94 % 1025,2 hPa 0,0 l/m 4,8 km/h (1 Bft) W-SW 247 0,000 mm 11,0 C 11,9 C 4,8 km/h (1 Bft) 91,30 %
09.08.2022 07:04 11,8 C 11,7 C 94 % 1025,2 hPa 0,0 l/m 4,8 km/h (1 Bft) W-SW 247 0,000 mm 10,9 C 11,8 C 6,4 km/h (2 Bft) 100,00 %
09.08.2022 07:03 11,8 C 11,7 C 94 % 1025,1 hPa 0,0 l/m 4,8 km/h (1 Bft) W 270 0,000 mm 10,9 C 11,8 C 4,8 km/h (1 Bft) 91,30 %
09.08.2022 07:02 11,8 C 11,7 C 94 % 1025,2 hPa 0,0 l/m 3,2 km/h (1 Bft) W-SW 247 0,000 mm 10,9 C 11,8 C 6,4 km/h (2 Bft) 95,65 %
09.08.2022 07:01 11,7 C 11,1 C 94 % 1025,2 hPa 0,0 l/m 4,8 km/h (1 Bft) S-SW 202 0,000 mm 10,8 C 11,7 C 6,4 km/h (2 Bft) 95,65 %
09.08.2022 07:00 11,7 C 11,1 C 94 % 1025,1 hPa 0,0 l/m 3,2 km/h (1 Bft) S-SW 202 0,000 mm 10,8 C 11,7 C 3,2 km/h (1 Bft) 95,65 %
09.08.2022 06:59 11,6 C 11,1 C 94 % 1025,1 hPa 0,0 l/m 3,2 km/h (1 Bft) W-SW 247 0,000 mm 10,7 C 11,6 C 4,8 km/h (1 Bft) 91,30 %
09.08.2022 06:58 11,6 C 11,1 C 94 % 1025,1 hPa 0,0 l/m 3,2 km/h (1 Bft) W-NW 292 0,000 mm 10,7 C 11,6 C 4,8 km/h (1 Bft) 100,00 %
09.08.2022 06:57 11,6 C 11,1 C 94 % 1025,2 hPa 0,0 l/m 4,8 km/h (1 Bft) W-SW 247 0,000 mm 10,7 C 11,6 C 8,0 km/h (2 Bft) 91,30 %
09.08.2022 06:56 11,5 C 11,1 C 94 % 1025,2 hPa 0,0 l/m 1,6 km/h (1 Bft) W 270 0,000 mm 10,6 C 11,5 C 3,2 km/h (1 Bft) 91,30 %
09.08.2022 06:55 11,4 C 11,1 C 94 % 1025,2 hPa 0,0 l/m 0,0 km/h (0 Bft) SW 225 0,000 mm 10,5 C 11,4 C 3,2 km/h (1 Bft) 95,65 %
09.08.2022 06:54 11,4 C 11,1 C 94 % 1025,2 hPa 0,0 l/m 0,0 km/h (0 Bft) SW 225 0,000 mm 10,5 C 11,4 C 1,6 km/h (1 Bft) 86,96 %
09.08.2022 06:53 11,4 C 11,1 C 94 % 1025,2 hPa 0,0 l/m 1,6 km/h (1 Bft) SW 225 0,000 mm 10,5 C 11,4 C 4,8 km/h (1 Bft) 91,30 %
09.08.2022 06:52 11,3 C 11,1 C 94 % 1025,2 hPa 0,0 l/m 0,0 km/h (0 Bft) S 180 0,000 mm 10,4 C 11,3 C 1,6 km/h (1 Bft) 91,30 %
09.08.2022 06:51 11,2 C 11,1 C 94 % 1025,2 hPa 0,0 l/m 1,6 km/h (1 Bft) S-SO 157 0,000 mm 10,3 C 11,2 C 1,6 km/h (1 Bft) 91,30 %
09.08.2022 06:50 11,2 C 11,1 C 94 % 1025,2 hPa 0,0 l/m 1,6 km/h (1 Bft) S-SO 157 0,000 mm 10,3 C 11,2 C 3,2 km/h (1 Bft) 91,30 %
09.08.2022 06:49 11,2 C 10,6 C 94 % 1025,1 hPa 0,0 l/m 0,0 km/h (0 Bft) S-SO 157 0,000 mm 10,3 C 11,2 C 1,6 km/h (1 Bft) 95,65 %
09.08.2022 06:48 11,1 C 10,6 C 94 % 1025,1 hPa 0,0 l/m 1,6 km/h (1 Bft) S-SO 157 0,000 mm 10,2 C 11,1 C 1,6 km/h (1 Bft) 95,65 %
09.08.2022 06:47 11,1 C 10,6 C 94 % 1025,1 hPa 0,0 l/m 1,6 km/h (1 Bft) S-SO 157 0,000 mm 10,2 C 11,1 C 1,6 km/h (1 Bft) 91,30 %
09.08.2022 06:46 11,0 C 10,6 C 94 % 1025,1 hPa 0,0 l/m 1,6 km/h (1 Bft) S-SO 157 0,000 mm 10,1 C 11,0 C 3,2 km/h (1 Bft) 91,30 %
09.08.2022 06:45 10,9 C 10,6 C 94 % 1025,0 hPa 0,0 l/m 1,6 km/h (1 Bft) S-SO 157 0,000 mm 10,0 C 10,9 C 3,2 km/h (1 Bft) 95,65 %
09.08.2022 06:44 10,9 C 10,6 C 94 % 1025,1 hPa 0,0 l/m 1,6 km/h (1 Bft) S-SO 157 0,000 mm 10,0 C 10,9 C 3,2 km/h (1 Bft) 91,30 %
09.08.2022 06:43 10,9 C 10,6 C 94 % 1025,0 hPa 0,0 l/m 1,6 km/h (1 Bft) S-SO 157 0,000 mm 10,0 C 10,9 C 3,2 km/h (1 Bft) 95,65 %
09.08.2022 06:42 10,8 C 10,6 C 94 % 1025,1 hPa 0,0 l/m 1,6 km/h (1 Bft) S-SO 157 0,000 mm 9,9 C 10,8 C 3,2 km/h (1 Bft) 100,00 %
09.08.2022 06:41 10,8 C 10,6 C 94 % 1025,1 hPa 0,0 l/m 1,6 km/h (1 Bft) S-SO 157 0,000 mm 9,9 C 10,8 C 3,2 km/h (1 Bft) 95,65 %
09.08.2022 06:40 10,8 C 10,6 C 94 % 1025,1 hPa 0,0 l/m 1,6 km/h (1 Bft) S-SO 157 0,000 mm 9,9 C 10,8 C 3,2 km/h (1 Bft) 95,65 %
09.08.2022 06:39 10,7 C 10,6 C 94 % 1025,0 hPa 0,0 l/m 3,2 km/h (1 Bft) S-SO 157 0,000 mm 9,8 C 10,7 C 3,2 km/h (1 Bft) 100,00 %
09.08.2022 06:38 10,7 C 10,6 C 94 % 1025,0 hPa 0,0 l/m 3,2 km/h (1 Bft) S-SO 157 0,000 mm 9,8 C 10,7 C 3,2 km/h (1 Bft) 95,65 %
09.08.2022 06:37 10,7 C 10,6 C 94 % 1025,1 hPa 0,0 l/m 3,2 km/h (1 Bft) S-SO 157 0,000 mm 9,8 C 10,7 C 3,2 km/h (1 Bft) 95,65 %
09.08.2022 06:36 10,7 C 10,0 C 94 % 1025,0 hPa 0,0 l/m 3,2 km/h (1 Bft) S-SO 157 0,000 mm 9,8 C 10,7 C 3,2 km/h (1 Bft) 100,00 %
09.08.2022 06:35 10,6 C 10,0 C 94 % 1025,1 hPa 0,0 l/m 1,6 km/h (1 Bft) S-SO 157 0,000 mm 9,7 C 10,6 C 3,2 km/h (1 Bft) 95,65 %
09.08.2022 06:34 10,6 C 10,0 C 94 % 1025,0 hPa 0,0 l/m 0,0 km/h (0 Bft) N 0 0,000 mm 9,7 C 10,6 C 0,0 km/h (0 Bft) 95,65 %
09.08.2022 06:33 10,6 C 10,0 C 94 % 1025,0 hPa 0,0 l/m 0,0 km/h (0 Bft) S-SO 157 0,000 mm 9,7 C 10,6 C 1,6 km/h (1 Bft) 100,00 %
09.08.2022 06:32 10,5 C 10,0 C 94 % 1025,0 hPa 0,0 l/m 1,6 km/h (1 Bft) S-SO 157 0,000 mm 9,6 C 10,5 C 3,2 km/h (1 Bft) 95,65 %
09.08.2022 06:31 10,4 C 10,0 C 94 % 1025,1 hPa 0,0 l/m 1,6 km/h (1 Bft) S-SO 157 0,000 mm 9,5 C 10,4 C 3,2 km/h (1 Bft) 95,65 %
09.08.2022 06:30 10,4 C 10,0 C 94 % 1025,0 hPa 0,0 l/m 1,6 km/h (1 Bft) S-SO 157 0,000 mm 9,5 C 10,4 C 3,2 km/h (1 Bft) 100,00 %
09.08.2022 06:29 10,3 C 10,0 C 94 % 1025,0 hPa 0,0 l/m 3,2 km/h (1 Bft) S-SO 157 0,000 mm 9,4 C 10,3 C 3,2 km/h (1 Bft) 95,65 %
09.08.2022 06:28 10,3 C 10,0 C 94 % 1025,0 hPa 0,0 l/m 4,8 km/h (1 Bft) S-SO 157 0,000 mm 9,4 C 10,3 C 6,4 km/h (2 Bft) 91,30 %
09.08.2022 06:27 10,3 C 10,0 C 94 % 1025,0 hPa 0,0 l/m 4,8 km/h (1 Bft) S-SO 157 0,000 mm 9,4 C 10,3 C 6,4 km/h (2 Bft) 100,00 %
09.08.2022 06:26 10,3 C 10,0 C 94 % 1025,1 hPa 0,0 l/m 6,4 km/h (2 Bft) S 180 0,000 mm 9,4 C 10,3 C 8,0 km/h (2 Bft) 91,30 %
09.08.2022 06:25 10,2 C 10,0 C 94 % 1025,0 hPa 0,0 l/m 6,4 km/h (2 Bft) S 180 0,000 mm 9,3 C 10,2 C 8,0 km/h (2 Bft) 95,65 %
09.08.2022 06:24 10,3 C 10,0 C 94 % 1025,0 hPa 0,0 l/m 6,4 km/h (2 Bft) S 180 0,000 mm 9,4 C 10,3 C 8,0 km/h (2 Bft) 100,00 %
09.08.2022 06:23 10,3 C 10,0 C 94 % 1025,0 hPa 0,0 l/m 6,4 km/h (2 Bft) S 180 0,000 mm 9,4 C 10,3 C 8,0 km/h (2 Bft) 95,65 %
09.08.2022 06:22 10,3 C 10,0 C 94 % 1025,0 hPa 0,0 l/m 6,4 km/h (2 Bft) S 180 0,000 mm 9,4 C 10,3 C 8,0 km/h (2 Bft) 91,30 %
09.08.2022 06:21 10,3 C 10,0 C 94 % 1025,0 hPa 0,0 l/m 4,8 km/h (1 Bft) S-SO 157 0,000 mm 9,4 C 10,3 C 8,0 km/h (2 Bft) 100,00 %
09.08.2022 06:20 10,3 C 10,0 C 93 % 1025,0 hPa 0,0 l/m 6,4 km/h (2 Bft) S-SO 157 0,000 mm 9,2 C 10,3 C 8,0 km/h (2 Bft) 86,96 %
09.08.2022 06:19 10,3 C 10,0 C 94 % 1024,9 hPa 0,0 l/m 6,4 km/h (2 Bft) S 180 0,000 mm 9,4 C 10,3 C 8,0 km/h (2 Bft) 95,65 %
09.08.2022 06:18 10,3 C 10,0 C 94 % 1025,0 hPa 0,0 l/m 4,8 km/h (1 Bft) S-SO 157 0,000 mm 9,4 C 10,3 C 6,4 km/h (2 Bft) 100,00 %
09.08.2022 06:17 10,3 C 10,0 C 94 % 1024,9 hPa 0,0 l/m 4,8 km/h (1 Bft) S-SO 157 0,000 mm 9,4 C 10,3 C 6,4 km/h (2 Bft) 95,65 %
09.08.2022 06:16 10,4 C 10,0 C 94 % 1025,0 hPa 0,0 l/m 3,2 km/h (1 Bft) S-SO 157 0,000 mm 9,5 C 10,4 C 6,4 km/h (2 Bft) 95,65 %
09.08.2022 06:15 10,4 C 10,0 C 94 % 1024,9 hPa 0,0 l/m 3,2 km/h (1 Bft) S-SO 157 0,000 mm 9,5 C 10,4 C 6,4 km/h (2 Bft) 95,65 %
09.08.2022 06:14 10,4 C 10,0 C 94 % 1025,0 hPa 0,0 l/m 3,2 km/h (1 Bft) S-SO 157 0,000 mm 9,5 C 10,4 C 6,4 km/h (2 Bft) 91,30 %
09.08.2022 06:13 10,4 C 10,0 C 94 % 1024,9 hPa 0,0 l/m 3,2 km/h (1 Bft) S-SO 157 0,000 mm 9,5 C 10,4 C 6,4 km/h (2 Bft) 95,65 %
09.08.2022 06:12 10,5 C 10,0 C 94 % 1024,9 hPa 0,0 l/m 3,2 km/h (1 Bft) S 180 0,000 mm 9,6 C 10,5 C 4,8 km/h (1 Bft) 95,65 %
09.08.2022 06:11 10,5 C 10,6 C 94 % 1024,9 hPa 0,0 l/m 3,2 km/h (1 Bft) S 180 0,000 mm 9,6 C 10,5 C 6,4 km/h (2 Bft) 95,65 %
09.08.2022 06:10 10,5 C 10,6 C 94 % 1024,9 hPa 0,0 l/m 3,2 km/h (1 Bft) S-SO 157 0,000 mm 9,6 C 10,5 C 6,4 km/h (2 Bft) 95,65 %
09.08.2022 06:09 10,6 C 10,6 C 94 % 1024,9 hPa 0,0 l/m 3,2 km/h (1 Bft) S 180 0,000 mm 9,7 C 10,6 C 4,8 km/h (1 Bft) 100,00 %
09.08.2022 06:08 10,6 C 10,6 C 94 % 1024,9 hPa 0,0 l/m 3,2 km/h (1 Bft) S 180 0,000 mm 9,7 C 10,6 C 4,8 km/h (1 Bft) 91,30 %
09.08.2022 06:07 10,6 C 10,6 C 94 % 1024,9 hPa 0,0 l/m 4,8 km/h (1 Bft) S 180 0,000 mm 9,7 C 10,6 C 6,4 km/h (2 Bft) 95,65 %
09.08.2022 06:06 10,6 C 10,6 C 94 % 1024,9 hPa 0,0 l/m 4,8 km/h (1 Bft) S 180 0,000 mm 9,7 C 10,6 C 6,4 km/h (2 Bft) 95,65 %
09.08.2022 06:05 10,6 C 10,6 C 94 % 1024,9 hPa 0,0 l/m 4,8 km/h (1 Bft) S 180 0,000 mm 9,7 C 10,6 C 6,4 km/h (2 Bft) 95,65 %
09.08.2022 06:04 10,6 C 10,6 C 94 % 1024,8 hPa 0,0 l/m 4,8 km/h (1 Bft) S-SO 157 0,000 mm 9,7 C 10,6 C 6,4 km/h (2 Bft) 95,65 %
09.08.2022 06:03 10,6 C 10,6 C 94 % 1025,0 hPa 0,0 l/m 3,2 km/h (1 Bft) S-SO 157 0,000 mm 9,7 C 10,6 C 8,0 km/h (2 Bft) 95,65 %
09.08.2022 06:02 10,6 C 10,6 C 94 % 1024,8 hPa 0,0 l/m 3,2 km/h (1 Bft) S-SO 157 0,000 mm 9,7 C 10,6 C 8,0 km/h (2 Bft) 100,00 %
09.08.2022 06:01 10,6 C 10,6 C 94 % 1024,8 hPa 0,0 l/m 3,2 km/h (1 Bft) S-SO 157 0,000 mm 9,7 C 10,6 C 6,4 km/h (2 Bft) 86,96 %
09.08.2022 06:00 10,5 C 10,6 C 94 % 1024,9 hPa 0,0 l/m 4,8 km/h (1 Bft) S-SO 157 0,000 mm 9,6 C 10,5 C 6,4 km/h (2 Bft) 95,65 %
09.08.2022 05:59 10,4 C 10,6 C 94 % 1024,9 hPa 0,0 l/m 4,8 km/h (1 Bft) S-SO 157 0,000 mm 9,5 C 10,4 C 6,4 km/h (2 Bft) 100,00 %
09.08.2022 05:58 10,4 C 10,6 C 94 % 1024,9 hPa 0,0 l/m 6,4 km/h (2 Bft) S-SO 157 0,000 mm 9,5 C 10,4 C 8,0 km/h (2 Bft) 95,65 %
09.08.2022 05:57 10,4 C 10,6 C 94 % 1024,8 hPa 0,0 l/m 6,4 km/h (2 Bft) S-SO 157 0,000 mm 9,5 C 10,4 C 8,0 km/h (2 Bft) 86,96 %
09.08.2022 05:56 10,3 C 10,6 C 94 % 1024,9 hPa 0,0 l/m 6,4 km/h (2 Bft) S-SO 157 0,000 mm 9,4 C 10,3 C 8,0 km/h (2 Bft) 100,00 %
09.08.2022 05:55 10,3 C 10,0 C 94 % 1024,8 hPa 0,0 l/m 8,0 km/h (2 Bft) S-SO 157 0,000 mm 9,4 C 9,2 C 8,0 km/h (2 Bft) 95,65 %
09.08.2022 05:54 10,3 C 10,0 C 94 % 1024,8 hPa 0,0 l/m 6,4 km/h (2 Bft) S-SO 157 0,000 mm 9,4 C 10,3 C 8,0 km/h (2 Bft) 95,65 %
09.08.2022 05:53 10,3 C 10,0 C 94 % 1024,8 hPa 0,0 l/m 6,4 km/h (2 Bft) S-SO 157 0,000 mm 9,4 C 10,3 C 8,0 km/h (2 Bft) 100,00 %
09.08.2022 05:52 10,3 C 10,0 C 94 % 1024,8 hPa 0,0 l/m 6,4 km/h (2 Bft) S-SO 157 0,000 mm 9,4 C 10,3 C 8,0 km/h (2 Bft) 95,65 %
09.08.2022 05:51 10,3 C 10,0 C 94 % 1024,9 hPa 0,0 l/m 6,4 km/h (2 Bft) S-SO 157 0,000 mm 9,4 C 10,3 C 8,0 km/h (2 Bft) 95,65 %
09.08.2022 05:50 10,2 C 10,0 C 94 % 1024,9 hPa 0,0 l/m 6,4 km/h (2 Bft) S 180 0,000 mm 9,3 C 10,2 C 8,0 km/h (2 Bft) 100,00 %
09.08.2022 05:49 10,2 C 9,4 C 94 % 1024,8 hPa 0,0 l/m 6,4 km/h (2 Bft) S-SO 157 0,000 mm 9,3 C 10,2 C 8,0 km/h (2 Bft) 95,65 %
09.08.2022 05:48 10,2 C 9,4 C 94 % 1024,8 hPa 0,0 l/m 6,4 km/h (2 Bft) S-SO 157 0,000 mm 9,3 C 10,2 C 8,0 km/h (2 Bft) 95,65 %
09.08.2022 05:47 10,1 C 9,4 C 94 % 1024,8 hPa 0,0 l/m 4,8 km/h (1 Bft) S 180 0,000 mm 9,2 C 10,1 C 6,4 km/h (2 Bft) 100,00 %
09.08.2022 05:46 10,1 C 9,4 C 94 % 1024,8 hPa 0,0 l/m 4,8 km/h (1 Bft) S-SO 157 0,000 mm 9,2 C 10,1 C 8,0 km/h (2 Bft) 95,65 %
09.08.2022 05:45 10,1 C 9,4 C 94 % 1024,9 hPa 0,0 l/m 6,4 km/h (2 Bft) S-SO 157 0,000 mm 9,2 C 10,1 C 8,0 km/h (2 Bft) 91,30 %
09.08.2022 05:44 10,1 C 9,4 C 94 % 1024,8 hPa 0,0 l/m 6,4 km/h (2 Bft) S-SO 157 0,000 mm 9,2 C 10,1 C 8,0 km/h (2 Bft) 91,30 %
09.08.2022 05:43 10,1 C 9,4 C 94 % 1024,8 hPa 0,0 l/m 6,4 km/h (2 Bft) S-SO 157 0,000 mm 9,2 C 10,1 C 8,0 km/h (2 Bft) 95,65 %
09.08.2022 05:42 10,1 C 9,4 C 94 % 1024,9 hPa 0,0 l/m 4,8 km/h (1 Bft) S-SO 157 0,000 mm 9,2 C 10,1 C 6,4 km/h (2 Bft) 95,65 %
09.08.2022 05:41 10,1 C 9,4 C 94 % 1024,8 hPa 0,0 l/m 4,8 km/h (1 Bft) S-SO 157 0,000 mm 9,2 C 10,1 C 6,4 km/h (2 Bft) 100,00 %
09.08.2022 05:40 10,1 C 9,4 C 94 % 1024,9 hPa 0,0 l/m 4,8 km/h (1 Bft) S-SO 157 0,000 mm 9,2 C 10,1 C 8,0 km/h (2 Bft) 91,30 %
09.08.2022 05:39 10,1 C 9,4 C 94 % 1024,8 hPa 0,0 l/m 4,8 km/h (1 Bft) S-SO 157 0,000 mm 9,2 C 10,1 C 8,0 km/h (2 Bft) 95,65 %
09.08.2022 05:38 10,1 C 9,4 C 94 % 1024,7 hPa 0,0 l/m 6,4 km/h (2 Bft) S-SO 157 0,000 mm 9,2 C 10,1 C 8,0 km/h (2 Bft) 100,00 %
09.08.2022 05:37 10,1 C 9,4 C 93 % 1024,8 hPa 0,0 l/m 8,0 km/h (2 Bft) S-SO 157 0,000 mm 9,0 C 9,0 C 9,7 km/h (2 Bft) 95,65 %
09.08.2022 05:36 10,1 C 9,4 C 94 % 1024,7 hPa 0,0 l/m 8,0 km/h (2 Bft) S-SO 157 0,000 mm 9,2 C 9,0 C 9,7 km/h (2 Bft) 95,65 %
09.08.2022 05:35 10,1 C 9,4 C 94 % 1024,8 hPa 0,0 l/m 8,0 km/h (2 Bft) S-SO 157 0,000 mm 9,2 C 9,0 C 9,7 km/h (2 Bft) 100,00 %
09.08.2022 05:34 10,1 C 9,4 C 93 % 1024,8 hPa 0,0 l/m 6,4 km/h (2 Bft) S-SO 157 0,000 mm 9,0 C 10,1 C 8,0 km/h (2 Bft) 91,30 %
09.08.2022 05:33 10,1 C 9,4 C 93 % 1024,9 hPa 0,0 l/m 6,4 km/h (2 Bft) S-SO 157 0,000 mm 9,0 C 10,1 C 8,0 km/h (2 Bft) 91,30 %
09.08.2022 05:32 10,1 C 9,4 C 94 % 1024,8 hPa 0,0 l/m 6,4 km/h (2 Bft) S-SO 157 0,000 mm 9,2 C 10,1 C 8,0 km/h (2 Bft) 95,65 %
09.08.2022 05:31 10,2 C 9,4 C 94 % 1024,8 hPa 0,0 l/m 6,4 km/h (2 Bft) S-SO 157 0,000 mm 9,3 C 10,2 C 8,0 km/h (2 Bft) 95,65 %
09.08.2022 05:30 10,2 C 9,4 C 94 % 1024,8 hPa 0,0 l/m 8,0 km/h (2 Bft) S-SO 157 0,000 mm 9,3 C 9,1 C 9,7 km/h (2 Bft) 95,65 %
09.08.2022 05:29 10,2 C 9,4 C 94 % 1024,8 hPa 0,0 l/m 6,4 km/h (2 Bft) S-SO 157 0,000 mm 9,3 C 10,2 C 9,7 km/h (2 Bft) 100,00 %
09.08.2022 05:28 10,2 C 9,4 C 94 % 1024,8 hPa 0,0 l/m 6,4 km/h (2 Bft) S-SO 157 0,000 mm 9,3 C 10,2 C 8,0 km/h (2 Bft) 91,30 %
09.08.2022 05:27 10,3 C 9,4 C 94 % 1024,8 hPa 0,0 l/m 3,2 km/h (1 Bft) S-SO 157 0,000 mm 9,4 C 10,3 C 6,4 km/h (2 Bft) 95,65 %
09.08.2022 05:26 10,2 C 9,4 C 94 % 1024,8 hPa 0,0 l/m 3,2 km/h (1 Bft) S-SO 157 0,000 mm 9,3 C 10,2 C 6,4 km/h (2 Bft) 95,65 %
09.08.2022 05:25 10,2 C 9,4 C 94 % 1024,8 hPa 0,0 l/m 4,8 km/h (1 Bft) S-SO 157 0,000 mm 9,3 C 10,2 C 6,4 km/h (2 Bft) 95,65 %
09.08.2022 05:24 10,2 C 9,4 C 94 % 1024,8 hPa 0,0 l/m 4,8 km/h (1 Bft) S-SO 157 0,000 mm 9,3 C 10,2 C 8,0 km/h (2 Bft) 95,65 %
09.08.2022 05:23 10,1 C 9,4 C 94 % 1024,8 hPa 0,0 l/m 4,8 km/h (1 Bft) S-SO 157 0,000 mm 9,2 C 10,1 C 8,0 km/h (2 Bft) 100,00 %
09.08.2022 05:22 10,1 C 9,4 C 93 % 1024,8 hPa 0,0 l/m 6,4 km/h (2 Bft) S-SO 157 0,000 mm 9,0 C 10,1 C 8,0 km/h (2 Bft) 91,30 %
09.08.2022 05:21 10,1 C 9,4 C 94 % 1024,8 hPa 0,0 l/m 6,4 km/h (2 Bft) S-SO 157 0,000 mm 9,2 C 10,1 C 8,0 km/h (2 Bft) 95,65 %
09.08.2022 05:20 10,1 C 9,4 C 94 % 1024,8 hPa 0,0 l/m 6,4 km/h (2 Bft) S-SO 157 0,000 mm 9,2 C 10,1 C 8,0 km/h (2 Bft) 95,65 %
09.08.2022 05:19 10,2 C 9,4 C 94 % 1024,8 hPa 0,0 l/m 4,8 km/h (1 Bft) S-SO 157 0,000 mm 9,3 C 10,2 C 6,4 km/h (2 Bft) 95,65 %
09.08.2022 05:18 10,2 C 9,4 C 94 % 1024,9 hPa 0,0 l/m 4,8 km/h (1 Bft) S-SO 157 0,000 mm 9,3 C 10,2 C 6,4 km/h (2 Bft) 95,65 %
09.08.2022 05:17 10,2 C 9,4 C 94 % 1024,8 hPa 0,0 l/m 6,4 km/h (2 Bft) S-SO 157 0,000 mm 9,3 C 10,2 C 8,0 km/h (2 Bft) 95,65 %
09.08.2022 05:16 10,2 C 9,4 C 94 % 1024,9 hPa 0,0 l/m 8,0 km/h (2 Bft) S-SO 157 0,000 mm 9,3 C 9,1 C 8,0 km/h (2 Bft) 95,65 %
09.08.2022 05:15 10,2 C 9,4 C 94 % 1024,9 hPa 0,0 l/m 8,0 km/h (2 Bft) S-SO 157 0,000 mm 9,3 C 9,1 C 8,0 km/h (2 Bft) 95,65 %
09.08.2022 05:14 10,2 C 9,4 C 94 % 1024,8 hPa 0,0 l/m 6,4 km/h (2 Bft) S-SO 157 0,000 mm 9,3 C 10,2 C 8,0 km/h (2 Bft) 91,30 %
09.08.2022 05:13 10,1 C 9,4 C 94 % 1024,8 hPa 0,0 l/m 6,4 km/h (2 Bft) S-SO 157 0,000 mm 9,2 C 10,1 C 8,0 km/h (2 Bft) 95,65 %
09.08.2022 05:12 10,2 C 9,4 C 94 % 1024,8 hPa 0,0 l/m 6,4 km/h (2 Bft) S-SO 157 0,000 mm 9,3 C 10,2 C 6,4 km/h (2 Bft) 95,65 %
09.08.2022 05:11 10,2 C 9,4 C 94 % 1024,9 hPa 0,0 l/m 4,8 km/h (1 Bft) S-SO 157 0,000 mm 9,3 C 10,2 C 8,0 km/h (2 Bft) 95,65 %
09.08.2022 05:10 10,2 C 9,4 C 94 % 1024,9 hPa 0,0 l/m 4,8 km/h (1 Bft) S-SO 157 0,000 mm 9,3 C 10,2 C 6,4 km/h (2 Bft) 100,00 %
09.08.2022 05:09 10,2 C 9,4 C 93 % 1024,9 hPa 0,0 l/m 6,4 km/h (2 Bft) S-SO 157 0,000 mm 9,1 C 10,2 C 8,0 km/h (2 Bft) 91,30 %
09.08.2022 05:08 10,2 C 9,4 C 93 % 1024,9 hPa 0,0 l/m 6,4 km/h (2 Bft) S-SO 157 0,000 mm 9,1 C 10,2 C 8,0 km/h (2 Bft) 95,65 %
09.08.2022 05:07 10,2 C 9,4 C 93 % 1024,9 hPa 0,0 l/m 6,4 km/h (2 Bft) S-SO 157 0,000 mm 9,1 C 10,2 C 8,0 km/h (2 Bft) 100,00 %
09.08.2022 05:06 10,2 C 9,4 C 93 % 1024,9 hPa 0,0 l/m 6,4 km/h (2 Bft) S-SO 157 0,000 mm 9,1 C 10,2 C 8,0 km/h (2 Bft) 91,30 %
09.08.2022 05:05 10,3 C 9,4 C 93 % 1024,9 hPa 0,0 l/m 6,4 km/h (2 Bft) S-SO 157 0,000 mm 9,2 C 10,3 C 6,4 km/h (2 Bft) 95,65 %
09.08.2022 05:04 10,3 C 9,4 C 93 % 1024,9 hPa 0,0 l/m 4,8 km/h (1 Bft) S-SO 157 0,000 mm 9,2 C 10,3 C 6,4 km/h (2 Bft) 100,00 %
09.08.2022 05:03 10,3 C 9,4 C 93 % 1024,9 hPa 0,0 l/m 4,8 km/h (1 Bft) S-SO 157 0,000 mm 9,2 C 10,3 C 6,4 km/h (2 Bft) 95,65 %
09.08.2022 05:02 10,3 C 9,4 C 93 % 1024,8 hPa 0,0 l/m 4,8 km/h (1 Bft) S-SO 157 0,000 mm 9,2 C 10,3 C 6,4 km/h (2 Bft) 95,65 %
09.08.2022 05:01 10,3 C 9,4 C 93 % 1024,9 hPa 0,0 l/m 4,8 km/h (1 Bft) S-SO 157 0,000 mm 9,2 C 10,3 C 6,4 km/h (2 Bft) 91,30 %
09.08.2022 05:00 10,3 C 9,4 C 93 % 1024,8 hPa 0,0 l/m 4,8 km/h (1 Bft) S-SO 157 0,000 mm 9,2 C 10,3 C 6,4 km/h (2 Bft) 91,30 %
09.08.2022 04:59 10,3 C 9,4 C 93 % 1024,9 hPa 0,0 l/m 3,2 km/h (1 Bft) S-SO 157 0,000 mm 9,2 C 10,3 C 6,4 km/h (2 Bft) 95,65 %
09.08.2022 04:58 10,3 C 9,4 C 94 % 1024,8 hPa 0,0 l/m 3,2 km/h (1 Bft) S-SO 157 0,000 mm 9,4 C 10,3 C 6,4 km/h (2 Bft) 95,65 %
09.08.2022 04:57 10,4 C 9,4 C 94 % 1024,8 hPa 0,0 l/m 3,2 km/h (1 Bft) S-SO 157 0,000 mm 9,5 C 10,4 C 4,8 km/h (1 Bft) 91,30 %
09.08.2022 04:56 10,4 C 9,4 C 93 % 1024,9 hPa 0,0 l/m 4,8 km/h (1 Bft) S-SO 157 0,000 mm 9,3 C 10,4 C 6,4 km/h (2 Bft) 95,65 %
09.08.2022 04:55 10,4 C 9,4 C 93 % 1024,7 hPa 0,0 l/m 4,8 km/h (1 Bft) S-SO 157 0,000 mm 9,3 C 10,4 C 6,4 km/h (2 Bft) 95,65 %
09.08.2022 04:54 10,3 C 9,4 C 93 % 1024,8 hPa 0,0 l/m 4,8 km/h (1 Bft) S-SO 157 0,000 mm 9,2 C 10,3 C 6,4 km/h (2 Bft) 95,65 %
09.08.2022 04:53 10,3 C 9,4 C 93 % 1024,8 hPa 0,0 l/m 4,8 km/h (1 Bft) S-SO 157 0,000 mm 9,2 C 10,3 C 6,4 km/h (2 Bft) 86,96 %
09.08.2022 04:52 10,3 C 9,4 C 93 % 1024,8 hPa 0,0 l/m 6,4 km/h (2 Bft) S-SO 157 0,000 mm 9,2 C 10,3 C 8,0 km/h (2 Bft) 100,00 %
09.08.2022 04:51 10,3 C 9,4 C 93 % 1024,8 hPa 0,0 l/m 8,0 km/h (2 Bft) S-SO 157 0,000 mm 9,2 C 9,2 C 8,0 km/h (2 Bft) 91,30 %
09.08.2022 04:50 10,3 C 9,4 C 93 % 1024,9 hPa 0,0 l/m 8,0 km/h (2 Bft) S-SO 157 0,000 mm 9,2 C 9,2 C 9,7 km/h (2 Bft) 95,65 %
09.08.2022 04:49 10,4 C 9,4 C 93 % 1024,8 hPa 0,0 l/m 6,4 km/h (2 Bft) S-SO 157 0,000 mm 9,3 C 10,4 C 8,0 km/h (2 Bft) 95,65 %
09.08.2022 04:48 10,4 C 9,4 C 93 % 1024,8 hPa 0,0 l/m 6,4 km/h (2 Bft) S-SO 157 0,000 mm 9,3 C 10,4 C 8,0 km/h (2 Bft) 95,65 %
09.08.2022 04:47 10,4 C 9,4 C 93 % 1024,8 hPa 0,0 l/m 4,8 km/h (1 Bft) S-SO 157 0,000 mm 9,3 C 10,4 C 6,4 km/h (2 Bft) 91,30 %
09.08.2022 04:46 10,4 C 9,4 C 93 % 1024,9 hPa 0,0 l/m 3,2 km/h (1 Bft) S-SO 157 0,000 mm 9,3 C 10,4 C 6,4 km/h (2 Bft) 100,00 %
09.08.2022 04:45 10,4 C 9,4 C 93 % 1024,9 hPa 0,0 l/m 3,2 km/h (1 Bft) S-SO 157 0,000 mm 9,3 C 10,4 C 6,4 km/h (2 Bft) 91,30 %
09.08.2022 04:44 10,4 C 9,4 C 93 % 1024,9 hPa 0,0 l/m 3,2 km/h (1 Bft) S-SO 157 0,000 mm 9,3 C 10,4 C 6,4 km/h (2 Bft) 91,30 %
09.08.2022 04:43 10,4 C 9,4 C 93 % 1024,9 hPa 0,0 l/m 4,8 km/h (1 Bft) S-SO 157 0,000 mm 9,3 C 10,4 C 6,4 km/h (2 Bft) 95,65 %
09.08.2022 04:42 10,4 C 9,4 C 93 % 1024,9 hPa 0,0 l/m 4,8 km/h (1 Bft) S-SO 157 0,000 mm 9,3 C 10,4 C 6,4 km/h (2 Bft) 91,30 %
09.08.2022 04:41 10,4 C 9,4 C 93 % 1024,9 hPa 0,0 l/m 4,8 km/h (1 Bft) S-SO 157 0,000 mm 9,3 C 10,4 C 8,0 km/h (2 Bft) 95,65 %
09.08.2022 04:40 10,4 C 9,4 C 93 % 1024,9 hPa 0,0 l/m 6,4 km/h (2 Bft) S-SO 157 0,000 mm 9,3 C 10,4 C 6,4 km/h (2 Bft) 91,30 %
09.08.2022 04:39 10,4 C 9,4 C 94 % 1024,9 hPa 0,0 l/m 6,4 km/h (2 Bft) S-SO 157 0,000 mm 9,5 C 10,4 C 8,0 km/h (2 Bft) 95,65 %
09.08.2022 04:38 10,4 C 9,4 C 94 % 1024,9 hPa 0,0 l/m 4,8 km/h (1 Bft) S-SO 157 0,000 mm 9,5 C 10,4 C 6,4 km/h (2 Bft) 91,30 %
09.08.2022 04:37 10,4 C 9,4 C 93 % 1024,9 hPa 0,0 l/m 6,4 km/h (2 Bft) S-SO 157 0,000 mm 9,3 C 10,4 C 8,0 km/h (2 Bft) 100,00 %
09.08.2022 04:36 10,4 C 9,4 C 93 % 1024,9 hPa 0,0 l/m 4,8 km/h (1 Bft) S-SO 157 0,000 mm 9,3 C 10,4 C 8,0 km/h (2 Bft) 91,30 %
09.08.2022 04:35 10,4 C 9,4 C 93 % 1024,8 hPa 0,0 l/m 6,4 km/h (2 Bft) S-SO 157 0,000 mm 9,3 C 10,4 C 9,7 km/h (2 Bft) 95,65 %
09.08.2022 04:34 10,4 C 9,4 C 93 % 1024,9 hPa 0,0 l/m 8,0 km/h (2 Bft) S-SO 157 0,000 mm 9,3 C 9,3 C 8,0 km/h (2 Bft) 91,30 %
09.08.2022 04:33 10,4 C 9,4 C 93 % 1024,9 hPa 0,0 l/m 8,0 km/h (2 Bft) S-SO 157 0,000 mm 9,3 C 9,3 C 9,7 km/h (2 Bft) 95,65 %
09.08.2022 04:32 10,4 C 9,4 C 93 % 1024,8 hPa 0,0 l/m 6,4 km/h (2 Bft) S-SO 157 0,000 mm 9,3 C 10,4 C 8,0 km/h (2 Bft) 91,30 %
09.08.2022 04:31 10,5 C 9,4 C 93 % 1024,9 hPa 0,0 l/m 6,4 km/h (2 Bft) S-SO 157 0,000 mm 9,4 C 10,5 C 8,0 km/h (2 Bft) 91,30 %
09.08.2022 04:30 10,5 C 9,4 C 93 % 1024,9 hPa 0,0 l/m 6,4 km/h (2 Bft) S-SO 157 0,000 mm 9,4 C 10,5 C 8,0 km/h (2 Bft) 95,65 %
09.08.2022 04:29 10,5 C 9,4 C 93 % 1024,8 hPa 0,0 l/m 6,4 km/h (2 Bft) S-SO 157 0,000 mm 9,4 C 10,5 C 8,0 km/h (2 Bft) 91,30 %
09.08.2022 04:28 10,5 C 9,4 C 93 % 1024,8 hPa 0,0 l/m 4,8 km/h (1 Bft) S-SO 157 0,000 mm 9,4 C 10,5 C 6,4 km/h (2 Bft) 91,30 %
09.08.2022 04:27 10,4 C 9,4 C 93 % 1024,8 hPa 0,0 l/m 4,8 km/h (1 Bft) S-SO 157 0,000 mm 9,3 C 10,4 C 6,4 km/h (2 Bft) 95,65 %
09.08.2022 04:26 10,5 C 9,4 C 93 % 1024,8 hPa 0,0 l/m 4,8 km/h (1 Bft) S-SO 157 0,000 mm 9,4 C 10,5 C 6,4 km/h (2 Bft) 95,65 %
09.08.2022 04:25 10,5 C 9,4 C 93 % 1024,8 hPa 0,0 l/m 4,8 km/h (1 Bft) S-SO 157 0,000 mm 9,4 C 10,5 C 6,4 km/h (2 Bft) 86,96 %
09.08.2022 04:24 10,6 C 9,4 C 93 % 1024,9 hPa 0,0 l/m 4,8 km/h (1 Bft) S-SO 157 0,000 mm 9,5 C 10,6 C 6,4 km/h (2 Bft) 100,00 %
09.08.2022 04:23 10,6 C 10,0 C 93 % 1024,8 hPa 0,0 l/m 4,8 km/h (1 Bft) S-SO 157 0,000 mm 9,5 C 10,6 C 6,4 km/h (2 Bft) 86,96 %
09.08.2022 04:22 10,6 C 10,0 C 93 % 1024,8 hPa 0,0 l/m 3,2 km/h (1 Bft) S-SO 157 0,000 mm 9,5 C 10,6 C 6,4 km/h (2 Bft) 95,65 %
09.08.2022 04:21 10,7 C 10,0 C 93 % 1024,8 hPa 0,0 l/m 4,8 km/h (1 Bft) S-SO 157 0,000 mm 9,6 C 10,7 C 6,4 km/h (2 Bft) 95,65 %
09.08.2022 04:20 10,7 C 10,0 C 93 % 1024,8 hPa 0,0 l/m 4,8 km/h (1 Bft) S-SO 157 0,000 mm 9,6 C 10,7 C 6,4 km/h (2 Bft) 95,65 %
09.08.2022 04:19 10,7 C 10,0 C 93 % 1024,8 hPa 0,0 l/m 4,8 km/h (1 Bft) S-SO 157 0,000 mm 9,6 C 10,7 C 6,4 km/h (2 Bft) 86,96 %
09.08.2022 04:18 10,7 C 10,0 C 93 % 1024,8 hPa 0,0 l/m 4,8 km/h (1 Bft) S-SO 157 0,000 mm 9,6 C 10,7 C 6,4 km/h (2 Bft) 100,00 %
09.08.2022 04:17 10,7 C 10,0 C 93 % 1024,8 hPa 0,0 l/m 6,4 km/h (2 Bft) S-SO 157 0,000 mm 9,6 C 10,7 C 8,0 km/h (2 Bft) 91,30 %
09.08.2022 04:16 10,7 C 10,0 C 93 % 1024,8 hPa 0,0 l/m 6,4 km/h (2 Bft) S-SO 157 0,000 mm 9,6 C 10,7 C 8,0 km/h (2 Bft) 91,30 %
09.08.2022 04:15 10,7 C 10,0 C 93 % 1024,8 hPa 0,0 l/m 6,4 km/h (2 Bft) S-SO 157 0,000 mm 9,6 C 10,7 C 8,0 km/h (2 Bft) 95,65 %
09.08.2022 04:14 10,7 C 10,0 C 93 % 1024,9 hPa 0,0 l/m 4,8 km/h (1 Bft) S-SO 157 0,000 mm 9,6 C 10,7 C 6,4 km/h (2 Bft) 91,30 %
09.08.2022 04:13 10,7 C 10,0 C 93 % 1024,8 hPa 0,0 l/m 4,8 km/h (1 Bft) S-SO 157 0,000 mm 9,6 C 10,7 C 6,4 km/h (2 Bft) 86,96 %
09.08.2022 04:12 10,7 C 10,0 C 93 % 1024,8 hPa 0,0 l/m 4,8 km/h (1 Bft) S-SO 157 0,000 mm 9,6 C 10,7 C 6,4 km/h (2 Bft) 91,30 %
09.08.2022 04:11 10,7 C 10,0 C 93 % 1024,9 hPa 0,0 l/m 4,8 km/h (1 Bft) S-SO 157 0,000 mm 9,6 C 10,7 C 6,4 km/h (2 Bft) 95,65 %
09.08.2022 04:10 10,7 C 10,0 C 93 % 1024,8 hPa 0,0 l/m 4,8 km/h (1 Bft) S-SO 157 0,000 mm 9,6 C 10,7 C 6,4 km/h (2 Bft) 91,30 %
09.08.2022 04:09 10,7 C 10,0 C 93 % 1024,8 hPa 0,0 l/m 4,8 km/h (1 Bft) S-SO 157 0,000 mm 9,6 C 10,7 C 6,4 km/h (2 Bft) 100,00 %
09.08.2022 04:08 10,7 C 10,0 C 93 % 1024,9 hPa 0,0 l/m 4,8 km/h (1 Bft) S-SO 157 0,000 mm 9,6 C 10,7 C 6,4 km/h (2 Bft) 95,65 %
09.08.2022 04:07 10,7 C 10,0 C 93 % 1024,8 hPa 0,0 l/m 6,4 km/h (2 Bft) S-SO 157 0,000 mm 9,6 C 10,7 C 6,4 km/h (2 Bft) 91,30 %
09.08.2022 04:06 10,7 C 10,0 C 93 % 1024,8 hPa 0,0 l/m 6,4 km/h (2 Bft) S-SO 157 0,000 mm 9,6 C 10,7 C 8,0 km/h (2 Bft) 95,65 %
09.08.2022 04:05 10,7 C 10,0 C 93 % 1024,8 hPa 0,0 l/m 6,4 km/h (2 Bft) S-SO 157 0,000 mm 9,6 C 10,7 C 8,0 km/h (2 Bft) 95,65 %
09.08.2022 04:04 10,7 C 10,0 C 93 % 1024,9 hPa 0,0 l/m 6,4 km/h (2 Bft) S-SO 157 0,000 mm 9,6 C 10,7 C 8,0 km/h (2 Bft) 91,30 %
09.08.2022 04:03 10,7 C 10,0 C 93 % 1024,8 hPa 0,0 l/m 6,4 km/h (2 Bft) S-SO 157 0,000 mm 9,6 C 10,7 C 8,0 km/h (2 Bft) 100,00 %
09.08.2022 04:02 10,7 C 10,0 C 93 % 1024,8 hPa 0,0 l/m 3,2 km/h (1 Bft) S-SO 157 0,000 mm 9,6 C 10,7 C 6,4 km/h (2 Bft) 91,30 %
09.08.2022 04:01 10,6 C 10,0 C 93 % 1024,9 hPa 0,0 l/m 4,8 km/h (1 Bft) S-SO 157 0,000 mm 9,5 C 10,6 C 6,4 km/h (2 Bft) 95,65 %
09.08.2022 04:00 10,6 C 10,0 C 93 % 1024,8 hPa 0,0 l/m 3,2 km/h (1 Bft) S-SO 157 0,000 mm 9,5 C 10,6 C 6,4 km/h (2 Bft) 100,00 %
09.08.2022 03:59 10,6 C 10,0 C 93 % 1024,8 hPa 0,0 l/m 3,2 km/h (1 Bft) S-SO 157 0,000 mm 9,5 C 10,6 C 6,4 km/h (2 Bft) 95,65 %
09.08.2022 03:58 10,6 C 9,4 C 93 % 1024,8 hPa 0,0 l/m 4,8 km/h (1 Bft) S-SO 157 0,000 mm 9,5 C 10,6 C 6,4 km/h (2 Bft) 95,65 %
09.08.2022 03:57 10,6 C 9,4 C 93 % 1024,8 hPa 0,0 l/m 4,8 km/h (1 Bft) S-SO 157 0,000 mm 9,5 C 10,6 C 6,4 km/h (2 Bft) 100,00 %
09.08.2022 03:56 10,6 C 10,0 C 93 % 1024,8 hPa 0,0 l/m 4,8 km/h (1 Bft) S-SO 157 0,000 mm 9,5 C 10,6 C 8,0 km/h (2 Bft) 95,65 %
09.08.2022 03:55 10,6 C 10,0 C 93 % 1024,8 hPa 0,0 l/m 6,4 km/h (2 Bft) S-SO 157 0,000 mm 9,5 C 10,6 C 8,0 km/h (2 Bft) 95,65 %
09.08.2022 03:54 10,6 C 10,0 C 93 % 1024,9 hPa 0,0 l/m 6,4 km/h (2 Bft) S-SO 157 0,000 mm 9,5 C 10,6 C 8,0 km/h (2 Bft) 100,00 %
09.08.2022 03:53 10,6 C 10,0 C 93 % 1024,9 hPa 0,0 l/m 6,4 km/h (2 Bft) S-SO 157 0,000 mm 9,5 C 10,6 C 8,0 km/h (2 Bft) 95,65 %
09.08.2022 03:52 10,6 C 10,0 C 93 % 1024,8 hPa 0,0 l/m 6,4 km/h (2 Bft) S-SO 157 0,000 mm 9,5 C 10,6 C 8,0 km/h (2 Bft) 95,65 %
09.08.2022 03:51 10,7 C 10,0 C 93 % 1024,8 hPa 0,0 l/m 6,4 km/h (2 Bft) S-SO 157 0,000 mm 9,6 C 10,7 C 8,0 km/h (2 Bft) 100,00 %
09.08.2022 03:50 10,7 C 10,0 C 93 % 1024,8 hPa 0,0 l/m 6,4 km/h (2 Bft) S-SO 157 0,000 mm 9,6 C 10,7 C 8,0 km/h (2 Bft) 91,30 %
09.08.2022 03:49 10,7 C 10,0 C 93 % 1024,8 hPa 0,0 l/m 4,8 km/h (1 Bft) S-SO 157 0,000 mm 9,6 C 10,7 C 8,0 km/h (2 Bft) 91,30 %
09.08.2022 03:48 10,7 C 10,0 C 93 % 1024,8 hPa 0,0 l/m 4,8 km/h (1 Bft) S-SO 157 0,000 mm 9,6 C 10,7 C 6,4 km/h (2 Bft) 100,00 %
09.08.2022 03:47 10,7 C 10,0 C 93 % 1024,8 hPa 0,0 l/m 4,8 km/h (1 Bft) S-SO 157 0,000 mm 9,6 C 10,7 C 6,4 km/h (2 Bft) 95,65 %
09.08.2022 03:46 10,6 C 10,0 C 93 % 1024,8 hPa 0,0 l/m 4,8 km/h (1 Bft) S-SO 157 0,000 mm 9,5 C 10,6 C 6,4 km/h (2 Bft) 91,30 %
09.08.2022 03:45 10,7 C 10,0 C 93 % 1024,8 hPa 0,0 l/m 4,8 km/h (1 Bft) S-SO 157 0,000 mm 9,6 C 10,7 C 6,4 km/h (2 Bft) 95,65 %
09.08.2022 03:44 10,6 C 10,0 C 93 % 1024,8 hPa 0,0 l/m 4,8 km/h (1 Bft) S-SO 157 0,000 mm 9,5 C 10,6 C 6,4 km/h (2 Bft) 100,00 %
09.08.2022 03:43 10,7 C 10,0 C 93 % 1024,9 hPa 0,0 l/m 4,8 km/h (1 Bft) S-SO 157 0,000 mm 9,6 C 10,7 C 8,0 km/h (2 Bft) 91,30 %
09.08.2022 03:42 10,7 C 10,0 C 93 % 1024,8 hPa 0,0 l/m 4,8 km/h (1 Bft) S-SO 157 0,000 mm 9,6 C 10,7 C 6,4 km/h (2 Bft) 86,96 %
09.08.2022 03:41 10,7 C 10,0 C 93 % 1024,8 hPa 0,0 l/m 4,8 km/h (1 Bft) S-SO 157 0,000 mm 9,6 C 10,7 C 6,4 km/h (2 Bft) 100,00 %
09.08.2022 03:40 10,7 C 10,0 C 93 % 1024,8 hPa 0,0 l/m 4,8 km/h (1 Bft) S-SO 157 0,000 mm 9,6 C 10,7 C 6,4 km/h (2 Bft) 91,30 %
09.08.2022 03:39 10,7 C 10,0 C 93 % 1024,8 hPa 0,0 l/m 3,2 km/h (1 Bft) S-SO 157 0,000 mm 9,6 C 10,7 C 6,4 km/h (2 Bft) 95,65 %
09.08.2022 03:38 10,7 C 10,0 C 93 % 1024,8 hPa 0,0 l/m 4,8 km/h (1 Bft) S-SO 157 0,000 mm 9,6 C 10,7 C 6,4 km/h (2 Bft) 100,00 %
09.08.2022 03:37 10,7 C 10,0 C 93 % 1024,8 hPa 0,0 l/m 6,4 km/h (2 Bft) S-SO 157 0,000 mm 9,6 C 10,7 C 8,0 km/h (2 Bft) 95,65 %
09.08.2022 03:36 10,7 C 10,0 C 93 % 1024,8 hPa 0,0 l/m 4,8 km/h (1 Bft) S-SO 157 0,000 mm 9,6 C 10,7 C 8,0 km/h (2 Bft) 91,30 %
09.08.2022 03:35 10,7 C 10,0 C 93 % 1024,9 hPa 0,0 l/m 4,8 km/h (1 Bft) S-SO 157 0,000 mm 9,6 C 10,7 C 6,4 km/h (2 Bft) 100,00 %
09.08.2022 03:34 10,8 C 10,0 C 93 % 1024,7 hPa 0,0 l/m 6,4 km/h (2 Bft) S-SO 157 0,000 mm 9,7 C 10,8 C 6,4 km/h (2 Bft) 95,65 %
09.08.2022 03:33 10,8 C 10,0 C 93 % 1024,9 hPa 0,0 l/m 4,8 km/h (1 Bft) S-SO 157 0,000 mm 9,7 C 10,8 C 6,4 km/h (2 Bft) 95,65 %
09.08.2022 03:32 10,8 C 10,0 C 93 % 1024,9 hPa 0,0 l/m 4,8 km/h (1 Bft) S-SO 157 0,000 mm 9,7 C 10,8 C 6,4 km/h (2 Bft) 100,00 %
09.08.2022 03:31 10,7 C 10,0 C 93 % 1024,9 hPa 0,0 l/m 3,2 km/h (1 Bft) S-SO 157 0,000 mm 9,6 C 10,7 C 4,8 km/h (1 Bft) 95,65 %
09.08.2022 03:30 10,8 C 10,0 C 93 % 1024,9 hPa 0,0 l/m 6,4 km/h (2 Bft) S-SO 157 0,000 mm 9,7 C 10,8 C 8,0 km/h (2 Bft) 95,65 %
09.08.2022 03:29 10,7 C 10,0 C 93 % 1024,9 hPa 0,0 l/m 4,8 km/h (1 Bft) S-SO 157 0,000 mm 9,6 C 10,7 C 8,0 km/h (2 Bft) 100,00 %
09.08.2022 03:28 10,7 C 10,0 C 93 % 1024,9 hPa 0,0 l/m 6,4 km/h (2 Bft) S-SO 157 0,000 mm 9,6 C 10,7 C 8,0 km/h (2 Bft) 95,65 %
09.08.2022 03:27 10,8 C 10,0 C 93 % 1024,9 hPa 0,0 l/m 6,4 km/h (2 Bft) S-SO 157 0,000 mm 9,7 C 10,8 C 8,0 km/h (2 Bft) 95,65 %
09.08.2022 03:26 10,8 C 10,0 C 93 % 1024,8 hPa 0,0 l/m 6,4 km/h (2 Bft) S-SO 157 0,000 mm 9,7 C 10,8 C 6,4 km/h (2 Bft) 100,00 %
09.08.2022 03:25 10,8 C 10,0 C 93 % 1024,8 hPa 0,0 l/m 6,4 km/h (2 Bft) S-SO 157 0,000 mm 9,7 C 10,8 C 6,4 km/h (2 Bft) 95,65 %
09.08.2022 03:24 10,8 C 10,0 C 93 % 1024,9 hPa 0,0 l/m 4,8 km/h (1 Bft) S-SO 157 0,000 mm 9,7 C 10,8 C 6,4 km/h (2 Bft) 95,65 %
09.08.2022 03:23 10,8 C 10,0 C 93 % 1024,9 hPa 0,0 l/m 4,8 km/h (1 Bft) S-SO 157 0,000 mm 9,7 C 10,8 C 6,4 km/h (2 Bft) 100,00 %
09.08.2022 03:22 10,8 C 10,0 C 93 % 1024,9 hPa 0,0 l/m 3,2 km/h (1 Bft) S-SO 157 0,000 mm 9,7 C 10,8 C 6,4 km/h (2 Bft) 95,65 %
09.08.2022 03:21 10,8 C 10,0 C 93 % 1024,7 hPa 0,0 l/m 4,8 km/h (1 Bft) S-SO 157 0,000 mm 9,7 C 10,8 C 6,4 km/h (2 Bft) 95,65 %
09.08.2022 03:20 10,8 C 10,0 C 93 % 1024,8 hPa 0,0 l/m 4,8 km/h (1 Bft) S-SO 157 0,000 mm 9,7 C 10,8 C 6,4 km/h (2 Bft) 95,65 %
09.08.2022 03:19 10,8 C 10,0 C 93 % 1024,8 hPa 0,0 l/m 4,8 km/h (1 Bft) S-SO 157 0,000 mm 9,7 C 10,8 C 6,4 km/h (2 Bft) 95,65 %
09.08.2022 03:18 10,8 C 10,0 C 93 % 1024,7 hPa 0,0 l/m 6,4 km/h (2 Bft) S-SO 157 0,000 mm 9,7 C 10,8 C 8,0 km/h (2 Bft) 95,65 %
09.08.2022 03:17 10,8 C 10,0 C 93 % 1024,8 hPa 0,0 l/m 6,4 km/h (2 Bft) S-SO 157 0,000 mm 9,7 C 10,8 C 8,0 km/h (2 Bft) 100,00 %
09.08.2022 03:16 10,8 C 10,0 C 93 % 1024,8 hPa 0,0 l/m 4,8 km/h (1 Bft) S-SO 157 0,000 mm 9,7 C 10,8 C 6,4 km/h (2 Bft) 95,65 %
09.08.2022 03:15 10,9 C 10,0 C 93 % 1024,8 hPa 0,0 l/m 4,8 km/h (1 Bft) S-SO 157 0,000 mm 9,8 C 10,9 C 6,4 km/h (2 Bft) 91,30 %
09.08.2022 03:14 10,9 C 10,0 C 93 % 1024,8 hPa 0,0 l/m 4,8 km/h (1 Bft) S-SO 157 0,000 mm 9,8 C 10,9 C 6,4 km/h (2 Bft) 100,00 %
09.08.2022 03:13 10,9 C 10,0 C 93 % 1024,8 hPa 0,0 l/m 4,8 km/h (1 Bft) S-SO 157 0,000 mm 9,8 C 10,9 C 6,4 km/h (2 Bft) 95,65 %
09.08.2022 03:12 11,0 C 10,0 C 93 % 1024,9 hPa 0,0 l/m 4,8 km/h (1 Bft) S-SO 157 0,000 mm 9,9 C 11,0 C 6,4 km/h (2 Bft) 95,65 %
09.08.2022 03:11 10,9 C 10,0 C 93 % 1024,8 hPa 0,0 l/m 3,2 km/h (1 Bft) S-SO 157 0,000 mm 9,8 C 10,9 C 4,8 km/h (1 Bft) 100,00 %
09.08.2022 03:10 11,0 C 10,0 C 93 % 1024,8 hPa 0,0 l/m 3,2 km/h (1 Bft) S-SO 157 0,000 mm 9,9 C 11,0 C 6,4 km/h (2 Bft) 95,65 %
09.08.2022 03:09 11,1 C 10,0 C 93 % 1024,8 hPa 0,0 l/m 4,8 km/h (1 Bft) S-SO 157 0,000 mm 10,0 C 11,1 C 4,8 km/h (1 Bft) 95,65 %
09.08.2022 03:08 11,1 C 10,6 C 93 % 1024,9 hPa 0,0 l/m 3,2 km/h (1 Bft) S-SO 157 0,000 mm 10,0 C 11,1 C 6,4 km/h (2 Bft) 95,65 %
09.08.2022 03:07 11,1 C 10,6 C 93 % 1024,8 hPa 0,0 l/m 3,2 km/h (1 Bft) S-SO 157 0,000 mm 10,0 C 11,1 C 4,8 km/h (1 Bft) 95,65 %
09.08.2022 03:06 11,1 C 10,6 C 93 % 1024,8 hPa 0,0 l/m 3,2 km/h (1 Bft) S-SO 157 0,000 mm 10,0 C 11,1 C 4,8 km/h (1 Bft) 95,65 %
09.08.2022 03:05 11,0 C 10,0 C 93 % 1024,8 hPa 0,0 l/m 6,4 km/h (2 Bft) S-SO 157 0,000 mm 9,9 C 11,0 C 8,0 km/h (2 Bft) 95,65 %
09.08.2022 03:04 11,1 C 10,6 C 93 % 1024,9 hPa 0,0 l/m 6,4 km/h (2 Bft) S-SO 157 0,000 mm 10,0 C 11,1 C 8,0 km/h (2 Bft) 95,65 %
09.08.2022 03:03 11,0 C 10,6 C 93 % 1024,9 hPa 0,0 l/m 4,8 km/h (1 Bft) S-SO 157 0,000 mm 9,9 C 11,0 C 6,4 km/h (2 Bft) 95,65 %
09.08.2022 03:02 11,0 C 10,0 C 93 % 1024,8 hPa 0,0 l/m 4,8 km/h (1 Bft) S-SO 157 0,000 mm 9,9 C 11,0 C 6,4 km/h (2 Bft) 100,00 %
09.08.2022 03:01 11,0 C 10,0 C 93 % 1024,8 hPa 0,0 l/m 3,2 km/h (1 Bft) S-SO 157 0,000 mm 9,9 C 11,0 C 6,4 km/h (2 Bft) 91,30 %
09.08.2022 03:00 11,0 C 10,0 C 93 % 1024,8 hPa 0,0 l/m 4,8 km/h (1 Bft) S-SO 157 0,000 mm 9,9 C 11,0 C 6,4 km/h (2 Bft) 95,65 %
09.08.2022 02:59 10,9 C 10,0 C 93 % 1024,9 hPa 0,0 l/m 4,8 km/h (1 Bft) S-SO 157 0,000 mm 9,8 C 10,9 C 6,4 km/h (2 Bft) 91,30 %
09.08.2022 02:58 11,0 C 10,0 C 93 % 1024,8 hPa 0,0 l/m 4,8 km/h (1 Bft) S-SO 157 0,000 mm 9,9 C 11,0 C 6,4 km/h (2 Bft) 100,00 %
09.08.2022 02:57 11,0 C 10,0 C 93 % 1024,9 hPa 0,0 l/m 4,8 km/h (1 Bft) S-SO 157 0,000 mm 9,9 C 11,0 C 6,4 km/h (2 Bft) 95,65 %
09.08.2022 02:56 11,0 C 10,0 C 93 % 1024,8 hPa 0,0 l/m 4,8 km/h (1 Bft) S-SO 157 0,000 mm 9,9 C 11,0 C 6,4 km/h (2 Bft) 95,65 %
09.08.2022 02:55 11,0 C 10,0 C 93 % 1024,8 hPa 0,0 l/m 4,8 km/h (1 Bft) S-SO 157 0,000 mm 9,9 C 11,0 C 6,4 km/h (2 Bft) 100,00 %
09.08.2022 02:54 11,0 C 10,0 C 93 % 1024,9 hPa 0,0 l/m 3,2 km/h (1 Bft) S-SO 157 0,000 mm 9,9 C 11,0 C 6,4 km/h (2 Bft) 91,30 %
09.08.2022 02:53 11,0 C 10,0 C 93 % 1024,9 hPa 0,0 l/m 4,8 km/h (1 Bft) S-SO 157 0,000 mm 9,9 C 11,0 C 6,4 km/h (2 Bft) 95,65 %
09.08.2022 02:52 10,9 C 10,0 C 93 % 1024,9 hPa 0,0 l/m 4,8 km/h (1 Bft) S-SO 157 0,000 mm 9,8 C 10,9 C 6,4 km/h (2 Bft) 100,00 %
09.08.2022 02:51 10,9 C 10,0 C 93 % 1024,8 hPa 0,0 l/m 4,8 km/h (1 Bft) S-SO 157 0,000 mm 9,8 C 10,9 C 6,4 km/h (2 Bft) 91,30 %
09.08.2022 02:50 11,0 C 10,0 C 93 % 1024,9 hPa 0,0 l/m 4,8 km/h (1 Bft) S-SO 157 0,000 mm 9,9 C 11,0 C 6,4 km/h (2 Bft) 91,30 %
09.08.2022 02:49 11,1 C 10,0 C 93 % 1024,8 hPa 0,0 l/m 6,4 km/h (2 Bft) S-SO 157 0,000 mm 10,0 C 11,1 C 8,0 km/h (2 Bft) 100,00 %
09.08.2022 02:48 11,1 C 10,0 C 93 % 1024,9 hPa 0,0 l/m 6,4 km/h (2 Bft) S-SO 157 0,000 mm 10,0 C 11,1 C 8,0 km/h (2 Bft) 95,65 %
09.08.2022 02:47 11,1 C 10,0 C 93 % 1024,8 hPa 0,0 l/m 4,8 km/h (1 Bft) S-SO 157 0,000 mm 10,0 C 11,1 C 6,4 km/h (2 Bft) 95,65 %
09.08.2022 02:46 11,1 C 10,0 C 93 % 1024,8 hPa 0,0 l/m 3,2 km/h (1 Bft) S-SO 157 0,000 mm 10,0 C 11,1 C 6,4 km/h (2 Bft) 100,00 %
09.08.2022 02:45 11,1 C 10,0 C 93 % 1024,9 hPa 0,0 l/m 3,2 km/h (1 Bft) S-SO 157 0,000 mm 10,0 C 11,1 C 6,4 km/h (2 Bft) 95,65 %
09.08.2022 02:44 11,0 C 10,0 C 93 % 1024,9 hPa 0,0 l/m 3,2 km/h (1 Bft) S-SO 157 0,000 mm 9,9 C 11,0 C 3,2 km/h (1 Bft) 91,30 %
09.08.2022 02:43 11,1 C 10,0 C 93 % 1024,8 hPa 0,0 l/m 3,2 km/h (1 Bft) S-SO 157 0,000 mm 10,0 C 11,1 C 6,4 km/h (2 Bft) 100,00 %
09.08.2022 02:42 11,1 C 10,0 C 93 % 1025,0 hPa 0,0 l/m 3,2 km/h (1 Bft) S-SO 157 0,000 mm 10,0 C 11,1 C 4,8 km/h (1 Bft) 95,65 %
09.08.2022 02:41 11,1 C 10,0 C 93 % 1024,9 hPa 0,0 l/m 4,8 km/h (1 Bft) S-SO 157 0,000 mm 10,0 C 11,1 C 6,4 km/h (2 Bft) 91,30 %
09.08.2022 02:40 11,1 C 10,6 C 93 % 1024,8 hPa 0,0 l/m 4,8 km/h (1 Bft) S-SO 157 0,000 mm 10,0 C 11,1 C 6,4 km/h (2 Bft) 100,00 %
09.08.2022 02:39 11,1 C 10,6 C 93 % 1024,9 hPa 0,0 l/m 6,4 km/h (2 Bft) S-SO 157 0,000 mm 10,0 C 11,1 C 8,0 km/h (2 Bft) 91,30 %
09.08.2022 02:38 11,1 C 10,6 C 93 % 1024,8 hPa 0,0 l/m 6,4 km/h (2 Bft) S-SO 157 0,000 mm 10,0 C 11,1 C 8,0 km/h (2 Bft) 95,65 %
09.08.2022 02:37 11,1 C 10,6 C 93 % 1024,9 hPa 0,0 l/m 4,8 km/h (1 Bft) S-SO 157 0,000 mm 10,0 C 11,1 C 6,4 km/h (2 Bft) 100,00 %
09.08.2022 02:36 11,1 C 10,6 C 93 % 1024,9 hPa 0,0 l/m 4,8 km/h (1 Bft) S-SO 157 0,000 mm 10,0 C 11,1 C 6,4 km/h (2 Bft) 95,65 %
09.08.2022 02:35 11,1 C 10,6 C 93 % 1024,9 hPa 0,0 l/m 3,2 km/h (1 Bft) S-SO 157 0,000 mm 10,0 C 11,1 C 4,8 km/h (1 Bft) 91,30 %
09.08.2022 02:34 11,2 C 10,6 C 93 % 1024,9 hPa 0,0 l/m 3,2 km/h (1 Bft) S-SO 157 0,000 mm 10,1 C 11,2 C 3,2 km/h (1 Bft) 100,00 %
09.08.2022 02:33 11,2 C 10,6 C 93 % 1024,9 hPa 0,0 l/m 3,2 km/h (1 Bft) S-SO 157 0,000 mm 10,1 C 11,2 C 4,8 km/h (1 Bft) 91,30 %
09.08.2022 02:32 11,2 C 10,6 C 93 % 1024,9 hPa 0,0 l/m 3,2 km/h (1 Bft) S-SO 157 0,000 mm 10,1 C 11,2 C 4,8 km/h (1 Bft) 95,65 %
09.08.2022 02:31 11,2 C 10,6 C 93 % 1024,9 hPa 0,0 l/m 4,8 km/h (1 Bft) S-SO 157 0,000 mm 10,1 C 11,2 C 6,4 km/h (2 Bft) 95,65 %
09.08.2022 02:30 11,1 C 10,6 C 93 % 1024,9 hPa 0,0 l/m 3,2 km/h (1 Bft) S-SO 157 0,000 mm 10,0 C 11,1 C 6,4 km/h (2 Bft) 95,65 %
09.08.2022 02:29 11,1 C 10,6 C 93 % 1024,9 hPa 0,0 l/m 4,8 km/h (1 Bft) S-SO 157 0,000 mm 10,0 C 11,1 C 6,4 km/h (2 Bft) 95,65 %
09.08.2022 02:28 11,1 C 10,6 C 93 % 1024,9 hPa 0,0 l/m 4,8 km/h (1 Bft) S-SO 157 0,000 mm 10,0 C 11,1 C 8,0 km/h (2 Bft) 100,00 %
09.08.2022 02:27 11,1 C 10,6 C 93 % 1024,9 hPa 0,0 l/m 6,4 km/h (2 Bft) S-SO 157 0,000 mm 10,0 C 11,1 C 6,4 km/h (2 Bft) 95,65 %
09.08.2022 02:26 11,1 C 10,6 C 93 % 1024,9 hPa 0,0 l/m 6,4 km/h (2 Bft) S-SO 157 0,000 mm 10,0 C 11,1 C 6,4 km/h (2 Bft) 91,30 %
09.08.2022 02:25 11,1 C 10,6 C 93 % 1024,9 hPa 0,0 l/m 4,8 km/h (1 Bft) S-SO 157 0,000 mm 10,0 C 11,1 C 6,4 km/h (2 Bft) 100,00 %
09.08.2022 02:24 11,1 C 10,6 C 93 % 1024,9 hPa 0,0 l/m 6,4 km/h (2 Bft) S-SO 157 0,000 mm 10,0 C 11,1 C 6,4 km/h (2 Bft) 95,65 %
09.08.2022 02:23 11,1 C 10,6 C 93 % 1024,9 hPa 0,0 l/m 6,4 km/h (2 Bft) S-SO 157 0,000 mm 10,0 C 11,1 C 6,4 km/h (2 Bft) 95,65 %
09.08.2022 02:22 11,1 C 10,6 C 93 % 1024,9 hPa 0,0 l/m 6,4 km/h (2 Bft) S-SO 157 0,000 mm 10,0 C 11,1 C 6,4 km/h (2 Bft) 100,00 %
09.08.2022 02:21 11,1 C 10,6 C 93 % 1024,9 hPa 0,0 l/m 4,8 km/h (1 Bft) S-SO 157 0,000 mm 10,0 C 11,1 C 8,0 km/h (2 Bft) 95,65 %
09.08.2022 02:20 11,2 C 10,6 C 93 % 1024,9 hPa 0,0 l/m 6,4 km/h (2 Bft) S-SO 157 0,000 mm 10,1 C 11,2 C 8,0 km/h (2 Bft) 95,65 %
09.08.2022 02:19 11,1 C 10,6 C 93 % 1024,9 hPa 0,0 l/m 8,0 km/h (2 Bft) S-SO 157 0,000 mm 10,0 C 10,0 C 8,0 km/h (2 Bft) 100,00 %
09.08.2022 02:18 11,2 C 10,6 C 93 % 1024,9 hPa 0,0 l/m 6,4 km/h (2 Bft) S-SO 157 0,000 mm 10,1 C 11,2 C 8,0 km/h (2 Bft) 95,65 %
09.08.2022 02:17 11,2 C 10,6 C 93 % 1024,9 hPa 0,0 l/m 6,4 km/h (2 Bft) S-SO 157 0,000 mm 10,1 C 11,2 C 8,0 km/h (2 Bft) 91,30 %
09.08.2022 02:16 11,2 C 10,6 C 93 % 1024,9 hPa 0,0 l/m 6,4 km/h (2 Bft) S-SO 157 0,000 mm 10,1 C 11,2 C 6,4 km/h (2 Bft) 95,65 %
09.08.2022 02:15 11,2 C 10,6 C 93 % 1024,8 hPa 0,0 l/m 4,8 km/h (1 Bft) S-SO 157 0,000 mm 10,1 C 11,2 C 6,4 km/h (2 Bft) 91,30 %
09.08.2022 02:14 11,2 C 10,6 C 93 % 1024,9 hPa 0,0 l/m 4,8 km/h (1 Bft) S-SO 157 0,000 mm 10,1 C 11,2 C 6,4 km/h (2 Bft) 86,96 %
09.08.2022 02:13 11,2 C 10,6 C 93 % 1025,0 hPa 0,0 l/m 3,2 km/h (1 Bft) S-SO 157 0,000 mm 10,1 C 11,2 C 6,4 km/h (2 Bft) 95,65 %
09.08.2022 02:12 11,2 C 10,6 C 93 % 1024,9 hPa 0,0 l/m 4,8 km/h (1 Bft) S-SO 157 0,000 mm 10,1 C 11,2 C 6,4 km/h (2 Bft) 95,65 %
09.08.2022 02:11 11,3 C 10,6 C 93 % 1024,9 hPa 0,0 l/m 4,8 km/h (1 Bft) S-SO 157 0,000 mm 10,2 C 11,3 C 6,4 km/h (2 Bft) 86,96 %
09.08.2022 02:10 11,3 C 10,6 C 93 % 1024,9 hPa 0,0 l/m 4,8 km/h (1 Bft) S-SO 157 0,000 mm 10,2 C 11,3 C 6,4 km/h (2 Bft) 95,65 %
09.08.2022 02:09 11,3 C 10,6 C 93 % 1024,9 hPa 0,0 l/m 4,8 km/h (1 Bft) S-SO 157 0,000 mm 10,2 C 11,3 C 6,4 km/h (2 Bft) 95,65 %
09.08.2022 02:08 11,3 C 10,6 C 93 % 1024,9 hPa 0,0 l/m 4,8 km/h (1 Bft) S-SO 157 0,000 mm 10,2 C 11,3 C 6,4 km/h (2 Bft) 91,30 %
09.08.2022 02:07 11,3 C 10,6 C 93 % 1025,0 hPa 0,0 l/m 3,2 km/h (1 Bft) S-SO 157 0,000 mm 10,2 C 11,3 C 6,4 km/h (2 Bft) 86,96 %
09.08.2022 02:06 11,3 C 10,6 C 93 % 1024,9 hPa 0,0 l/m 3,2 km/h (1 Bft) S-SO 157 0,000 mm 10,2 C 11,3 C 4,8 km/h (1 Bft) 91,30 %
09.08.2022 02:05 11,3 C 10,6 C 93 % 1024,9 hPa 0,0 l/m 3,2 km/h (1 Bft) S-SO 157 0,000 mm 10,2 C 11,3 C 4,8 km/h (1 Bft) 95,65 %
09.08.2022 02:04 11,2 C 10,6 C 93 % 1025,0 hPa 0,0 l/m 3,2 km/h (1 Bft) S-SO 157 0,000 mm 10,1 C 11,2 C 4,8 km/h (1 Bft) 91,30 %
09.08.2022 02:03 11,3 C 10,6 C 93 % 1025,0 hPa 0,0 l/m 4,8 km/h (1 Bft) S-SO 157 0,000 mm 10,2 C 11,3 C 6,4 km/h (2 Bft) 100,00 %
09.08.2022 02:02 11,3 C 10,6 C 93 % 1024,9 hPa 0,0 l/m 6,4 km/h (2 Bft) S-SO 157 0,000 mm 10,2 C 11,3 C 8,0 km/h (2 Bft) 91,30 %
09.08.2022 02:01 11,3 C 10,6 C 93 % 1025,0 hPa 0,0 l/m 6,4 km/h (2 Bft) S-SO 157 0,000 mm 10,2 C 11,3 C 8,0 km/h (2 Bft) 91,30 %
09.08.2022 02:00 11,3 C 10,6 C 93 % 1025,0 hPa 0,0 l/m 6,4 km/h (2 Bft) S-SO 157 0,000 mm 10,2 C 11,3 C 8,0 km/h (2 Bft) 95,65 %
09.08.2022 01:59 11,3 C 10,6 C 93 % 1025,1 hPa 0,0 l/m 6,4 km/h (2 Bft) S-SO 157 0,000 mm 10,2 C 11,3 C 8,0 km/h (2 Bft) 95,65 %
09.08.2022 01:58 11,3 C 10,6 C 93 % 1025,0 hPa 0,0 l/m 4,8 km/h (1 Bft) S-SO 157 0,000 mm 10,2 C 11,3 C 6,4 km/h (2 Bft) 91,30 %
09.08.2022 01:57 11,3 C 10,6 C 93 % 1025,0 hPa 0,0 l/m 4,8 km/h (1 Bft) S-SO 157 0,000 mm 10,2 C 11,3 C 6,4 km/h (2 Bft) 100,00 %
09.08.2022 01:56 11,3 C 10,6 C 93 % 1024,9 hPa 0,0 l/m 3,2 km/h (1 Bft) S-SO 157 0,000 mm 10,2 C 11,3 C 6,4 km/h (2 Bft) 91,30 %
09.08.2022 01:55 11,3 C 10,6 C 93 % 1025,0 hPa 0,0 l/m 4,8 km/h (1 Bft) S-SO 157 0,000 mm 10,2 C 11,3 C 6,4 km/h (2 Bft) 95,65 %
09.08.2022 01:54 11,3 C 10,6 C 93 % 1024,9 hPa 0,0 l/m 4,8 km/h (1 Bft) S-SO 157 0,000 mm 10,2 C 11,3 C 6,4 km/h (2 Bft) 95,65 %
09.08.2022 01:53 11,3 C 10,6 C 93 % 1025,0 hPa 0,0 l/m 4,8 km/h (1 Bft) S-SO 157 0,000 mm 10,2 C 11,3 C 6,4 km/h (2 Bft) 91,30 %
09.08.2022 01:52 11,3 C 10,6 C 93 % 1025,0 hPa 0,0 l/m 6,4 km/h (2 Bft) S-SO 157 0,000 mm 10,2 C 11,3 C 8,0 km/h (2 Bft) 86,96 %
09.08.2022 01:51 11,3 C 10,6 C 93 % 1024,9 hPa 0,0 l/m 6,4 km/h (2 Bft) S-SO 157 0,000 mm 10,2 C 11,3 C 8,0 km/h (2 Bft) 100,00 %
09.08.2022 01:50 11,3 C 10,6 C 93 % 1024,9 hPa 0,0 l/m 6,4 km/h (2 Bft) S-SO 157 0,000 mm 10,2 C 11,3 C 8,0 km/h (2 Bft) 91,30 %
09.08.2022 01:49 11,3 C 10,6 C 93 % 1025,0 hPa 0,0 l/m 4,8 km/h (1 Bft) S-SO 157 0,000 mm 10,2 C 11,3 C 6,4 km/h (2 Bft) 91,30 %
09.08.2022 01:48 11,3 C 10,6 C 93 % 1025,0 hPa 0,0 l/m 3,2 km/h (1 Bft) S-SO 157 0,000 mm 10,2 C 11,3 C 6,4 km/h (2 Bft) 100,00 %
09.08.2022 01:47 11,3 C 10,6 C 93 % 1024,9 hPa 0,0 l/m 3,2 km/h (1 Bft) S-SO 157 0,000 mm 10,2 C 11,3 C 4,8 km/h (1 Bft) 91,30 %
09.08.2022 01:46 11,3 C 10,6 C 93 % 1024,9 hPa 0,0 l/m 4,8 km/h (1 Bft) S-SO 157 0,000 mm 10,2 C 11,3 C 6,4 km/h (2 Bft) 91,30 %
09.08.2022 01:45 11,3 C 10,6 C 93 % 1024,9 hPa 0,0 l/m 4,8 km/h (1 Bft) S-SO 157 0,000 mm 10,2 C 11,3 C 6,4 km/h (2 Bft) 95,65 %
09.08.2022 01:44 11,3 C 10,6 C 93 % 1024,9 hPa 0,0 l/m 4,8 km/h (1 Bft) S-SO 157 0,000 mm 10,2 C 11,3 C 6,4 km/h (2 Bft) 95,65 %
09.08.2022 01:43 11,4 C 10,6 C 93 % 1024,9 hPa 0,0 l/m 3,2 km/h (1 Bft) S-SO 157 0,000 mm 10,3 C 11,4 C 4,8 km/h (1 Bft) 86,96 %
09.08.2022 01:42 11,4 C 10,6 C 93 % 1024,9 hPa 0,0 l/m 4,8 km/h (1 Bft) S-SO 157 0,000 mm 10,3 C 11,4 C 8,0 km/h (2 Bft) 100,00 %
09.08.2022 01:41 11,4 C 10,6 C 93 % 1025,0 hPa 0,0 l/m 4,8 km/h (1 Bft) S-SO 157 0,000 mm 10,3 C 11,4 C 6,4 km/h (2 Bft) 86,96 %
09.08.2022 01:40 11,4 C 10,6 C 93 % 1024,9 hPa 0,0 l/m 4,8 km/h (1 Bft) S-SO 157 0,000 mm 10,3 C 11,4 C 6,4 km/h (2 Bft) 95,65 %
09.08.2022 01:39 11,4 C 10,6 C 93 % 1024,8 hPa 0,0 l/m 3,2 km/h (1 Bft) S-SO 157 0,000 mm 10,3 C 11,4 C 6,4 km/h (2 Bft) 95,65 %
09.08.2022 01:38 11,4 C 10,6 C 93 % 1024,9 hPa 0,0 l/m 3,2 km/h (1 Bft) S-SO 157 0,000 mm 10,3 C 11,4 C 4,8 km/h (1 Bft) 95,65 %
09.08.2022 01:37 11,4 C 10,6 C 93 % 1024,9 hPa 0,0 l/m 3,2 km/h (1 Bft) S-SO 157 0,000 mm 10,3 C 11,4 C 4,8 km/h (1 Bft) 91,30 %
09.08.2022 01:36 11,4 C 10,6 C 93 % 1024,8 hPa 0,0 l/m 3,2 km/h (1 Bft) S-SO 157 0,000 mm 10,3 C 11,4 C 4,8 km/h (1 Bft) 100,00 %
09.08.2022 01:35 11,4 C 10,6 C 93 % 1024,9 hPa 0,0 l/m 3,2 km/h (1 Bft) S-SO 157 0,000 mm 10,3 C 11,4 C 4,8 km/h (1 Bft) 86,96 %
09.08.2022 01:34 11,4 C 10,6 C 93 % 1024,8 hPa 0,0 l/m 3,2 km/h (1 Bft) S-SO 157 0,000 mm 10,3 C 11,4 C 6,4 km/h (2 Bft) 91,30 %
09.08.2022 01:33 11,4 C 10,6 C 93 % 1024,9 hPa 0,0 l/m 3,2 km/h (1 Bft) S-SO 157 0,000 mm 10,3 C 11,4 C 4,8 km/h (1 Bft) 100,00 %
09.08.2022 01:32 11,4 C 10,6 C 93 % 1024,8 hPa 0,0 l/m 4,8 km/h (1 Bft) S-SO 157 0,000 mm 10,3 C 11,4 C 6,4 km/h (2 Bft) 91,30 %
09.08.2022 01:31 11,4 C 10,6 C 93 % 1024,9 hPa 0,0 l/m 6,4 km/h (2 Bft) S-SO 157 0,000 mm 10,3 C 11,4 C 8,0 km/h (2 Bft) 95,65 %
09.08.2022 01:30 11,4 C 10,6 C 93 % 1024,9 hPa 0,0 l/m 6,4 km/h (2 Bft) S-SO 157 0,000 mm 10,3 C 11,4 C 6,4 km/h (2 Bft) 95,65 %
09.08.2022 01:29 11,5 C 10,6 C 93 % 1024,9 hPa 0,0 l/m 4,8 km/h (1 Bft) S-SO 157 0,000 mm 10,4 C 11,5 C 6,4 km/h (2 Bft) 95,65 %
09.08.2022 01:28 11,4 C 10,6 C 93 % 1024,8 hPa 0,0 l/m 4,8 km/h (1 Bft) S-SO 157 0,000 mm 10,3 C 11,4 C 6,4 km/h (2 Bft) 95,65 %
09.08.2022 01:27 11,5 C 10,6 C 93 % 1024,9 hPa 0,0 l/m 4,8 km/h (1 Bft) S-SO 157 0,000 mm 10,4 C 11,5 C 6,4 km/h (2 Bft) 100,00 %
09.08.2022 01:26 11,5 C 10,6 C 93 % 1024,8 hPa 0,0 l/m 4,8 km/h (1 Bft) S-SO 157 0,000 mm 10,4 C 11,5 C 6,4 km/h (2 Bft) 95,65 %
09.08.2022 01:25 11,5 C 10,6 C 93 % 1024,7 hPa 0,0 l/m 4,8 km/h (1 Bft) S-SO 157 0,000 mm 10,4 C 11,5 C 6,4 km/h (2 Bft) 91,30 %
09.08.2022 01:24 11,4 C 10,6 C 92 % 1024,8 hPa 0,0 l/m 6,4 km/h (2 Bft) S-SO 157 0,000 mm 10,1 C 11,4 C 8,0 km/h (2 Bft) 95,65 %
09.08.2022 01:23 11,4 C 10,6 C 92 % 1024,9 hPa 0,0 l/m 6,4 km/h (2 Bft) S-SO 157 0,000 mm 10,1 C 11,4 C 8,0 km/h (2 Bft) 100,00 %
09.08.2022 01:22 11,5 C 10,6 C 92 % 1024,8 hPa 0,0 l/m 6,4 km/h (2 Bft) S-SO 157 0,000 mm 10,2 C 11,5 C 8,0 km/h (2 Bft) 95,65 %
09.08.2022 01:21 11,4 C 10,6 C 92 % 1024,7 hPa 0,0 l/m 6,4 km/h (2 Bft) S-SO 157 0,000 mm 10,1 C 11,4 C 8,0 km/h (2 Bft) 86,96 %
09.08.2022 01:20 11,5 C 10,6 C 92 % 1024,8 hPa 0,0 l/m 6,4 km/h (2 Bft) S-SO 157 0,000 mm 10,2 C 11,5 C 8,0 km/h (2 Bft) 100,00 %
09.08.2022 01:19 11,5 C 11,1 C 92 % 1024,7 hPa 0,0 l/m 6,4 km/h (2 Bft) S-SO 157 0,000 mm 10,2 C 11,5 C 8,0 km/h (2 Bft) 95,65 %
09.08.2022 01:18 11,5 C 10,6 C 92 % 1024,8 hPa 0,0 l/m 6,4 km/h (2 Bft) S-SO 157 0,000 mm 10,2 C 11,5 C 8,0 km/h (2 Bft) 95,65 %
09.08.2022 01:17 11,5 C 10,6 C 92 % 1024,7 hPa 0,0 l/m 6,4 km/h (2 Bft) S-SO 157 0,000 mm 10,2 C 11,5 C 8,0 km/h (2 Bft) 100,00 %
09.08.2022 01:16 11,5 C 11,1 C 92 % 1024,8 hPa 0,0 l/m 6,4 km/h (2 Bft) S-SO 157 0,000 mm 10,2 C 11,5 C 8,0 km/h (2 Bft) 91,30 %
09.08.2022 01:15 11,6 C 11,1 C 92 % 1024,8 hPa 0,0 l/m 6,4 km/h (2 Bft) S-SO 157 0,000 mm 10,3 C 11,6 C 8,0 km/h (2 Bft) 95,65 %
09.08.2022 01:14 11,5 C 11,1 C 92 % 1024,8 hPa 0,0 l/m 6,4 km/h (2 Bft) S-SO 157 0,000 mm 10,2 C 11,5 C 8,0 km/h (2 Bft) 95,65 %
09.08.2022 01:13 11,5 C 11,1 C 92 % 1024,8 hPa 0,0 l/m 6,4 km/h (2 Bft) S-SO 157 0,000 mm 10,2 C 11,5 C 8,0 km/h (2 Bft) 95,65 %
09.08.2022 01:12 11,6 C 11,1 C 92 % 1024,7 hPa 0,0 l/m 6,4 km/h (2 Bft) S-SO 157 0,000 mm 10,3 C 11,6 C 8,0 km/h (2 Bft) 91,30 %
09.08.2022 01:11 11,6 C 11,1 C 92 % 1024,7 hPa 0,0 l/m 6,4 km/h (2 Bft) S-SO 157 0,000 mm 10,3 C 11,6 C 8,0 km/h (2 Bft) 100,00 %
09.08.2022 01:10 11,6 C 11,1 C 92 % 1024,7 hPa 0,0 l/m 4,8 km/h (1 Bft) S-SO 157 0,000 mm 10,3 C 11,6 C 6,4 km/h (2 Bft) 95,65 %
09.08.2022 01:09 11,6 C 11,1 C 92 % 1024,7 hPa 0,0 l/m 4,8 km/h (1 Bft) S-SO 157 0,000 mm 10,3 C 11,6 C 6,4 km/h (2 Bft) 95,65 %
09.08.2022 01:08 11,6 C 11,1 C 92 % 1024,7 hPa 0,0 l/m 4,8 km/h (1 Bft) S-SO 157 0,000 mm 10,3 C 11,6 C 6,4 km/h (2 Bft) 95,65 %
09.08.2022 01:07 11,6 C 11,1 C 92 % 1024,7 hPa 0,0 l/m 4,8 km/h (1 Bft) S-SO 157 0,000 mm 10,3 C 11,6 C 6,4 km/h (2 Bft) 91,30 %
09.08.2022 01:06 11,6 C 11,1 C 92 % 1024,7 hPa 0,0 l/m 4,8 km/h (1 Bft) S-SO 157 0,000 mm 10,3 C 11,6 C 6,4 km/h (2 Bft) 95,65 %
09.08.2022 01:05 11,7 C 11,1 C 92 % 1024,6 hPa 0,0 l/m 3,2 km/h (1 Bft) S-SO 157 0,000 mm 10,4 C 11,7 C 6,4 km/h (2 Bft) 95,65 %
09.08.2022 01:04 11,6 C 11,1 C 92 % 1024,7 hPa 0,0 l/m 4,8 km/h (1 Bft) S-SO 157 0,000 mm 10,3 C 11,6 C 6,4 km/h (2 Bft) 95,65 %
09.08.2022 01:03 11,7 C 11,1 C 92 % 1024,7 hPa 0,0 l/m 4,8 km/h (1 Bft) S-SO 157 0,000 mm 10,4 C 11,7 C 6,4 km/h (2 Bft) 95,65 %
09.08.2022 01:02 11,7 C 11,1 C 92 % 1024,6 hPa 0,0 l/m 4,8 km/h (1 Bft) S-SO 157 0,000 mm 10,4 C 11,7 C 6,4 km/h (2 Bft) 95,65 %
09.08.2022 01:01 11,7 C 11,1 C 92 % 1024,7 hPa 0,0 l/m 6,4 km/h (2 Bft) S-SO 157 0,000 mm 10,4 C 11,7 C 6,4 km/h (2 Bft) 95,65 %
09.08.2022 01:00 11,7 C 11,1 C 92 % 1024,6 hPa 0,0 l/m 4,8 km/h (1 Bft) S-SO 157 0,000 mm 10,4 C 11,7 C 8,0 km/h (2 Bft) 95,65 %
09.08.2022 00:59 11,7 C 11,1 C 92 % 1024,6 hPa 0,0 l/m 4,8 km/h (1 Bft) S-SO 157 0,000 mm 10,4 C 11,7 C 6,4 km/h (2 Bft) 100,00 %
09.08.2022 00:58 11,7 C 11,1 C 92 % 1024,7 hPa 0,0 l/m 4,8 km/h (1 Bft) S-SO 157 0,000 mm 10,4 C 11,7 C 6,4 km/h (2 Bft) 95,65 %
09.08.2022 00:57 11,7 C 11,1 C 92 % 1024,6 hPa 0,0 l/m 4,8 km/h (1 Bft) S 180 0,000 mm 10,4 C 11,7 C 6,4 km/h (2 Bft) 95,65 %
09.08.2022 00:56 11,7 C 11,1 C 92 % 1024,6 hPa 0,0 l/m 4,8 km/h (1 Bft) S-SO 157 0,000 mm 10,4 C 11,7 C 6,4 km/h (2 Bft) 100,00 %
09.08.2022 00:55 11,7 C 11,1 C 92 % 1024,6 hPa 0,0 l/m 4,8 km/h (1 Bft) S-SO 157 0,000 mm 10,4 C 11,7 C 6,4 km/h (2 Bft) 95,65 %
09.08.2022 00:54 11,7 C 11,1 C 92 % 1024,7 hPa 0,0 l/m 3,2 km/h (1 Bft) S 180 0,000 mm 10,4 C 11,7 C 4,8 km/h (1 Bft) 95,65 %
09.08.2022 00:53 11,7 C 11,1 C 92 % 1024,5 hPa 0,0 l/m 3,2 km/h (1 Bft) S 180 0,000 mm 10,4 C 11,7 C 6,4 km/h (2 Bft) 100,00 %
09.08.2022 00:52 11,8 C 11,1 C 92 % 1024,5 hPa 0,0 l/m 4,8 km/h (1 Bft) S-SO 157 0,000 mm 10,5 C 11,8 C 6,4 km/h (2 Bft) 95,65 %
09.08.2022 00:51 11,8 C 11,1 C 92 % 1024,6 hPa 0,0 l/m 6,4 km/h (2 Bft) S-SO 157 0,000 mm 10,5 C 11,8 C 8,0 km/h (2 Bft) 95,65 %
09.08.2022 00:50 11,8 C 11,1 C 92 % 1024,6 hPa 0,0 l/m 4,8 km/h (1 Bft) S-SO 157 0,000 mm 10,5 C 11,8 C 6,4 km/h (2 Bft) 100,00 %
09.08.2022 00:49 11,8 C 11,1 C 92 % 1024,6 hPa 0,0 l/m 4,8 km/h (1 Bft) S-SO 157 0,000 mm 10,5 C 11,8 C 6,4 km/h (2 Bft) 91,30 %
09.08.2022 00:48 11,8 C 11,1 C 92 % 1024,4 hPa 0,0 l/m 6,4 km/h (2 Bft) S-SO 157 0,000 mm 10,5 C 11,8 C 8,0 km/h (2 Bft) 95,65 %
09.08.2022 00:47 11,8 C 11,1 C 92 % 1024,5 hPa 0,0 l/m 4,8 km/h (1 Bft) S-SO 157 0,000 mm 10,5 C 11,8 C 6,4 km/h (2 Bft) 100,00 %
09.08.2022 00:46 11,8 C 11,1 C 92 % 1024,5 hPa 0,0 l/m 4,8 km/h (1 Bft) S-SO 157 0,000 mm 10,5 C 11,8 C 6,4 km/h (2 Bft) 91,30 %
09.08.2022 00:45 11,8 C 11,1 C 92 % 1024,5 hPa 0,0 l/m 3,2 km/h (1 Bft) S-SO 157 0,000 mm 10,5 C 11,8 C 6,4 km/h (2 Bft) 95,65 %
09.08.2022 00:44 11,8 C 11,1 C 92 % 1024,4 hPa 0,0 l/m 4,8 km/h (1 Bft) S-SO 157 0,000 mm 10,5 C 11,8 C 6,4 km/h (2 Bft) 100,00 %
09.08.2022 00:43 11,8 C 11,1 C 92 % 1024,5 hPa 0,0 l/m 3,2 km/h (1 Bft) S-SO 157 0,000 mm 10,5 C 11,8 C 6,4 km/h (2 Bft) 95,65 %
09.08.2022 00:42 11,8 C 11,1 C 92 % 1024,5 hPa 0,0 l/m 3,2 km/h (1 Bft) S-SO 157 0,000 mm 10,5 C 11,8 C 4,8 km/h (1 Bft) 95,65 %
09.08.2022 00:41 11,9 C 11,1 C 92 % 1024,5 hPa 0,0 l/m 4,8 km/h (1 Bft) S-SO 157 0,000 mm 10,6 C 11,9 C 4,8 km/h (1 Bft) 100,00 %
09.08.2022 00:40 11,9 C 11,1 C 92 % 1024,4 hPa 0,0 l/m 4,8 km/h (1 Bft) S-SO 157 0,000 mm 10,6 C 11,9 C 4,8 km/h (1 Bft) 91,30 %
09.08.2022 00:39 11,9 C 11,1 C 92 % 1024,4 hPa 0,0 l/m 3,2 km/h (1 Bft) S-SO 157 0,000 mm 10,6 C 11,9 C 4,8 km/h (1 Bft) 95,65 %
09.08.2022 00:38 11,9 C 11,1 C 92 % 1024,4 hPa 0,0 l/m 3,2 km/h (1 Bft) S-SO 157 0,000 mm 10,6 C 11,9 C 3,2 km/h (1 Bft) 91,30 %
09.08.2022 00:37 11,9 C 11,1 C 92 % 1024,4 hPa 0,0 l/m 3,2 km/h (1 Bft) S-SO 157 0,000 mm 10,6 C 11,9 C 3,2 km/h (1 Bft) 100,00 %
09.08.2022 00:36 11,9 C 11,1 C 92 % 1024,4 hPa 0,0 l/m 3,2 km/h (1 Bft) S-SO 157 0,000 mm 10,6 C 11,9 C 6,4 km/h (2 Bft) 91,30 %
09.08.2022 00:35 11,9 C 11,1 C 92 % 1024,3 hPa 0,0 l/m 3,2 km/h (1 Bft) S-SO 157 0,000 mm 10,6 C 11,9 C 3,2 km/h (1 Bft) 95,65 %
09.08.2022 00:34 11,9 C 11,1 C 92 % 1024,3 hPa 0,0 l/m 3,2 km/h (1 Bft) S-SO 157 0,000 mm 10,6 C 11,9 C 6,4 km/h (2 Bft) 100,00 %
09.08.2022 00:33 11,9 C 11,1 C 92 % 1024,3 hPa 0,0 l/m 4,8 km/h (1 Bft) S-SO 157 0,000 mm 10,6 C 11,9 C 6,4 km/h (2 Bft) 91,30 %
09.08.2022 00:32 11,9 C 11,1 C 92 % 1024,4 hPa 0,0 l/m 4,8 km/h (1 Bft) S-SO 157 0,000 mm 10,6 C 11,9 C 6,4 km/h (2 Bft) 95,65 %
09.08.2022 00:31 11,9 C 11,1 C 92 % 1024,4 hPa 0,0 l/m 3,2 km/h (1 Bft) S-SO 157 0,000 mm 10,6 C 11,9 C 6,4 km/h (2 Bft) 95,65 %
09.08.2022 00:30 11,9 C 11,1 C 92 % 1024,4 hPa 0,0 l/m 3,2 km/h (1 Bft) S-SO 157 0,000 mm 10,6 C 11,9 C 4,8 km/h (1 Bft) 95,65 %
09.08.2022 00:29 11,9 C 11,1 C 92 % 1024,3 hPa 0,0 l/m 3,2 km/h (1 Bft) S-SO 157 0,000 mm 10,6 C 11,9 C 6,4 km/h (2 Bft) 95,65 %
09.08.2022 00:28 11,9 C 11,1 C 92 % 1024,3 hPa 0,0 l/m 3,2 km/h (1 Bft) S-SO 157 0,000 mm 10,6 C 11,9 C 6,4 km/h (2 Bft) 100,00 %
09.08.2022 00:27 11,9 C 11,1 C 92 % 1024,3 hPa 0,0 l/m 3,2 km/h (1 Bft) S-SO 157 0,000 mm 10,6 C 11,9 C 6,4 km/h (2 Bft) 91,30 %
09.08.2022 00:26 11,9 C 11,1 C 92 % 1024,3 hPa 0,0 l/m 3,2 km/h (1 Bft) S-SO 157 0,000 mm 10,6 C 11,9 C 3,2 km/h (1 Bft) 95,65 %
09.08.2022 00:25 11,9 C 11,1 C 92 % 1024,3 hPa 0,0 l/m 3,2 km/h (1 Bft) S-SO 157 0,000 mm 10,6 C 11,9 C 6,4 km/h (2 Bft) 100,00 %
09.08.2022 00:24 11,9 C 11,1 C 92 % 1024,3 hPa 0,0 l/m 4,8 km/h (1 Bft) S-SO 157 0,000 mm 10,6 C 11,9 C 6,4 km/h (2 Bft) 91,30 %
09.08.2022 00:23 11,9 C 11,1 C 92 % 1024,4 hPa 0,0 l/m 4,8 km/h (1 Bft) S-SO 157 0,000 mm 10,6 C 11,9 C 8,0 km/h (2 Bft) 95,65 %
09.08.2022 00:22 11,9 C 11,1 C 92 % 1024,3 hPa 0,0 l/m 6,4 km/h (2 Bft) S-SO 157 0,000 mm 10,6 C 11,9 C 8,0 km/h (2 Bft) 100,00 %
09.08.2022 00:21 11,9 C 11,1 C 92 % 1024,3 hPa 0,0 l/m 6,4 km/h (2 Bft) S-SO 157 0,000 mm 10,6 C 11,9 C 8,0 km/h (2 Bft) 95,65 %
09.08.2022 00:20 11,9 C 11,1 C 92 % 1024,3 hPa 0,0 l/m 6,4 km/h (2 Bft) S-SO 157 0,000 mm 10,6 C 11,9 C 8,0 km/h (2 Bft) 95,65 %
09.08.2022 00:19 11,9 C 11,1 C 92 % 1024,3 hPa 0,0 l/m 8,0 km/h (2 Bft) S-SO 157 0,000 mm 10,6 C 10,8 C 8,0 km/h (2 Bft) 100,00 %
09.08.2022 00:18 12,0 C 11,1 C 92 % 1024,3 hPa 0,0 l/m 6,4 km/h (2 Bft) S-SO 157 0,000 mm 10,7 C 12,0 C 8,0 km/h (2 Bft) 91,30 %
09.08.2022 00:17 12,0 C 11,1 C 92 % 1024,3 hPa 0,0 l/m 4,8 km/h (1 Bft) S-SO 157 0,000 mm 10,7 C 12,0 C 8,0 km/h (2 Bft) 95,65 %
09.08.2022 00:16 12,1 C 11,1 C 92 % 1024,4 hPa 0,0 l/m 6,4 km/h (2 Bft) S-SO 157 0,000 mm 10,8 C 12,1 C 8,0 km/h (2 Bft) 100,00 %
09.08.2022 00:15 12,1 C 11,1 C 92 % 1024,4 hPa 0,0 l/m 4,8 km/h (1 Bft) S-SO 157 0,000 mm 10,8 C 12,1 C 6,4 km/h (2 Bft) 95,65 %
09.08.2022 00:14 12,2 C 11,1 C 92 % 1024,4 hPa 0,0 l/m 4,8 km/h (1 Bft) S-SO 157 0,000 mm 10,9 C 12,2 C 6,4 km/h (2 Bft) 91,30 %
09.08.2022 00:13 12,2 C 11,1 C 92 % 1024,4 hPa 0,0 l/m 3,2 km/h (1 Bft) S-SO 157 0,000 mm 10,9 C 12,2 C 4,8 km/h (1 Bft) 100,00 %
09.08.2022 00:12 12,1 C 11,1 C 92 % 1024,4 hPa 0,0 l/m 3,2 km/h (1 Bft) S-SO 157 0,000 mm 10,8 C 12,1 C 6,4 km/h (2 Bft) 91,30 %
09.08.2022 00:11 12,1 C 11,1 C 92 % 1024,4 hPa 0,0 l/m 3,2 km/h (1 Bft) SO 135 0,000 mm 10,8 C 12,1 C 3,2 km/h (1 Bft) 95,65 %
09.08.2022 00:10 12,1 C 11,1 C 92 % 1024,4 hPa 0,0 l/m 3,2 km/h (1 Bft) SO 135 0,000 mm 10,8 C 12,1 C 3,2 km/h (1 Bft) 95,65 %
09.08.2022 00:09 12,2 C 11,1 C 92 % 1024,3 hPa 0,0 l/m 1,6 km/h (1 Bft) SO 135 0,000 mm 10,9 C 12,2 C 3,2 km/h (1 Bft) 95,65 %
09.08.2022 00:08 12,2 C 11,1 C 92 % 1024,4 hPa 0,0 l/m 1,6 km/h (1 Bft) SO 135 0,000 mm 10,9 C 12,2 C 3,2 km/h (1 Bft) 95,65 %
09.08.2022 00:07 12,1 C 11,1 C 92 % 1024,4 hPa 0,0 l/m 1,6 km/h (1 Bft) S-SO 157 0,000 mm 10,8 C 12,1 C 3,2 km/h (1 Bft) 95,65 %
09.08.2022 00:06 12,2 C 11,1 C 92 % 1024,4 hPa 0,0 l/m 1,6 km/h (1 Bft) S-SO 157 0,000 mm 10,9 C 12,2 C 3,2 km/h (1 Bft) 91,30 %
09.08.2022 00:05 12,2 C 11,1 C 92 % 1024,3 hPa 0,0 l/m 3,2 km/h (1 Bft) S-SO 157 0,000 mm 10,9 C 12,2 C 3,2 km/h (1 Bft) 95,65 %
09.08.2022 00:04 12,2 C 11,7 C 92 % 1024,3 hPa 0,0 l/m 3,2 km/h (1 Bft) S-SO 157 0,000 mm 10,9 C 12,2 C 3,2 km/h (1 Bft) 100,00 %
09.08.2022 00:03 12,2 C 11,1 C 92 % 1024,3 hPa 0,0 l/m 3,2 km/h (1 Bft) S-SO 157 0,000 mm 10,9 C 12,2 C 4,8 km/h (1 Bft) 86,96 %
09.08.2022 00:02 12,2 C 11,1 C 92 % 1024,4 hPa 0,0 l/m 4,8 km/h (1 Bft) S-SO 157 0,000 mm 10,9 C 12,2 C 6,4 km/h (2 Bft) 95,65 %
09.08.2022 00:01 12,1 C 11,1 C 92 % 1024,3 hPa 0,0 l/m 3,2 km/h (1 Bft) S-SO 157 0,000 mm 10,8 C 12,1 C 6,4 km/h (2 Bft) 95,65 %
09.08.2022 00:00 12,2 C 11,1 C 92 % 1024,3 hPa 0,0 l/m 4,8 km/h (1 Bft) S-SO 157 0,000 mm 10,9 C 12,2 C 6,4 km/h (2 Bft) 100,00 %
_ Min-Zeit 05:13 03:57 15:12 18:09 - 06:33 - - - 05:22 05:35 06:34 17:33
Minimum _ 10,1 C 9,4 C 41 % 1023,0 hPa - 0,0 km/h (0 Bft) - - - 9,0 C 9,0 C 0,0 km/h (0 Bft) 0,00 %
_ Max-Zeit 15:20 14:39 04:38 08:46 00:00 13:51 - - 00:00 17:33 15:21 13:10 00:00
Maximum _ 26,8 C 40,0 C 94 % 1025,7 hPa 0,0 l/m 12,9 km/h
W-SW (3 Bft)
- - 0,000 mm 17,1 C 26,8 C 16,1 km/h
S-SO (3 Bft)
100,00 %
Durchschnitt _ 18,2 C 19,7 C 71 % 1024,6 hPa #0,0 l/m 4,4 km/h (1 Bft) S-SO - #0,000 mm 12,2 C 18,1 C 6,6 km/h (2 Bft) 94,14 %